[[{"header":{"parameterUnit":"m.s-1","parameterCategory":1,"la1":30.6,"la2":29.2853,"lo1":-89.7004,"lo2":-87.6739,"dy":0.0162,"dx":0.0183,"nx":112,"ny":82,"refTime":"2026-04-20T00:00:00:Z","depth":0,"parameterNumber":2,"parameterNumberName":"U-component_of_WINDS"},"data":[0.0,0.0,0.0,0.0,0.0,0.0,0.0,0.0,0.0,0.0,0.0,0.0,0.0,0.0,0.0,0.0,0.0,0.0,0.0,0.0,0.0,0.0,0.0,0.0,0.0,0.0,0.0,0.0,0.0,0.0,0.0,0.0,0.0,0.0,0.0,0.0,0.0,0.0,0.0,0.0,0.0,0.0,0.0,0.0,0.0,0.0,0.0,0.0,0.0,0.0,0.0,0.0,0.0,0.0,0.0,0.0,0.0,0.0,0.0,0.0,0.0,0.0,0.0,0.0,0.0,0.0,0.0,0.0,0.0,0.0,0.0,0.0,0.0,0.0,0.0,0.0,0.0,0.0,0.0,0.0,0.0,0.0,0.0,0.0,0.0,0.0,0.0,0.0,0.0,0.0,-5.7848,-6.1593,-6.6808,-6.9387,-6.784,-6.5677,-6.2769,-5.8941,0.0,0.0,0.0,0.0,0.0,0.0,0.0,0.0,0.0,0.0,0.0,0.0,0.0,0.0,0.0,0.0,0.0,0.0,0.0,0.0,0.0,0.0,0.0,0.0,0.0,0.0,0.0,0.0,0.0,0.0,0.0,0.0,0.0,0.0,0.0,0.0,0.0,0.0,0.0,0.0,0.0,0.0,0.0,0.0,0.0,0.0,0.0,0.0,0.0,0.0,0.0,0.0,0.0,0.0,0.0,0.0,0.0,0.0,0.0,0.0,0.0,0.0,0.0,0.0,0.0,0.0,0.0,0.0,0.0,0.0,0.0,0.0,0.0,0.0,0.0,0.0,0.0,0.0,0.0,0.0,0.0,0.0,0.0,0.0,0.0,0.0,0.0,0.0,0.0,0.0,0.0,0.0,0.0,0.0,0.0,0.0,0.0,0.0,0.0,0.0,0.0,0.0,0.0,0.0,-5.7695,-6.3231,-6.6483,-6.7897,-6.6961,-6.5853,-6.3345,-5.8979,0.0,0.0,0.0,0.0,0.0,0.0,0.0,0.0,0.0,0.0,0.0,0.0,0.0,0.0,0.0,0.0,0.0,0.0,0.0,0.0,0.0,0.0,0.0,0.0,0.0,0.0,0.0,0.0,0.0,0.0,0.0,0.0,0.0,0.0,0.0,0.0,0.0,0.0,0.0,0.0,0.0,0.0,0.0,0.0,0.0,0.0,0.0,0.0,0.0,0.0,0.0,0.0,0.0,0.0,0.0,0.0,0.0,0.0,0.0,0.0,0.0,0.0,0.0,0.0,0.0,0.0,0.0,0.0,0.0,0.0,0.0,0.0,0.0,0.0,0.0,0.0,0.0,0.0,0.0,0.0,0.0,0.0,0.0,0.0,0.0,0.0,0.0,0.0,0.0,0.0,0.0,0.0,0.0,0.0,0.0,0.0,0.0,0.0,0.0,0.0,0.0,0.0,0.0,-5.7638,-6.1039,-6.5127,-6.6961,-6.7381,-6.6101,-6.4802,-6.2315,-5.8258,-5.3418,0.0,0.0,0.0,0.0,0.0,0.0,0.0,0.0,0.0,0.0,0.0,0.0,0.0,0.0,0.0,0.0,0.0,0.0,0.0,0.0,0.0,0.0,0.0,0.0,0.0,0.0,0.0,0.0,0.0,0.0,0.0,0.0,0.0,0.0,0.0,0.0,0.0,0.0,0.0,0.0,0.0,0.0,0.0,0.0,0.0,0.0,0.0,0.0,0.0,0.0,0.0,0.0,0.0,0.0,0.0,0.0,0.0,0.0,0.0,0.0,0.0,0.0,0.0,0.0,0.0,0.0,0.0,0.0,0.0,0.0,0.0,0.0,0.0,0.0,0.0,0.0,0.0,0.0,0.0,0.0,0.0,0.0,0.0,0.0,0.0,0.0,0.0,0.0,0.0,0.0,0.0,0.0,0.0,0.0,0.0,0.0,0.0,0.0,0.0,0.0,0.0,0.0,-6.1497,-6.3942,-6.5891,-6.6827,-6.6636,-6.4955,-6.3274,-6.0732,-5.7028,-5.276,0.0,0.0,0.0,0.0,0.0,0.0,0.0,0.0,0.0,0.0,0.0,0.0,0.0,0.0,0.0,0.0,0.0,0.0,0.0,0.0,0.0,0.0,0.0,0.0,0.0,0.0,0.0,0.0,0.0,0.0,0.0,0.0,0.0,0.0,0.0,0.0,0.0,0.0,0.0,0.0,0.0,0.0,0.0,0.0,0.0,0.0,0.0,0.0,0.0,0.0,0.0,0.0,0.0,0.0,0.0,0.0,0.0,0.0,0.0,0.0,0.0,0.0,0.0,0.0,0.0,0.0,0.0,0.0,0.0,0.0,0.0,0.0,0.0,0.0,0.0,0.0,0.0,0.0,0.0,0.0,0.0,0.0,0.0,0.0,0.0,0.0,0.0,0.0,0.0,0.0,0.0,0.0,0.0,0.0,0.0,0.0,0.0,0.0,0.0,0.0,0.0,0.0,-6.2032,-6.4187,-6.4359,-6.5089,-6.4898,-6.3216,-6.1535,-5.9011,-5.5302,-5.1571,0.0,0.0,0.0,0.0,0.0,0.0,0.0,0.0,0.0,0.0,0.0,0.0,0.0,0.0,0.0,0.0,0.0,0.0,0.0,0.0,0.0,0.0,0.0,0.0,0.0,0.0,0.0,0.0,0.0,0.0,0.0,0.0,0.0,0.0,0.0,0.0,0.0,0.0,0.0,0.0,0.0,0.0,0.0,0.0,0.0,0.0,0.0,0.0,0.0,0.0,0.0,0.0,0.0,0.0,0.0,0.0,0.0,0.0,0.0,0.0,0.0,0.0,0.0,0.0,0.0,0.0,0.0,0.0,0.0,0.0,0.0,0.0,0.0,0.0,0.0,0.0,0.0,0.0,0.0,0.0,0.0,0.0,0.0,0.0,0.0,0.0,0.0,0.0,0.0,0.0,0.0,0.0,0.0,0.0,0.0,0.0,0.0,0.0,0.0,0.0,0.0,0.0,-6.1612,-6.3599,-6.4148,-6.4917,-6.4726,-6.3045,-6.0867,-5.8268,-5.5151,0.0,0.0,0.0,0.0,0.0,0.0,0.0,0.0,0.0,0.0,0.0,0.0,0.0,0.0,0.0,0.0,0.0,0.0,0.0,0.0,0.0,0.0,0.0,0.0,0.0,0.0,0.0,0.0,0.0,0.0,0.0,0.0,0.0,0.0,0.0,0.0,0.0,0.0,0.0,0.0,0.0,0.0,0.0,0.0,0.0,0.0,0.0,0.0,0.0,0.0,0.0,0.0,0.0,0.0,0.0,0.0,0.0,0.0,0.0,0.0,0.0,0.0,0.0,0.0,0.0,0.0,0.0,0.0,0.0,0.0,0.0,0.0,0.0,0.0,0.0,0.0,0.0,0.0,0.0,0.0,0.0,0.0,0.0,0.0,0.0,0.0,0.0,0.0,0.0,0.0,0.0,0.0,0.0,0.0,0.0,0.0,0.0,0.0,0.0,0.0,0.0,0.0,-5.8249,-6.1421,-6.3541,-6.4148,-6.4917,-6.4611,-6.2662,-6.0179,-5.7442,-5.4424,0.0,0.0,0.0,0.0,0.0,0.0,0.0,0.0,0.0,0.0,0.0,0.0,0.0,0.0,0.0,0.0,0.0,0.0,0.0,0.0,0.0,0.0,0.0,0.0,0.0,0.0,0.0,0.0,0.0,0.0,0.0,0.0,0.0,0.0,0.0,0.0,0.0,0.0,0.0,0.0,0.0,0.0,0.0,0.0,0.0,0.0,0.0,0.0,0.0,0.0,0.0,0.0,0.0,0.0,0.0,0.0,0.0,0.0,0.0,0.0,0.0,0.0,0.0,0.0,0.0,0.0,0.0,0.0,0.0,0.0,0.0,0.0,0.0,0.0,0.0,0.0,0.0,0.0,0.0,0.0,0.0,0.0,0.0,0.0,0.0,0.0,0.0,0.0,0.0,0.0,0.0,0.0,0.0,0.0,0.0,0.0,0.0,0.0,0.0,0.0,0.0,0.0,-5.7562,-6.1554,-6.4167,-6.4167,-6.4879,-6.4344,-6.1822,-5.9338,-5.6395,0.0,0.0,0.0,0.0,0.0,0.0,0.0,0.0,0.0,0.0,0.0,0.0,0.0,0.0,0.0,0.0,0.0,0.0,0.0,0.0,0.0,0.0,0.0,0.0,0.0,0.0,0.0,0.0,0.0,0.0,0.0,0.0,0.0,0.0,0.0,0.0,0.0,0.0,0.0,0.0,0.0,0.0,0.0,0.0,0.0,0.0,0.0,0.0,0.0,0.0,0.0,0.0,0.0,0.0,0.0,0.0,0.0,0.0,0.0,0.0,0.0,0.0,0.0,0.0,0.0,0.0,0.0,0.0,0.0,0.0,0.0,0.0,0.0,0.0,0.0,0.0,0.0,0.0,0.0,0.0,0.0,0.0,0.0,0.0,0.0,0.0,0.0,0.0,0.0,0.0,0.0,0.0,0.0,0.0,0.0,0.0,0.0,0.0,0.0,0.0,0.0,0.0,0.0,-5.6664,-6.0122,-6.2376,-6.2376,-6.314,-6.3083,-6.1726,-5.9338,-5.6943,-5.4636,0.0,0.0,0.0,0.0,0.0,0.0,0.0,0.0,0.0,0.0,0.0,0.0,0.0,0.0,0.0,0.0,0.0,0.0,0.0,0.0,0.0,0.0,0.0,0.0,0.0,0.0,0.0,0.0,0.0,0.0,0.0,0.0,0.0,0.0,0.0,0.0,0.0,0.0,0.0,0.0,0.0,0.0,0.0,0.0,0.0,0.0,0.0,0.0,0.0,0.0,0.0,0.0,0.0,0.0,0.0,0.0,0.0,0.0,0.0,0.0,0.0,0.0,0.0,0.0,0.0,0.0,0.0,0.0,0.0,0.0,0.0,0.0,0.0,0.0,0.0,0.0,0.0,0.0,0.0,0.0,0.0,0.0,0.0,0.0,0.0,0.0,0.0,0.0,0.0,0.0,0.0,0.0,0.0,0.0,0.0,0.0,0.0,0.0,0.0,0.0,0.0,0.0,-5.5823,-5.9338,-6.1593,-6.1593,-6.2376,-6.2433,-6.1211,-5.9434,-5.7357,-5.4969,0.0,0.0,0.0,0.0,0.0,0.0,0.0,0.0,0.0,0.0,0.0,0.0,0.0,0.0,0.0,0.0,0.0,0.0,0.0,0.0,0.0,0.0,0.0,0.0,0.0,0.0,0.0,0.0,0.0,0.0,0.0,0.0,0.0,0.0,0.0,0.0,0.0,0.0,0.0,0.0,0.0,0.0,0.0,0.0,0.0,0.0,0.0,0.0,0.0,0.0,0.0,0.0,0.0,0.0,0.0,0.0,0.0,0.0,0.0,0.0,0.0,0.0,0.0,0.0,0.0,0.0,0.0,0.0,0.0,0.0,0.0,0.0,0.0,0.0,0.0,0.0,0.0,0.0,0.0,0.0,0.0,0.0,0.0,0.0,0.0,0.0,0.0,0.0,0.0,0.0,0.0,0.0,0.0,0.0,0.0,0.0,0.0,0.0,0.0,0.0,0.0,0.0,-5.5193,-5.8956,-6.1497,-6.1497,-6.2204,-6.2051,-6.0537,-5.9606,-5.7714,-5.4428,0.0,0.0,0.0,0.0,0.0,0.0,0.0,0.0,0.0,0.0,0.0,0.0,0.0,0.0,0.0,0.0,0.0,0.0,0.0,0.0,0.0,0.0,0.0,0.0,0.0,0.0,0.0,0.0,0.0,0.0,0.0,0.0,0.0,0.0,0.0,0.0,0.0,0.0,0.0,0.0,0.0,0.0,0.0,0.0,0.0,0.0,0.0,0.0,0.0,0.0,0.0,0.0,0.0,0.0,0.0,0.0,0.0,0.0,0.0,0.0,-5.0302,-4.9243,0.0,0.0,0.0,0.0,0.0,0.0,0.0,0.0,0.0,0.0,0.0,0.0,0.0,0.0,0.0,0.0,0.0,0.0,0.0,0.0,0.0,0.0,0.0,0.0,0.0,0.0,0.0,0.0,0.0,0.0,0.0,0.0,0.0,0.0,0.0,0.0,0.0,0.0,0.0,0.0,-5.5193,-5.8479,-6.0656,-6.0656,-6.0809,-6.079,-6.0441,-5.9606,-5.7963,-5.5288,-5.1926,0.0,0.0,0.0,0.0,0.0,0.0,0.0,0.0,0.0,0.0,0.0,0.0,0.0,0.0,0.0,0.0,0.0,0.0,0.0,0.0,0.0,0.0,0.0,0.0,0.0,0.0,0.0,0.0,0.0,0.0,0.0,0.0,0.0,0.0,0.0,0.0,0.0,0.0,0.0,0.0,0.0,0.0,0.0,0.0,0.0,0.0,0.0,0.0,0.0,0.0,0.0,0.0,0.0,0.0,0.0,0.0,0.0,0.0,0.0,-5.346,-5.2144,0.0,0.0,0.0,0.0,0.0,0.0,0.0,0.0,0.0,0.0,0.0,0.0,0.0,0.0,0.0,0.0,0.0,0.0,0.0,0.0,0.0,0.0,0.0,0.0,0.0,0.0,0.0,0.0,0.0,0.0,0.0,0.0,0.0,0.0,0.0,0.0,0.0,0.0,0.0,0.0,-5.5224,-5.84,-6.0485,-6.0444,-6.0444,-6.0278,-5.9816,-5.9357,-5.7867,-5.4963,-5.2346,0.0,0.0,0.0,0.0,0.0,0.0,0.0,0.0,0.0,0.0,0.0,0.0,0.0,0.0,0.0,0.0,0.0,0.0,0.0,0.0,0.0,0.0,0.0,0.0,0.0,0.0,0.0,0.0,0.0,0.0,0.0,0.0,0.0,0.0,0.0,0.0,0.0,0.0,0.0,0.0,0.0,0.0,0.0,0.0,0.0,0.0,0.0,0.0,0.0,0.0,0.0,0.0,0.0,-5.9622,-5.9672,-5.9825,-5.9694,-5.9651,-5.9502,-5.7331,-5.601,-5.5451,-5.5296,0.0,0.0,0.0,0.0,0.0,0.0,0.0,0.0,0.0,0.0,0.0,0.0,0.0,0.0,0.0,0.0,0.0,0.0,0.0,0.0,0.0,0.0,-5.4126,-5.5126,-5.5959,-5.6107,-5.466,0.0,0.0,0.0,0.0,0.0,0.0,0.0,0.0,0.0,0.0,0.0,-5.5068,-5.8144,-6.0137,-6.0085,-6.0072,-5.9745,-5.897,-5.8899,-5.76,-5.4524,-5.2747,-5.0359,0.0,0.0,0.0,0.0,0.0,0.0,0.0,0.0,0.0,0.0,0.0,0.0,0.0,0.0,0.0,0.0,0.0,0.0,0.0,0.0,0.0,0.0,0.0,0.0,0.0,0.0,0.0,0.0,0.0,0.0,0.0,0.0,-5.1924,-5.2988,0.0,0.0,0.0,0.0,0.0,0.0,0.0,0.0,0.0,0.0,0.0,0.0,0.0,-5.8894,-5.9882,-6.0754,-6.1601,-6.2461,-6.2398,-6.2775,-6.3491,-6.3421,-6.337,-6.3275,-6.2816,0.0,-5.8043,-5.7288,0.0,0.0,0.0,0.0,0.0,0.0,0.0,0.0,0.0,0.0,0.0,0.0,0.0,0.0,0.0,0.0,0.0,0.0,0.0,0.0,0.0,0.0,-5.6887,-5.8473,-5.9492,-6.0038,-5.9827,-5.7382,-5.4722,-5.288,-5.125,-4.9601,0.0,0.0,0.0,0.0,0.0,0.0,-5.4235,-5.6776,-5.8437,-5.8425,-5.8355,-5.8279,-5.8151,-5.8098,-5.7256,-5.5345,-5.3607,-5.1467,-4.8869,-4.632,0.0,0.0,0.0,0.0,0.0,0.0,0.0,0.0,0.0,0.0,0.0,0.0,0.0,0.0,0.0,0.0,0.0,0.0,0.0,0.0,0.0,0.0,0.0,0.0,0.0,0.0,0.0,0.0,0.0,-5.1625,-5.385,-5.477,-5.4486,-5.4127,0.0,0.0,0.0,0.0,0.0,0.0,0.0,0.0,0.0,-5.7387,-5.8987,-6.0727,-6.2568,-6.3453,-6.4317,-6.5142,-6.5597,-6.5779,-6.5683,-6.6097,-6.6017,-6.5513,-6.5336,-6.4388,-6.2842,-6.0961,-5.9106,-5.7308,0.0,0.0,0.0,0.0,-5.5525,-5.6443,-5.7748,-5.7082,-5.549,-5.4583,0.0,0.0,0.0,0.0,0.0,0.0,0.0,-5.201,-5.4068,-5.6492,-5.8588,-5.9338,-6.0165,-6.08,-6.08,-5.9227,-5.729,-5.558,-5.4254,-5.2572,-4.991,-4.8038,0.0,0.0,0.0,-5.242,-5.4142,-5.6602,-5.8208,-5.8172,-5.8136,-5.8111,-5.8055,-5.8017,-5.7277,-5.5573,-5.4329,-5.251,-4.9994,-4.7907,-4.6414,0.0,0.0,0.0,0.0,0.0,0.0,0.0,0.0,0.0,0.0,0.0,0.0,0.0,0.0,0.0,0.0,0.0,0.0,0.0,0.0,0.0,0.0,0.0,0.0,0.0,0.0,0.0,0.0,-5.353,-5.5562,-5.6714,-5.6338,-5.5943,0.0,0.0,0.0,0.0,0.0,0.0,-5.6972,-5.7755,-5.8812,-6.0061,-6.1154,-6.2657,-6.4609,-6.5487,-6.6209,-6.6815,-6.7459,-6.7432,-6.6823,-6.7421,-6.7335,-6.6723,-6.6521,-6.6457,-6.6283,-6.3998,-6.1814,-5.9793,-5.8468,-5.7695,-5.7357,-5.7755,-5.8577,-5.9708,-6.1175,-6.0702,-5.9244,-5.8152,-5.5904,-5.3369,-5.2069,0.0,0.0,0.0,0.0,-5.4511,-5.5972,-5.8088,-5.9838,-5.9838,-6.0319,-6.08,-6.08,-6.0127,-5.9069,-5.7607,-5.6453,-5.4673,-5.1489,-4.972,0.0,-4.919,-5.0765,-5.2438,-5.39,-5.6162,-5.7623,-5.7559,-5.7547,-5.7512,-5.7465,-5.7453,-5.6884,-5.5604,-5.4568,-5.3053,-5.0956,-4.9227,-4.7923,-4.705,0.0,0.0,0.0,0.0,0.0,0.0,0.0,0.0,0.0,0.0,0.0,0.0,0.0,0.0,0.0,0.0,0.0,0.0,0.0,0.0,0.0,0.0,0.0,0.0,0.0,0.0,0.0,0.0,0.0,-5.9205,-5.9432,0.0,0.0,0.0,0.0,-5.8642,-6.0332,-6.1368,-6.1387,-6.2201,-6.2716,-6.2794,-6.4453,-6.5409,-6.5526,-6.6346,-6.6756,-6.6795,-6.6834,-6.6841,-6.6793,-6.6849,-6.6835,-6.6791,-6.6647,-6.6579,-6.6504,-6.5351,-6.4319,-6.3197,-6.0731,-6.0209,-6.077,-6.0035,-6.0809,-6.2327,-6.3245,-6.2946,-6.1911,-6.022,-5.7284,-5.4419,-5.4342,-5.3666,0.0,0.0,-5.5511,-5.7022,-5.7934,-5.9454,-6.0723,-6.0723,-6.0762,-6.08,-6.08,-6.0127,-5.9261,-5.8396,-5.6857,-5.4876,-5.2288,0.0,-5.023,-4.95,-5.0826,-5.2237,-5.3135,-5.4761,-5.5818,-5.5838,-5.5764,-5.573,-5.573,-5.5673,-5.5623,-5.5604,-5.4068,-5.2764,-5.1875,-5.0153,-4.8827,-4.7943,-4.7079,0.0,0.0,0.0,0.0,0.0,0.0,0.0,0.0,0.0,0.0,0.0,0.0,0.0,0.0,0.0,0.0,0.0,0.0,0.0,0.0,0.0,0.0,0.0,0.0,0.0,0.0,0.0,0.0,-6.0181,-6.0384,0.0,-6.0875,-6.0498,-6.0499,-6.122,-6.296,-6.4025,-6.4138,-6.4966,-6.5448,-6.5448,-6.6053,-6.6366,-6.6366,-6.6658,-6.6795,-6.6815,-6.7361,-6.7344,-6.6822,-6.7383,-6.7339,-6.6796,-6.6692,-6.6668,-6.6633,-6.6205,-6.5494,-6.4527,-6.3053,-6.2645,-6.2878,-6.2587,-6.3208,-6.4325,-6.5198,-6.4926,-6.3812,-6.1458,-5.8718,-5.6298,-5.6252,-5.5625,-5.5123,-5.599,-5.7031,-5.8091,-5.8978,-6.0046,-6.0933,-6.0933,-6.0911,-6.0715,-6.019,-5.8974,-5.773,-5.6914,-5.6641,-5.5895,-5.3914,-5.2846,-5.2182,-5.1895,-5.2355,-5.3047,-5.3914,-5.5011,-5.5703,-5.5703,-5.5692,-5.5651,-5.5651,-5.564,-5.541,-5.4925,-5.389,-5.2915,-5.2066,-5.0926,-4.9905,-4.8976,-4.8077,-4.6915,0.0,0.0,0.0,0.0,0.0,0.0,0.0,0.0,0.0,0.0,0.0,0.0,0.0,0.0,0.0,0.0,0.0,0.0,0.0,0.0,0.0,0.0,0.0,0.0,0.0,-5.7107,-5.955,-6.18,-6.182,-6.2009,-6.2948,-6.2583,-6.2597,-6.3379,-6.4857,-6.5757,-6.5909,-6.6229,-6.6522,-6.6795,-6.6541,-6.6522,-6.6795,-6.6795,-6.6795,-6.6815,-6.7381,-6.7361,-6.6817,-6.7392,-6.7349,-6.6795,-6.6753,-6.6735,-6.6729,-6.6686,-6.6298,-6.5684,-6.5058,-6.4805,-6.4805,-6.4805,-6.4993,-6.5265,-6.557,-6.5084,-6.4066,-6.2281,-6.032,-5.863,-5.8601,-5.8153,-5.7809,-5.8389,-5.8922,-5.9483,-6.0063,-6.0644,-6.107,-6.107,-6.0798,-6.0303,-5.9474,-5.7699,-5.6107,-5.5585,-5.5875,-5.5747,-5.4341,-5.386,-5.359,-5.3321,-5.3513,-5.3879,-5.4457,-5.5265,-5.5775,-5.5775,-5.5775,-5.5775,-5.5775,-5.5775,-5.5431,-5.466,-5.3879,-5.3057,-5.2245,-5.1355,-5.06,-4.9969,-4.8468,-4.674,-4.4748,0.0,0.0,0.0,0.0,0.0,0.0,0.0,0.0,0.0,0.0,0.0,0.0,0.0,0.0,0.0,0.0,0.0,0.0,0.0,0.0,0.0,0.0,0.0,-5.7788,-5.8973,-6.0762,-6.4166,-6.382,-6.3678,-6.4643,-6.4802,-6.4915,-6.5118,-6.5975,-6.6546,-6.6648,-6.593,-6.5897,-6.6697,-6.5936,-6.5917,-6.6756,-6.6795,-6.6795,-6.6795,-6.6795,-6.6795,-6.6798,-6.6807,-6.6802,-6.6794,-6.6796,-6.681,-6.6795,-6.6805,-6.6798,-6.6792,-6.6657,-6.6595,-6.6576,-6.6576,-6.6011,-6.5148,-6.4305,-6.3434,-6.2713,-6.2702,-6.2071,-6.1303,-6.1272,-6.122,-6.1154,-6.1135,-6.1135,-6.1135,-6.1135,-6.1154,-6.1172,-6.1166,-6.0463,-5.9562,-5.8703,-5.6442,-5.4613,-5.4652,-5.4615,-5.4313,-5.3492,-5.4071,-5.438,-5.3589,-5.4148,0.0,-5.465,-5.5374,-5.5914,-5.5914,-5.5914,-5.5914,-5.5914,-5.5914,-5.5584,-5.4812,-5.3979,-5.3169,-5.2395,-5.1416,-5.0871,-5.0822,-4.8216,-4.5624,-4.3143,0.0,0.0,0.0,0.0,0.0,0.0,0.0,0.0,0.0,0.0,0.0,0.0,0.0,0.0,0.0,0.0,0.0,0.0,0.0,0.0,0.0,-5.3646,-5.5473,-5.7059,-5.8566,-6.0531,-6.3339,-6.3455,-6.3897,-6.5422,-6.5601,-6.5681,-6.5886,-6.6173,-6.6173,-6.5782,-6.446,-6.4101,-6.4963,-6.416,-6.4433,-6.5917,-6.6502,-6.6795,-6.6795,-6.6795,-6.6795,-6.6798,-6.6807,-6.6795,-6.68,-6.6853,-6.6875,-6.6875,-6.6873,-6.6872,-6.685,-6.6776,-6.6359,-6.5793,-6.5793,-6.5244,-6.4463,-6.4229,-6.3566,-6.2841,-6.2848,-6.2215,-6.133,-6.07,-6.0466,-6.0267,-5.9639,-5.9464,-5.9464,-5.9464,-5.9937,-6.0391,-6.0404,-6.0123,-5.9653,-5.8878,-5.6629,-5.458,-5.4084,-5.3967,-5.4065,-5.4398,-5.5128,-5.5601,-5.5387,-5.5542,-5.5698,-5.5698,-5.5911,-5.6047,-5.6047,-5.6047,-5.6047,-5.6047,-5.6047,-5.5467,-5.4084,-5.3825,-5.3068,-5.1594,-5.1165,-5.0315,-4.8901,-4.6959,-4.5297,0.0,0.0,0.0,0.0,0.0,0.0,0.0,0.0,0.0,0.0,0.0,0.0,0.0,0.0,0.0,0.0,0.0,0.0,0.0,0.0,0.0,0.0,-5.5554,-5.7105,-5.8316,-5.9381,-6.0993,-6.3551,-6.3531,-6.3993,-6.5724,-6.5897,-6.5977,-6.6153,-6.6242,-6.6181,-6.5929,-6.4373,-6.4066,-6.5304,-6.4177,-6.4375,-6.6092,-6.6561,-6.6795,-6.6795,-6.6795,-6.6795,-6.6798,-6.6807,-6.6815,-6.6838,-6.6889,-6.6892,-6.6893,-6.6894,-6.6894,-6.6894,0.0,0.0,0.0,0.0,-6.4127,-6.3658,-6.3287,-6.2818,-6.2405,-6.2406,-6.2039,-6.142,-6.0547,-5.9743,-5.8951,-5.8109,-5.7349,-5.6959,-5.77,-5.8503,-5.9313,-6.0015,-5.9818,-5.9264,-5.8472,-5.6232,-5.4269,-5.3852,-5.3805,0.0,-5.4922,-5.568,-5.6179,-5.6179,-5.6179,-5.6179,-5.6179,-5.6179,-5.6179,-5.6179,-5.6179,-5.6043,-5.5668,-5.5966,0.0,0.0,0.0,-5.3033,-5.1233,-5.1054,0.0,0.0,0.0,0.0,0.0,0.0,0.0,0.0,-4.4612,-4.5575,0.0,0.0,0.0,0.0,0.0,0.0,0.0,0.0,0.0,0.0,0.0,0.0,0.0,0.0,0.0,0.0,-5.7246,-5.8988,-6.0498,-6.0854,-6.1858,-6.432,-6.3916,-6.4089,-6.5743,-6.5974,-6.6061,-6.6099,-6.6303,-6.6426,-6.6426,-6.491,0.0,0.0,0.0,-6.4963,-6.6658,-6.6756,-6.6795,-6.6795,-6.6795,-6.6795,-6.6798,-6.6807,-6.6836,-6.6883,-6.6909,-6.6893,-6.6894,-6.6894,-6.6894,-6.6875,-6.668,-6.6133,-6.5234,-6.3496,-6.2851,-6.2734,-6.1973,0.0,0.0,-6.1694,-6.1709,-6.1511,-6.0558,-5.9165,-5.7758,-5.686,-5.5493,-5.4654,-5.6196,-5.727,-5.8297,-5.9693,-5.9443,-5.8674,-5.7814,-5.5695,-5.3958,-5.4027,-5.4103,-5.4381,-5.5162,-5.5876,-5.6339,-5.6339,-5.6339,-5.6339,-5.6339,-5.6242,-5.6184,-5.6184,-5.6106,0.0,-5.4947,-5.5692,-5.5517,-5.3919,-5.3876,-5.3147,-5.1463,-5.1256,-5.0368,-4.8651,-4.8516,-4.7666,-4.6024,-4.7002,-4.7507,-4.7511,-4.7455,-4.7918,0.0,0.0,0.0,0.0,0.0,0.0,0.0,0.0,0.0,0.0,0.0,0.0,0.0,0.0,0.0,-5.6489,-5.8614,-6.0344,-6.0719,-6.1396,-6.2531,-6.4378,-6.4455,-6.4762,-6.5801,-6.6494,-6.6634,-6.6052,-6.6743,-6.667,-6.5448,-6.3854,-6.3529,-6.4661,-6.3756,-6.4082,-6.5819,-6.6483,-6.6795,-6.6795,-6.6795,0.0,-6.6798,-6.6807,-6.6813,-6.6815,-6.6888,-6.6892,-6.6893,-6.6894,-6.6894,-6.6758,-6.5351,-6.4707,-6.4336,-6.2598,-6.1953,-6.1933,-6.1758,-6.1699,-6.1699,-6.1697,-6.1694,-6.1415,-5.9825,-5.9113,0.0,-5.7016,-5.6352,-5.6177,-5.6508,-5.7719,-5.8748,-5.8379,-5.8646,-5.8761,-5.7946,-5.6223,-5.4862,-5.4934,-5.4994,-5.5103,-5.5259,-5.5989,-5.6545,-5.6545,-5.6545,-5.6545,-5.6545,-5.594,-5.5491,-5.5491,-5.4867,-5.4376,-5.4201,-5.4984,-5.5065,-5.4033,-5.3919,-5.3712,-5.3295,-5.2539,-5.1625,-5.0584,-4.9859,-4.9005,-4.7963,-4.8857,-4.9357,-4.9461,-4.9382,-4.9838,0.0,0.0,0.0,0.0,0.0,0.0,0.0,0.0,0.0,0.0,0.0,-5.3804,-5.46,0.0,-5.7487,-5.7927,-5.9158,-6.021,-6.0676,-6.225,-6.3493,-6.3897,-6.3955,-6.4455,-6.5763,-6.6628,-6.6775,-6.6059,-6.6896,-6.6971,-6.5852,-6.4693,-6.449,-6.5473,-6.471,-6.4902,-6.619,-6.66,-6.6795,-6.6795,-6.6795,-6.6795,-6.6798,-6.6807,-6.6815,-6.6859,-6.6889,-6.6892,-6.6894,-6.6894,-6.6894,-6.6738,-6.498,-6.4297,-6.4082,-6.2344,-6.1699,-6.1699,-6.1699,-6.1699,-6.1699,-6.1698,-6.1696,-6.1459,-6.016,-5.9136,-5.8193,-5.6957,-5.5962,-5.5493,-5.6372,-5.7211,-5.7951,-5.8353,-5.8421,-5.8295,-5.7891,-5.6776,-5.5856,-5.5892,-5.5938,-5.5806,-5.5376,-5.5669,-5.6098,-5.6528,-5.6606,-5.645,-5.6001,-5.5571,-5.5123,-5.4693,-5.4264,-5.3815,-5.3385,-5.4147,-5.4654,-5.4654,-5.4209,-5.3715,-5.3229,-5.2321,-5.1424,-5.0519,-5.0072,-4.9644,-4.9202,-4.9663,-5.015,-5.0676,-5.1549,-5.22,0.0,0.0,0.0,0.0,0.0,0.0,0.0,-5.1181,-5.1716,-5.3225,-5.4906,-5.6492,-5.7676,-5.8207,-5.8642,-5.9147,-5.9606,-6.0152,-6.0863,-6.3084,-6.4282,-6.3404,-6.3743,-6.4589,-6.5994,-6.7032,-6.7218,-6.6329,-6.7166,-6.7358,-6.652,-6.5944,-6.5996,-6.6783,-6.6173,-6.6131,-6.6795,-6.6795,-6.6795,-6.6795,-6.6795,-6.6795,-6.6798,-6.6809,-6.6857,-6.6904,-6.6891,-6.6894,-6.6894,-6.6894,-6.6894,-6.6738,-6.498,-6.4297,-6.4082,-6.2344,-6.1699,-6.1699,-6.1699,-6.1699,-6.1699,-6.1698,-6.1697,-6.154,-6.0651,-5.9415,-5.8123,-5.7311,-5.6079,-5.5318,-5.6723,-5.7094,-5.7387,-5.8577,-5.8304,-5.7758,-5.7601,-5.7055,-5.6606,-5.6606,-5.6606,-5.6313,-5.5454,-5.53,-5.5474,-5.6001,-5.6098,-5.5845,-5.5142,-5.4908,-5.4537,-5.3815,-5.36,-5.3288,-5.2743,-5.3346,-5.4127,-5.4986,-5.4394,-5.3654,-5.2906,-5.2035,-5.1214,-5.0462,-5.0287,-5.0185,-5.0185,-5.024,-5.0713,-5.1603,-5.3072,-5.3845,-4.5736,-4.7027,-4.9213,-5.0894,-5.2518,-5.3664,0.0,-5.4276,-5.5097,-5.5995,-5.7504,-5.8536,-5.8001,-5.9177,-6.0028,-5.9403,-6.0648,-6.1759,-6.1923,-6.3474,-6.4282,-6.3404,-6.5301,-6.6744,-6.6936,-6.8456,-6.8777,-6.7274,-6.7967,-6.7881,-6.6501,-6.6451,-6.658,-6.6783,-6.6703,-6.6717,-6.6795,-6.6795,-6.6795,-6.6795,-6.6795,-6.6795,-6.6798,-6.6856,-6.6883,-6.6904,-6.6893,-6.6894,-6.6894,-6.6894,-6.6894,-6.6738,-6.498,-6.4297,-6.4082,-6.2344,-6.1699,-6.1699,-6.1699,-6.1699,-6.1699,-6.1699,-6.1698,-6.154,-6.0657,-6.0259,-5.9939,-5.9068,-5.8673,-5.8575,-5.877,-5.8809,-5.8675,-5.8089,-5.7875,-5.7601,-5.6899,-5.6665,-5.6606,-5.6606,-5.6606,-5.6313,-5.5454,-5.53,-5.5064,-5.4381,-5.4283,-5.4264,-5.4166,-5.3463,-5.2958,-5.286,-5.2156,-5.196,-5.2646,-5.2782,-5.321,-5.4088,-5.4047,-5.3947,-5.3847,-5.3008,-5.2481,-5.2381,-5.1637,-5.1228,-5.1228,-5.1249,-5.1681,-5.2542,-5.2759,-5.3268,-4.6339,-4.7857,-5.0321,-5.2518,-5.4734,-5.6493,-5.6958,-5.7781,-5.8668,-5.9511,-6.0602,-6.133,-6.0985,-6.1146,-6.121,-6.0872,-6.1473,-6.217,-6.2662,-6.4238,-6.5032,-6.4166,-6.4551,-6.5089,-6.559,-6.7186,-6.7718,-6.6638,-6.7851,-6.8016,-6.654,-6.6587,-6.6697,-6.6803,-6.6801,-6.6795,-6.6795,-6.6795,-6.6795,-6.6795,-6.6795,-6.6795,-6.6798,-6.6877,-6.6907,-6.6892,-6.6894,-6.6894,-6.6894,-6.6894,-6.6894,-6.6738,-6.498,-6.4297,-6.4082,-6.2344,-6.1699,-6.1699,-6.1699,-6.1699,-6.1699,-6.1699,-6.1699,-6.162,-6.1263,-6.116,-6.1078,-6.0729,-6.0605,-6.0605,-6.0605,-5.9863,-5.9005,-5.8636,-5.7816,-5.7016,-5.6665,-5.6606,-5.6606,-5.6606,-5.6606,-5.6157,-5.4771,-5.4537,-5.4088,-5.2683,-5.3346,-5.3815,-5.3307,-5.2938,-5.2509,-5.1999,-5.1629,-5.1746,-5.2626,-5.2704,-5.3073,-5.3932,-5.3522,-5.3249,-5.3249,-5.2409,-5.1941,-5.1941,-5.159,-5.1394,-5.1394,-5.1394,-5.1843,-5.2704,-5.2704,-5.3171,-4.7199,-4.8907,-5.1162,-5.3249,-5.59,-5.8157,-5.8745,-5.9965,-6.1077,-6.1447,-6.2189,-6.2669,-6.2458,-6.1927,-6.1633,-6.1895,-6.2158,-6.2618,-6.3457,-6.493,-6.5493,-6.4378,-6.3493,-6.3224,-6.3839,-6.5628,-6.6544,-6.604,-6.7658,-6.8036,-6.6559,-6.6606,-6.6717,-6.6803,-6.6801,-6.6795,-6.6795,-6.6795,-6.6795,-6.6795,-6.6795,-6.6795,-6.6798,-6.6877,-6.691,-6.6894,-6.6894,-6.6758,-6.6543,-6.6543,-6.6406,-6.6035,-6.4531,-6.3945,-6.3769,-6.2246,-6.1699,-6.1699,-6.1699,-6.1699,-6.1699,-6.1699,-6.1699,-6.1699,-6.1695,-6.1691,-6.1707,-6.169,-6.1703,-6.164,-6.1408,-6.0237,-5.9044,-5.8792,-5.7641,-5.6606,-5.6606,-5.6606,-5.6606,-5.6606,-5.6606,-5.6059,-5.4303,-5.401,-5.3405,-5.1668,-5.2468,-5.3053,-5.2409,-5.2331,-5.2097,-5.1472,-5.1394,-5.1668,-5.2292,-5.2331,-5.2605,-5.3249,-5.2683,-5.2331,-5.2331,-5.1746,-5.1394,-5.1394,-5.1394,-5.1394,-5.1394,-5.1394,-5.1843,-5.2704,-5.2704,-5.3034,-4.8364,-5.0264,-5.1785,-5.2717,-5.5484,-5.8023,-5.8118,-6.0067,-6.162,-6.0815,-6.1275,-6.1601,-6.0815,-6.0661,-6.0936,-6.1844,-6.2644,-6.3495,-6.4423,-6.534,-6.5263,-6.3538,-6.2627,-6.2159,-6.2178,-6.4455,-6.5947,-6.6001,-6.7619,-6.7949,-6.6481,-6.6528,-6.6658,-6.6803,-6.6801,-6.6795,-6.6795,-6.6795,-6.6795,-6.6795,-6.6795,-6.6795,-6.6798,-6.6877,-6.691,-6.6894,-6.6894,-6.6426,-6.5644,-6.5644,-6.5137,-6.4297,-6.3398,-6.3047,-6.293,-6.2031,-6.1699,-6.1699,-6.1699,-6.1699,-6.1699,-6.1699,-6.1699,-6.1699,-6.1698,-6.1694,-6.1708,-6.1699,-6.1709,-6.1503,-6.0666,-5.9768,-5.889,-5.8031,-5.7192,-5.6606,-5.6606,-5.6606,-5.6606,-5.6606,-5.6606,-5.6059,-5.4303,-5.401,-5.3405,-5.1668,-5.1453,-5.1472,-5.1433,-5.1433,-5.1433,-5.1394,-5.1394,-5.1414,-5.1433,-5.1433,-5.1453,-5.1472,-5.1453,-5.1433,-5.1433,-5.1414,-5.1394,-5.1394,-5.1394,-5.1394,-5.1394,-5.1394,-5.1843,-5.2704,-5.2704,-5.2704,-4.8943,-5.081,-5.2878,-5.4261,-5.6386,-5.8436,-5.9573,-6.1376,-6.2605,-6.1778,-6.1356,-6.1048,-6.0779,-6.0741,-6.1202,-6.2629,-6.4513,-6.5699,-6.5493,-6.6667,-6.6705,-6.4436,-6.2935,-6.187,-6.1281,-6.2543,-6.3869,-6.5037,-6.6217,-6.6726,-6.6353,-6.6464,-6.6594,-6.672,-6.6775,-6.6795,-6.6795,-6.6795,-6.6795,-6.6795,-6.6805,-6.6811,-6.6877,-6.6887,-6.6892,-6.6894,-6.6894,-6.6406,-6.5605,-6.5605,-6.5098,-6.4219,-6.334,-6.3008,-6.289,-6.2012,-6.1699,-6.1699,-6.1699,-6.1699,-6.1699,-6.1699,-6.1699,-6.1699,-6.1698,-6.1696,-6.1577,-6.1005,-6.0843,-6.0645,-5.9761,-5.8881,-5.8156,-5.7877,-5.7192,-5.6606,-5.6606,-5.6606,-5.6606,-5.6606,-5.6606,-5.6059,-5.4303,-5.401,-5.36,-5.2448,-5.1765,-5.1394,-5.1394,-5.1394,-5.1394,-5.1394,-5.1394,-5.1394,-5.1394,-5.1394,-5.1394,-5.1394,-5.1394,-5.1394,-5.1394,-5.1394,-5.1394,-5.1394,-5.1394,-5.1394,-5.1394,-5.1394,-5.1843,-5.2685,-5.2117,-5.2156,-4.9955,-5.1757,-5.3732,-5.4829,-5.6437,-5.8123,-5.953,-6.118,-6.2166,-6.1339,-6.0492,-5.9915,-5.9915,-6.0146,-6.0896,-6.2589,-6.5243,-6.6917,-6.6397,-6.7513,-6.7571,-6.534,-6.3839,-6.2531,-6.1377,-6.1204,-6.1766,-6.3187,-6.4378,-6.5266,-6.5779,-6.621,-6.6516,-6.6693,-6.6769,-6.6795,-6.6795,-6.6795,-6.6798,-6.6802,-6.6809,-6.6662,-6.6438,-6.6441,-6.6268,-6.5976,-6.5976,-6.5488,-6.4668,-6.4668,-6.416,-6.332,-6.2754,-6.2539,-6.2461,-6.1914,-6.1699,-6.1699,-6.1699,-6.1699,-6.1699,-6.1699,-6.1699,-6.1699,-6.1698,-6.1698,-6.1521,-6.0659,-6.0402,-6.0125,-5.8946,-5.8222,-5.7732,-5.7447,-5.6977,-5.6606,-5.6606,-5.6606,-5.6606,-5.6606,-5.6606,-5.6059,-5.4303,-5.3483,-5.2878,-5.2312,-5.1765,-5.1511,-5.1824,-5.159,-5.1394,-5.1394,-5.1394,-5.1394,-5.1394,-5.1394,-5.1394,-5.1394,-5.1394,-5.1394,-5.1394,-5.1394,-5.1394,-5.1394,-5.1394,-5.1394,-5.1394,-5.1394,-5.1687,-5.2214,-5.1668,-5.1707,-5.148,-5.313,-5.4388,-5.4444,-5.5665,-5.7098,-5.8077,-5.955,-6.0492,-5.9627,-5.8761,-5.8165,-5.8165,-5.8838,-5.9954,-6.1735,-6.4929,-6.7148,-6.7109,-6.7917,-6.7898,-6.6167,-6.5224,-6.4051,-6.2332,-6.055,-5.9877,-6.08,-6.2339,-6.3715,-6.4841,-6.5791,-6.6418,-6.6687,-6.6762,-6.6795,-6.6795,-6.6795,-6.6802,-6.6791,-6.6793,-6.6372,-6.5603,-6.5603,-6.5116,-6.4297,-6.4297,-6.3808,-6.3008,-6.3008,-6.248,-6.1699,-6.1699,-6.1699,-6.1699,-6.1699,-6.1699,-6.1699,-6.1699,-6.1699,-6.1699,-6.1699,-6.1699,-6.1699,-6.1699,-6.1699,-6.1502,-6.0604,-6.0347,-5.9931,-5.8186,-5.7736,-5.7557,-5.6784,-5.6606,-5.6606,-5.6606,-5.6606,-5.6606,-5.6606,-5.6528,-5.5942,-5.4283,-5.2546,-5.1394,-5.1394,-5.1394,-5.1707,-5.2528,-5.1902,-5.1394,-5.1394,-5.1394,-5.1394,-5.1394,-5.1394,-5.1394,-5.1394,-5.1394,-5.1394,-5.1394,-5.1394,-5.1394,-5.1394,-5.1394,-5.1394,-5.1394,-5.1394,-5.1394,-5.1394,-5.1394,-5.1394,-5.3507,-5.4564,-5.5344,-5.5355,-5.5682,-5.6404,-5.7953,-5.9088,-5.9608,-5.8781,-5.7415,-5.6357,-5.6357,-5.7049,-5.8407,-6.0742,-6.5032,-6.784,-6.7186,-6.8936,-6.9398,-6.7071,-6.659,-6.5551,-6.3224,-6.0877,-6.0127,-6.1658,-6.2147,-6.3149,-6.4802,-6.5791,-6.6418,-6.6687,-6.6762,-6.6795,-6.6795,-6.6795,-6.6802,-6.6791,-6.6857,-6.6436,-6.5603,-6.5605,-6.5117,-6.4297,-6.4297,-6.3808,-6.3008,-6.3008,-6.248,-6.1699,-6.1699,-6.1699,-6.1699,-6.1699,-6.1699,-6.1699,-6.1699,-6.1699,-6.1699,-6.1699,-6.1699,-6.1699,-6.1699,-6.1699,-6.1386,-5.9922,-5.9511,-5.91,-5.7354,-5.6903,-5.684,-5.6649,-5.6606,-5.6606,-5.6606,-5.6606,-5.6606,-5.6606,-5.5552,-5.4517,-5.4088,-5.2546,-5.1394,-5.1394,-5.1394,-5.1472,-5.1707,-5.1531,-5.1394,-5.1394,-5.1394,-5.1394,-5.1394,-5.1394,-5.1394,-5.1394,-5.1394,-5.1394,-5.1394,-5.1394,-5.1394,-5.1394,-5.1394,-5.1394,-5.1394,-5.1394,-5.1394,-5.1394,-5.1394,-5.1394,-5.4895,-5.5357,-5.5703,-5.5703,-5.5703,-5.6049,-5.7415,-5.8069,-5.8165,-5.7338,-5.6107,-5.5164,-5.5164,-5.6492,-5.828,-6.0454,-6.4743,-6.7667,-6.7167,-6.8667,-6.9129,-6.7321,-6.709,-6.6244,-6.4089,-6.2243,-6.157,-6.2551,-6.1954,-6.2513,-6.4783,-6.5791,-6.6418,-6.6687,-6.6762,-6.6795,-6.6795,-6.6795,-6.6805,-6.6838,-6.6881,-6.6244,-6.5038,-6.5039,-6.4355,-6.3164,-6.3164,-6.2871,-6.2422,-6.2422,-6.2148,-6.1699,-6.1699,-6.1699,-6.1699,-6.1699,-6.1699,-6.1699,-6.1699,-6.1699,-6.1699,-6.1699,-6.1699,-6.1699,-6.1699,-6.1699,-6.1348,-5.9668,-5.9199,-5.8808,-5.7047,-5.6595,-5.6591,-5.6596,-5.6608,-5.6606,-5.6606,-5.6606,-5.6606,-5.6606,-5.5181,-5.401,-5.401,-5.2546,-5.1394,-5.1394,-5.1394,-5.1394,-5.1394,-5.1394,-5.1394,-5.1394,-5.1394,-5.1394,-5.1394,-5.1394,-5.1394,-5.1394,-5.1394,-5.1394,-5.1394,-5.1394,-5.1394,-5.1394,-5.1394,-5.1394,-5.1394,-5.1394,-5.1394,-5.1394,-5.1394,-5.1394,-5.5934,-5.5857,-5.5838,-5.5722,-5.5703,-5.5934,-5.681,-5.6907,-5.6618,-5.5857,-5.4972,-5.4357,-5.4472,-5.6492,-5.8704,-6.0512,-6.4243,-6.6936,-6.6936,-6.7494,-6.7628,-6.6859,-6.6667,-6.607,-6.4724,-6.3916,-6.3531,-6.3647,-6.2185,-6.2359,-6.4763,-6.5791,-6.6432,-6.6707,-6.6766,-6.6795,-6.6795,-6.6795,-6.6828,-6.6904,-6.6904,-6.5991,-6.4297,-6.4297,-6.3359,-6.1699,-6.1699,-6.1699,-6.1699,-6.1699,-6.1699,-6.1699,-6.1699,-6.1699,-6.1699,-6.1699,-6.1699,-6.1699,-6.1699,-6.1699,-6.1699,-6.1699,-6.1699,-6.1699,-6.1699,-6.1699,-6.1348,-5.9668,-5.9199,-5.8808,-5.7049,-5.6597,-5.6592,-5.6603,-5.6595,-5.6606,-5.6606,-5.6606,-5.6606,-5.6606,-5.5181,-5.401,-5.401,-5.2546,-5.1394,-5.1394,-5.1394,-5.1394,-5.1394,-5.1394,-5.1394,-5.1394,-5.1394,-5.1394,-5.1394,-5.1394,-5.1394,-5.1394,-5.1394,-5.1394,-5.1394,-5.1394,-5.1394,-5.1394,-5.1394,-5.1394,-5.1394,-5.1394,-5.1394,-5.1394,-5.1394,-5.1394,-5.7157,-5.6772,-5.6599,-5.5876,-5.5703,-5.5934,-5.681,-5.6445,-5.5876,-5.5722,-5.4491,-5.3645,-5.4376,-5.5992,-5.8022,-6.0416,-6.3782,-6.6109,-6.6109,-6.5628,-6.5205,-6.5051,-6.4397,-6.4128,-6.457,-6.4455,-6.4666,-6.5397,-6.4512,-6.4216,-6.486,-6.5791,-6.6458,-6.6775,-6.679,-6.6795,-6.6795,-6.6795,-6.6828,-6.6904,-6.6904,-6.5991,-6.4297,-6.4297,-6.3359,-6.1699,-6.1699,-6.1699,-6.1699,-6.1699,-6.1699,-6.1699,-6.1699,-6.1699,-6.1699,-6.1699,-6.1699,-6.1699,-6.1699,-6.1699,-6.1699,-6.1699,-6.1699,-6.1699,-6.1699,-6.1699,-6.1348,-5.9668,-5.9199,-5.8808,-5.7049,-5.6599,-5.6597,-5.6605,-5.66,-5.6596,-5.6608,-5.6606,-5.6606,-5.6606,-5.5181,-5.401,-5.401,-5.2546,-5.1394,-5.1394,-5.1394,-5.1394,-5.1394,-5.1394,-5.1394,-5.1394,-5.1394,-5.1394,-5.1394,-5.1394,-5.1394,-5.1394,-5.1394,-5.1394,-5.1394,-5.1394,-5.1394,-5.1394,-5.1394,-5.1394,-5.1394,-5.1394,-5.1394,-5.1394,-5.1394,-5.1394,-5.8657,-5.7992,-5.7473,-5.6599,-5.6387,-5.6272,-5.5799,0.0,0.0,-5.328,-5.2106,-5.1491,-5.2356,-5.426,-5.653,-5.9088,-6.2339,-6.4551,-6.4551,-6.382,-6.3455,-6.3878,-6.3185,-6.3185,-6.4474,-6.5013,-6.5455,-6.5859,-6.5513,-6.5353,-6.5576,-6.6171,-6.659,-6.6792,-6.6795,-6.66,-6.617,-6.617,-6.5967,-6.5556,-6.5556,-6.4878,-6.3613,-6.3613,-6.293,-6.1699,-6.1699,-6.1699,-6.1699,-6.1699,-6.1699,-6.1699,-6.1699,-6.1699,-6.1699,-6.1699,-6.1699,-6.1699,-6.1699,-6.1699,-6.1699,-6.1699,-6.1699,-6.1699,-6.1699,-6.1387,-6.0762,-5.9531,-5.8867,-5.8222,-5.6933,-5.66,-5.6599,-5.6594,-5.6607,-5.6598,-5.6608,-5.6606,-5.6606,-5.6606,-5.5181,-5.401,-5.401,-5.2546,-5.1394,-5.1394,-5.1394,-5.1394,-5.1394,-5.1394,-5.1394,-5.1394,-5.1394,-5.1394,-5.1394,-5.1394,-5.1394,-5.1394,-5.1394,-5.1394,-5.1394,-5.1394,-5.1394,-5.1394,-5.1394,-5.1394,-5.1394,-5.1394,-5.1394,-5.1394,-5.1394,-5.1394,-6.0373,-5.9619,-5.8819,-5.7588,-5.7137,-5.6522,-5.4645,-5.3414,-5.2241,-5.0721,-4.9721,-4.9394,-5.0269,-5.2356,-5.478,-5.7338,-6.0569,-6.2762,-6.2762,-6.1916,-6.1647,-6.2647,-6.1897,0.0,-6.4128,-6.5282,-6.5897,-6.5897,-6.594,-6.6032,-6.6206,-6.6529,-6.6739,-6.6795,-6.6795,-6.6405,-6.5604,-6.5604,-6.5167,-6.4306,-6.4306,-6.3844,-6.3008,-6.3008,-6.2519,-6.1699,-6.1699,-6.1699,-6.1699,-6.1699,-6.1699,-6.1699,-6.1699,-6.1699,-6.1699,-6.1699,-6.1699,-6.1699,-6.1699,-6.1582,-6.1426,-6.1426,-6.1543,-6.168,-6.1484,-6.0937,-6.0195,-5.9199,-5.8437,-5.7695,-5.6836,-5.6601,-5.66,-5.6599,-5.6593,-5.66,-5.6591,-5.6606,-5.6606,-5.6606,-5.5181,-5.401,-5.401,-5.2546,-5.1394,-5.1394,-5.1394,-5.1394,-5.1394,-5.1394,-5.1394,-5.1394,-5.1394,-5.1394,-5.1394,-5.1394,-5.1394,-5.1394,-5.1394,-5.1394,-5.1394,-5.1394,-5.1394,-5.1394,-5.1394,-5.1394,-5.1394,-5.1394,-5.1394,-5.1394,-5.1394,-5.1394,-6.2394,-6.1847,-6.1177,-5.8781,-5.7588,-5.6349,-5.3876,0.0,-5.0673,-4.9702,-4.8836,-4.849,-4.9356,-5.0952,-5.2962,-5.5511,-5.88,-6.1031,-6.1031,-5.9665,-5.9242,-6.0839,0.0,0.0,-6.3108,-6.4916,-6.5897,-6.5897,-6.6074,-6.6206,-6.6303,-6.6542,-6.6739,-6.6795,-6.6795,-6.6405,-6.5604,-6.5604,-6.5167,-6.4306,-6.4306,-6.3844,-6.3008,-6.3008,-6.2519,-6.1699,-6.1699,-6.1699,-6.1699,-6.1699,-6.1699,-6.1699,-6.1699,-6.1699,-6.1699,-6.1699,-6.1699,-6.1699,-6.1699,-6.1172,-6.0527,-6.0527,-6.1055,-6.1543,-6.0762,-6.0469,-6.0078,-5.8476,-5.7969,-5.7695,-5.6836,-5.6601,-5.6601,-5.66,-5.6593,-5.6602,-5.66,-5.6593,-5.6606,-5.6606,-5.5181,-5.401,-5.401,-5.2546,-5.1394,-5.1394,-5.1394,-5.1394,-5.1394,-5.1394,-5.1394,-5.1394,-5.1394,-5.1394,-5.1394,-5.1394,-5.1394,-5.1394,-5.1394,-5.1394,-5.1394,-5.1394,-5.1394,-5.1394,-5.1394,-5.1394,-5.1394,-5.1394,-5.1394,-5.1394,-5.1394,-5.1394,-6.2395,-6.254,-6.2252,-5.9677,-5.8396,-5.6973,-5.3895,-5.1491,-4.9663,-4.8798,-4.7548,-4.7009,-4.8375,-4.9586,-5.1395,-5.4472,-5.6973,-5.8704,-5.9223,-5.828,-5.7973,-5.9146,-5.8242,-5.8646,-6.1512,-6.3339,-6.4551,-6.507,-6.5754,-6.5964,-6.5536,-6.6276,-6.6739,-6.6795,-6.6795,-6.6405,-6.5604,-6.5077,-6.4388,-6.3506,-6.2998,-6.2555,-6.2226,-6.2226,-6.2031,-6.1699,-6.1699,-6.1699,-6.1699,-6.1699,-6.1699,-6.1699,-6.1699,-6.1699,-6.1699,-6.1699,-6.1699,-6.1621,-6.1094,-6.0683,-6.0312,-5.9844,-5.9902,-6.0137,-5.9785,-5.9316,-5.8769,-5.8086,-5.7519,-5.7031,-5.6699,-5.6601,-5.6601,-5.66,-5.6595,-5.6607,-5.6602,-5.6593,-5.645,-5.5923,-5.483,-5.3834,-5.3307,-5.2214,-5.1394,-5.1394,-5.1394,-5.1394,-5.1394,-5.1394,-5.1394,-5.1394,-5.1394,-5.1394,-5.1394,-5.1394,-5.1394,-5.1394,-5.1394,-5.1394,-5.1394,-5.1394,-5.1394,-5.1394,-5.1394,-5.1394,-5.1394,-5.1394,-5.1394,-5.1394,-5.1394,-5.1394,-6.2916,-6.3593,-6.348,-6.0635,-5.91,-5.7338,-5.3645,-5.1048,-4.9144,-4.8279,-4.7163,-4.6701,-4.7875,-4.8817,-5.026,-5.2933,-5.4991,-5.6549,-5.7415,-5.7223,-5.7319,-5.8204,-5.753,-5.7896,-6.0185,-6.1954,-6.3416,-6.4532,-6.5053,-6.51,-6.4616,-6.54,-6.604,-6.6411,-6.6416,-6.5912,-6.4843,-6.4223,-6.3472,-6.2608,-6.1985,-6.1696,-6.1699,-6.1699,-6.1699,-6.1699,-6.1699,-6.1699,-6.1699,-6.1699,-6.1699,-6.1699,-6.1699,-6.1699,-6.1699,-6.1699,-6.1543,-6.123,-6.0605,-6.0078,-5.957,-5.9004,-5.8633,-5.8437,-5.8437,-5.8183,-5.7851,-5.7598,-5.707,-5.6601,-5.6601,-5.6601,-5.6601,-5.6601,-5.6597,-5.6592,-5.6606,-5.6401,-5.602,-5.5415,-5.4381,-5.3424,-5.2802,-5.198,-5.1394,-5.1394,-5.1394,-5.1394,-5.1394,-5.1394,-5.1394,-5.1394,-5.1394,-5.1394,-5.1394,-5.1394,-5.1394,-5.1394,-5.1394,-5.1394,-5.1394,-5.1394,-5.1394,-5.1394,-5.1394,-5.1394,-5.1394,-5.1394,-5.1394,-5.1394,-5.1394,-5.1258,-6.4507,-6.5468,-6.516,-6.1731,-5.9587,-5.7184,-5.2885,-5.0606,-4.9144,-4.8279,-4.8086,-4.8086,-4.8105,-4.8817,-4.9683,-5.0596,-5.2856,-5.4799,-5.5607,-5.6464,-5.7319,-5.8204,-5.7519,-5.7654,-5.9358,-6.1089,-6.2801,-6.4474,-6.392,-6.355,-6.3603,-6.3809,-6.4422,-6.5488,-6.5514,-6.471,-6.3047,-6.3019,-6.2579,-6.1709,-6.1695,-6.1698,-6.1699,-6.1699,-6.1699,-6.1699,-6.1699,-6.1699,-6.1699,-6.1699,-6.1699,-6.1699,-6.1699,-6.1699,-6.1699,-6.1699,-6.1152,-6.041,-6.039,-5.9316,-5.793,-5.793,-5.7324,-5.6621,-5.6621,-5.7226,-5.7715,-5.6855,-5.6601,-5.6601,-5.6601,-5.6601,-5.6601,-5.6601,-5.6599,-5.6593,-5.6593,-5.5918,-5.532,-5.53,-5.3895,-5.2704,-5.2704,-5.198,-5.1394,-5.1394,-5.1394,-5.1394,-5.1394,-5.1394,-5.1394,-5.1394,-5.1394,-5.1394,-5.1394,-5.1394,-5.1394,-5.1394,-5.1394,-5.1394,-5.1394,-5.1394,-5.1394,-5.1394,-5.1394,-5.1394,-5.1394,-5.1394,-5.1394,-5.1394,-5.1394,-5.0945,-6.1186,-6.2161,-6.2162,-5.9833,-5.795,-5.5982,-5.3446,-5.1097,-4.9374,-4.9057,-4.8509,-4.8279,-4.8875,-4.9202,-4.9875,-5.1298,-5.2202,-5.3241,-5.4684,-5.6099,-5.7099,-5.7376,-5.8184,-5.8915,-5.9454,-6.1069,-6.2332,-6.2839,-6.323,-6.3194,-6.2662,-6.335,-6.3971,-6.4451,-6.4552,-6.4375,-6.3898,-6.3297,-6.2856,-6.2573,-6.1989,-6.1698,-6.1699,-6.1699,-6.1699,-6.1699,-6.1699,-6.1699,-6.1699,-6.1699,-6.1699,-6.1699,-6.1699,-6.1699,-6.1699,-6.1699,-6.1152,-6.0312,-5.9765,-5.8848,-5.7793,-5.7207,-5.6816,-5.6601,-5.6601,-5.6797,-5.6953,-5.668,-5.6601,-5.6601,-5.6601,-5.6601,-5.6601,-5.6601,-5.6599,-5.6437,-5.5832,-5.5489,-5.4949,-5.3758,-5.3075,-5.2509,-5.1902,-5.159,-5.1394,-5.1394,-5.1394,-5.1394,-5.1394,-5.1394,-5.1394,-5.1394,-5.1394,-5.1394,-5.1394,-5.1394,-5.1394,-5.1394,-5.1394,-5.1394,-5.1394,-5.1394,-5.1394,-5.1394,-5.1394,-5.1394,-5.1394,-5.1394,-5.1394,-5.1394,-5.1394,-5.1258,-5.8579,-5.9704,-5.9828,-5.8068,-5.6535,-5.5,-5.3277,-5.1353,-4.9941,-4.9894,-4.9461,-4.924,-4.9779,-4.9894,-5.0221,-5.1279,-5.1452,-5.2049,-5.378,-5.5742,-5.7234,-5.7868,-5.8607,-5.9165,-5.9473,-6.0473,-6.1389,-6.2062,-6.2309,-6.2209,-6.1704,-6.2296,-6.2698,-6.2854,-6.3385,-6.3545,-6.3286,-6.2768,-6.2506,-6.2497,-6.1952,-6.1699,-6.1699,-6.1699,-6.1699,-6.1699,-6.1699,-6.1699,0.0,-6.1699,-6.1699,-6.1699,-6.1699,-6.1699,-6.166,-6.1328,-6.0664,-5.9824,-5.9004,-5.8144,-5.7324,-5.6777,-5.6601,-5.6601,-5.6601,-5.6601,-5.6601,-5.6601,-5.6601,-5.6601,-5.6601,-5.6601,-5.6601,-5.6601,-5.6345,-5.5968,-5.5422,-5.4786,-5.3992,-5.2919,-5.2431,-5.2038,-5.1492,-5.1394,-5.1394,-5.1394,-5.1394,-5.1394,-5.1394,-5.1394,-5.1394,-5.1394,-5.1394,-5.1394,-5.1394,-5.1394,-5.1394,-5.1394,-5.1394,-5.1394,-5.1394,-5.1394,-5.1394,-5.1394,-5.1394,-5.1394,-5.1394,-5.1394,-5.1394,-5.1394,-5.1394,-5.1394,0.0,-5.7782,-5.7987,-5.6414,-5.5288,-5.4129,-5.2562,-5.144,0.0,-5.0701,-5.0702,-5.0712,-5.0712,-5.0712,-5.0712,-5.0712,-5.075,-5.1375,-5.3068,-5.553,-5.78,-5.9492,-5.8973,-5.8742,-5.9435,-5.9569,-6.0262,-6.1889,-6.1262,-6.08,-6.08,-6.0864,-6.0942,-6.0983,-6.2094,-6.2328,-6.1595,-6.1666,-6.1705,-6.1697,-6.1699,-6.1699,-6.1699,-6.164,-6.1601,-6.1601,-6.1543,-6.1543,-6.1601,-6.1543,-6.1562,-6.1601,-6.1543,-6.1523,-6.1426,-6.0605,-5.9805,-5.8984,-5.8183,-5.7324,-5.6601,-5.6601,-5.6601,-5.6601,-5.6601,-5.6601,-5.6601,-5.6601,-5.6601,-5.6601,-5.6601,-5.6601,-5.6601,-5.6601,-5.5935,-5.5285,-5.5227,-5.3889,-5.2685,-5.2626,-5.1941,-5.1394,-5.1394,-5.1394,-5.1394,-5.1394,-5.1394,-5.1394,-5.1394,-5.1394,-5.1394,-5.1394,-5.1394,-5.1394,-5.1394,-5.1394,-5.1394,-5.1394,-5.1394,-5.1394,-5.1394,-5.1394,-5.1394,-5.1394,-5.1394,-5.1394,-5.1394,-5.1394,-5.1394,-5.1394,-5.1394,-5.1433,-5.2673,0.0,-5.4924,-5.4484,-5.3643,-5.2815,0.0,-5.149,-5.0766,-5.071,-5.0702,-5.0712,-5.0712,-5.0712,-5.0712,-5.0712,-5.1221,-5.2222,-5.3953,-5.6915,-5.955,-6.1293,-6.0723,-6.0012,-5.955,-6.0108,-6.0666,-6.1069,-6.0916,-6.08,-6.08,-6.085,-6.0897,-6.0913,-6.1346,-6.1551,-6.1518,-6.1595,-6.1653,-6.1697,-6.1698,-6.1698,-6.168,-6.1015,-6.0703,-6.0664,-6.0058,-6.0137,-6.0664,-6.0039,-6.0156,-6.0644,-6.0039,-5.9785,-5.9765,-5.9551,-5.8945,-5.8183,-5.7969,-5.7324,-5.6601,-5.6601,-5.6601,-5.6601,-5.6601,-5.6601,-5.6601,-5.6601,-5.6601,-5.6601,-5.6601,-5.6601,-5.6601,-5.6601,-5.5935,-5.5129,-5.4446,-5.3458,-5.2509,-5.1824,-5.1531,-5.1394,-5.1394,-5.1394,-5.1394,-5.1394,-5.1394,-5.1394,-5.1394,-5.1394,-5.1394,-5.1394,-5.1394,-5.1394,-5.1394,-5.1394,-5.1394,-5.1394,-5.1394,-5.1394,-5.1394,-5.1394,-5.1394,-5.1394,-5.1394,-5.1394,-5.1394,-5.1394,-5.1394,-5.1394,-5.1394,-5.1765,-5.1406,-5.2066,-5.2733,-5.2711,-5.2274,-5.1848,-5.1797,-5.1288,-5.0793,-5.0747,0.0,-5.0712,-5.0712,-5.0712,-5.0827,-5.1183,-5.1952,-5.351,-5.6395,-5.8357,-6.0146,-6.1889,-6.132,-6.0608,-6.0146,-6.0512,-6.08,-6.08,-6.08,-6.08,-6.08,-6.0835,-6.085,-6.0853,-6.0991,-6.1181,-6.1417,-6.151,-6.159,-6.1652,-6.1695,-6.1483,-6.1094,-6.0625,-6.0195,-5.9844,-5.9785,-6.0,-6.0371,-5.9922,-6.0019,-6.0312,-5.9512,-5.9199,-5.914,-5.875,-5.8301,-5.7832,-5.7441,-5.6992,-5.6601,-5.6601,-5.6601,-5.6601,-5.6601,-5.6601,-5.6601,-5.6601,-5.6601,-5.6601,-5.6601,-5.6601,-5.6601,-5.6601,-5.5623,-5.4563,-5.4094,-5.3009,-5.196,-5.1492,-5.1394,-5.1394,-5.1394,-5.1394,-5.1394,-5.1394,-5.1394,-5.1394,-5.1394,-5.1394,-5.1396,-5.1402,-5.1398,-5.1396,-5.1402,-5.1396,-5.1394,-5.1394,-5.1394,-5.1394,-5.1394,-5.1394,-5.1394,-5.1394,-5.1394,-5.1394,-5.1394,-5.1394,-5.1394,-5.1394,-5.1394,-5.2078,-5.1406,-5.1406,-5.1425,-5.1577,-5.1494,-5.1425,-5.1551,0.0,0.0,0.0,0.0,-5.1029,-5.075,-5.0808,-5.1106,-5.1788,-5.2962,-5.5164,-5.9146,-5.9704,-6.03,-6.1908,-6.132,-6.08,-6.08,-6.08,-6.08,-6.08,-6.08,-6.08,-6.08,-6.08,-6.08,-6.08,-6.0864,-6.1002,-6.1237,-6.1381,-6.1506,-6.1575,-6.1533,-6.1111,-6.039,-6.0137,-5.9726,-5.9238,-5.9785,-6.0156,-6.0371,-6.0117,-6.0098,-6.0117,-5.918,-5.8808,-5.8711,-5.7969,-5.7695,-5.7598,-5.6855,-5.6601,-5.6601,-5.6601,-5.6601,-5.6601,-5.6601,-5.6601,-5.6601,-5.6601,-5.6601,-5.6601,-5.6601,-5.6601,-5.6601,-5.6601,-5.5369,-5.4154,-5.4036,-5.2737,-5.1552,-5.1433,-5.1394,-5.1394,-5.1394,-5.1394,-5.1394,-5.1394,-5.1394,-5.1394,-5.1394,-5.1396,-5.14,-5.1408,-5.1403,-5.1402,-5.1408,-5.1403,-5.1398,-5.1396,-5.1396,-5.1396,-5.1396,-5.1396,-5.1396,-5.1394,-5.1394,-5.1394,-5.1394,-5.1394,-5.1394,-5.1394,-5.1394,-5.2253,-5.1406,-5.1406,-5.1582,-5.2319,-5.2408,-5.2472,-5.3166,-5.3719,0.0,0.0,0.0,0.0,0.0,-5.126,-5.175,-5.1885,-5.4442,-5.7396,-6.0204,-6.0589,-6.0973,-6.1985,-6.132,-6.08,-6.08,-6.08,-6.08,-6.08,-6.08,-6.08,-6.08,-6.08,-6.08,-6.08,-6.0869,-6.0918,-6.0963,-6.1217,-6.1381,-6.1511,-6.0895,-6.0534,-6.0351,-5.8926,-5.8613,-5.918,-5.8555,-5.9082,-6.0293,-5.8867,-5.8711,-5.9238,-5.7617,-5.6992,-5.6973,-5.6855,-5.6797,-5.6777,-5.664,-5.6601,-5.6601,-5.6601,-5.6601,-5.6601,-5.6601,-5.6601,-5.6601,-5.6601,-5.6601,-5.6601,-5.6601,-5.6601,-5.6601,-5.6601,-5.5839,-5.49,-5.4154,-5.321,-5.2284,-5.1533,-5.1394,-5.1394,-5.1394,-5.1394,-5.1394,-5.1394,-5.1394,-5.1394,-5.1394,-5.1402,-5.1408,-5.1409,-5.1394,-5.1394,-5.1409,-5.1394,-5.1394,-5.1408,-5.1407,-5.1407,-5.1407,-5.1407,-5.1403,-5.1394,-5.1394,-5.1394,-5.1394,-5.1394,-5.1394,-5.1394,-5.1394,-5.1941,-5.1406,-5.1406,-5.1718,-5.306,-5.3264,-5.3481,-5.4801,-5.5252,-5.5033,0.0,0.0,0.0,0.0,-5.2376,-5.3212,-5.5058,-5.7038,-5.8915,-6.0569,-6.08,-6.0954,-6.1351,-6.1031,-6.08,-6.08,-6.08,-6.08,-6.08,-6.08,-6.08,-6.08,-6.08,-6.08,-6.08,-6.0835,-6.0858,-6.0842,-6.1003,-6.1213,-6.1447,-6.0703,-6.0115,-5.9662,-5.8412,-5.7828,-5.7792,-5.787,-5.8339,-5.8984,-5.8223,-5.8144,-5.8379,-5.7109,-5.6601,-5.6601,-5.6601,-5.6601,-5.6601,-5.6601,-5.6601,-5.6601,-5.6601,-5.6601,-5.6601,-5.6601,-5.6601,-5.6601,-5.6601,-5.6601,-5.6601,-5.6601,-5.6601,-5.6601,-5.6601,-5.5937,-5.5194,-5.4782,-5.3645,-5.2585,-5.2171,-5.1722,-5.1409,-5.1409,-5.1409,-5.1409,-5.1409,-5.1409,-5.1409,-5.1409,-5.1393,-5.1396,-5.1399,-5.1399,-5.1398,-5.1399,-5.1399,-5.1397,-5.1395,-5.1395,-5.1395,-5.1395,-5.1391,-5.1408,-5.1403,-5.1398,-5.1394,-5.1394,-5.1394,-5.1394,-5.1414,-5.1882,-5.2565,-5.1406,-5.1406,-5.1816,-5.3568,-5.385,-5.4162,-5.5891,-5.6468,-5.6258,0.0,0.0,0.0,-5.3408,-5.3416,-5.4568,-5.778,-5.8819,-5.9588,-6.0646,-6.08,-6.08,-6.08,-6.08,-6.08,-6.08,-6.08,-6.08,-6.08,-6.0608,-6.0492,-6.0492,-6.0319,-6.0204,-6.0204,-6.0204,-6.0204,-6.0204,-6.0267,-6.0624,-6.1311,-6.0369,-5.9619,-5.8997,-5.7955,-5.7246,-5.6907,-5.7574,-5.8006,-5.8183,-5.7988,-5.789,-5.7812,-5.6933,-5.6601,-5.6601,-5.6601,-5.6601,-5.6601,-5.6601,-5.6601,-5.6601,-5.6601,-5.6601,-5.6601,-5.6601,-5.6601,-5.6601,-5.6601,-5.6601,-5.6601,-5.6601,-5.6445,-5.6308,-5.6308,-5.5781,-5.5233,-5.5038,-5.4118,-5.3197,-5.2786,-5.216,-5.1633,-5.1437,-5.1398,-5.1398,-5.1398,-5.1398,-5.1398,-5.1398,-5.1399,-5.1402,-5.1404,-5.1403,-5.1403,-5.1405,-5.1402,-5.1401,-5.1402,-5.1402,-5.1401,-5.14,-5.1397,-5.1393,-5.1409,-5.1402,-5.1396,-5.1394,-5.1394,-5.1492,-5.1726,-5.2392,-5.3171,-5.1405,-5.1406,-5.1816,-5.3568,-5.385,-5.4162,-5.5891,-5.7395,-5.7705,-5.5206,0.0,0.0,-5.3745,-5.3917,-5.5261,-5.7877,-5.8357,-5.8954,-6.0569,-6.08,-6.08,-6.08,-6.08,-6.08,-6.08,-6.08,-6.08,-6.08,-6.005,-5.9588,-5.9588,-5.8896,-5.8492,-5.8492,-5.8492,-5.8492,-5.8492,-5.8481,-5.9331,-6.1004,-5.9512,-5.8822,-5.8764,-5.7205,-5.6916,-5.7625,-5.774,-5.8298,-5.9043,-5.8223,-5.789,-5.7812,-5.6933,-5.6601,-5.6601,-5.6601,-5.6601,-5.6601,-5.6601,-5.6601,-5.6601,-5.6601,-5.6601,-5.6601,-5.6601,-5.6601,-5.6601,-5.6601,-5.6601,-5.6601,-5.6601,-5.5996,-5.539,-5.539,-5.5351,-5.5078,-5.4276,-5.4627,-5.4626,-5.3001,-5.2648,-5.2355,-5.1535,-5.1398,-5.1398,-5.1398,-5.1398,-5.1398,-5.1398,-5.1402,-5.1404,-5.1405,-5.1406,-5.1406,-5.1406,-5.1405,-5.1405,-5.1406,-5.1406,-5.1406,-5.1404,-5.1404,-5.1401,-5.1409,-5.1408,-5.1403,-5.1394,-5.1394,-5.1824,-5.2607,-5.2665,-5.3171,-5.1404,-5.1406,-5.1699,-5.2884,-5.344,-5.4299,-5.6591,-5.788,-5.8314,-5.7329,-5.7592,-5.7197,-5.4535,-5.5169,-5.6419,-5.7349,-5.8377,-5.9454,-6.0627,-6.08,-6.08,-6.08,-6.08,-6.0589,-6.0031,-5.9992,-5.9781,-5.9281,-5.8934,-5.8761,-5.8761,-5.8473,-5.83,-5.83,-5.83,-5.83,-5.83,-5.8303,-5.8627,-5.9319,-5.8321,-5.7892,-5.7947,-5.685,-5.653,-5.6893,-5.6953,-5.7211,-5.7558,-5.7224,-5.7088,-5.7069,-5.6737,-5.6601,-5.6601,-5.6601,-5.6601,-5.6601,-5.6601,-5.6601,-5.6601,-5.6601,-5.6601,-5.6504,-5.5957,-5.5781,-5.5683,-5.5137,-5.498,-5.5234,-5.6328,-5.5957,-5.5293,-5.5293,-5.4883,-5.4551,-5.4765,-5.4648,-5.4453,-5.4335,-5.3436,-5.2596,-5.2264,-5.1757,-5.1405,-5.1405,-5.1405,-5.1405,-5.1405,-5.1874,-5.2207,-5.2207,-5.2695,-5.2793,-5.2246,-5.2207,-5.1972,-5.1426,-5.1406,-5.1406,-5.1406,-5.1405,-5.1402,-5.1395,-5.1938,-5.2205,-5.2214,-5.2741,-5.319,-5.3522,-5.4068,-5.4498,-5.1402,-5.1405,-5.1601,-5.2475,-5.3206,-5.4318,-5.6664,-5.7911,-5.8613,-5.8613,-5.8335,-5.7535,-5.5683,-5.6097,-5.6876,-5.7364,-5.8402,-5.9515,-6.0681,-6.0812,-6.08,-6.08,-6.055,-6.0165,-5.9569,-5.9281,-5.8896,-5.8338,-5.805,-5.7896,-5.7896,-5.7627,-5.7473,-5.7473,-5.7473,-5.7473,-5.7473,-5.7473,-5.7473,-5.7473,-5.7014,-5.699,-5.7354,-5.6574,-5.6255,-5.6299,-5.6429,-5.6499,-5.6573,-5.6571,-5.6572,-5.6576,-5.6574,-5.6575,-5.6598,-5.6601,-5.6601,-5.6601,-5.6601,-5.6601,-5.6601,-5.6601,-5.6406,-5.6074,-5.5488,-5.5117,-5.4765,-5.418,-5.4004,-5.4277,-5.5469,-5.5137,-5.4473,-5.4473,-5.4023,-5.3828,-5.4707,-5.4648,-5.459,-5.5176,-5.4101,-5.3027,-5.2754,-5.1973,-5.1406,-5.1406,-5.1406,-5.1406,-5.1406,-5.2168,-5.2812,-5.3086,-5.3633,-5.3652,-5.2773,-5.2695,-5.2324,-5.1465,-5.1406,-5.1406,-5.1406,-5.1406,-5.1521,-5.1808,-5.239,-5.2832,-5.3112,-5.3717,-5.4147,-5.4439,-5.5298,-5.5845,-5.1398,-5.1404,-5.1621,-5.2475,-5.3225,-5.4182,-5.5919,-5.7485,-5.8613,-5.8632,-5.7871,-5.7225,-5.7206,-5.6502,-5.6474,-5.8113,-5.8361,-5.8927,-6.066,-6.0835,-6.08,-6.0781,-6.0031,-5.9492,-5.9473,-5.8761,-5.828,-5.828,-5.7473,-5.6983,-5.6983,-5.6175,-5.5703,-5.5703,-5.5703,-5.5703,-5.5703,-5.5703,-5.5703,-5.5703,-5.5703,-5.6197,-5.7077,-5.6401,-5.6099,-5.6109,-5.6315,-5.6432,-5.6508,-5.6499,-5.6483,-5.6483,-5.6471,-5.652,-5.6574,-5.6562,-5.6582,-5.6582,-5.6582,-5.6582,-5.6582,-5.6582,-5.5996,-5.5293,-5.5273,-5.4668,-5.3984,-5.3984,-5.3984,-5.3984,-5.3984,-5.332,-5.2695,-5.2695,-5.2695,-5.293,-5.3808,-5.4687,-5.5293,-5.5312,-5.4609,-5.373,-5.2851,-5.1973,-5.1406,-5.1406,-5.1406,-5.1406,-5.1426,-5.2187,-5.3047,-5.3926,-5.4023,-5.3672,-5.2793,-5.2715,-5.2344,-5.1465,-5.1406,-5.1406,-5.1406,-5.1406,-5.1816,-5.2688,-5.2707,-5.313,-5.401,-5.4029,-5.4478,-5.5339,-5.6216,-5.7035,-5.1398,-5.1853,-5.2382,-5.2631,-5.4123,-5.5662,0.0,-5.7485,0.0,0.0,-5.9697,-5.8712,-5.7418,-5.7496,-5.769,-5.7573,-5.8537,-5.9674,-6.0737,-6.088,-6.0635,-5.9954,-5.9665,-5.9031,-5.7857,-5.7541,-5.7126,-5.6511,-5.6222,-5.6088,-5.6088,-5.5838,-5.5703,-5.5703,-5.5703,-5.5703,-5.5703,-5.5703,-5.5703,-5.5703,-5.5703,-5.587,-5.6182,-5.603,-5.6001,-5.6105,-5.6213,-5.632,-5.638,-5.5823,-5.5561,-5.5461,-5.4898,-5.4679,-5.4717,-5.4742,-5.4765,-5.4765,-5.4765,-5.4765,-5.4765,-5.4765,-5.4609,-5.4277,-5.3652,-5.3281,-5.2969,-5.2344,-5.2168,-5.2168,-5.2168,-5.1973,-5.1933,-5.2558,-5.2226,-5.2187,-5.3672,-5.4199,-5.4746,-5.5976,-5.5019,-5.3926,-5.3652,-5.2383,-5.1406,-5.1406,-5.1406,-5.1836,-5.3066,-5.3457,-5.418,-5.5664,-5.582,-5.5234,-5.373,-5.3613,-5.2988,-5.1484,-5.1973,-5.2031,-5.1426,-5.1406,-5.1816,-5.2673,-5.3294,-5.403,-5.4919,-5.5537,-5.5966,-5.6227,-5.7067,-5.7597,-5.1828,-5.2556,-5.3378,-5.4076,-5.5801,-5.7396,-5.767,-5.8443,-5.9493,-6.0828,-6.046,-5.9562,-5.847,-5.8412,-5.8481,-5.8298,-5.9099,-6.0025,-6.0832,-6.0646,-6.022,-5.9637,-5.896,-5.816,-5.714,-5.6706,-5.6272,-5.5742,-5.5703,-5.5703,-5.5703,-5.5703,-5.5703,-5.5703,-5.5703,-5.5703,-5.5703,-5.5703,-5.5703,-5.5703,-5.5703,-5.5724,-5.5766,-5.5836,-5.5904,-5.5982,-5.6119,-5.6236,-5.6288,-5.5427,-5.5063,-5.4986,-5.4113,-5.3818,-5.3877,-5.3946,-5.3978,-5.4001,-5.4004,-5.4004,-5.4004,-5.4004,-5.3769,-5.3398,-5.2851,-5.2461,-5.207,-5.1543,-5.1406,-5.1406,-5.1406,-5.1406,-5.1523,-5.2051,-5.1777,-5.1777,-5.3183,-5.3769,-5.4414,-5.5801,-5.5234,-5.4414,-5.4062,-5.2832,-5.1797,-5.1445,-5.1406,-5.1894,-5.3301,-5.3789,-5.4531,-5.5937,-5.6387,-5.6035,-5.4648,-5.4199,-5.3398,-5.1992,-5.2402,-5.2461,-5.1933,-5.2246,-5.2832,-5.3729,-5.4254,-5.4952,-5.5826,-5.6348,-5.6603,-5.661,-5.7434,-5.8004,-5.2433,-5.3396,-5.4512,-5.6186,-5.7752,-5.9077,-5.9747,-5.9841,-6.0016,-6.0828,-6.0402,-5.9919,-5.9996,-5.9358,-5.9087,-5.988,-5.9959,-6.0143,-6.079,-6.0209,-5.9647,-5.9482,-5.8072,-5.7077,-5.699,-5.6207,-5.5714,-5.5703,-5.5703,-5.5703,-5.5703,-5.5703,-5.5703,-5.5703,-5.5703,-5.5703,-5.5703,-5.5703,-5.5703,-5.5703,-5.5626,-5.5588,-5.5598,-5.5728,-5.5787,-5.5817,-5.6017,-5.6175,-5.6206,-5.5274,-5.4892,-5.478,-5.3843,-5.351,-5.3569,-5.364,-5.3709,-5.3761,-5.3769,-5.3769,-5.3769,-5.3769,-5.3223,-5.2578,-5.2578,-5.2031,-5.1406,-5.1406,-5.1406,-5.1406,-5.1406,-5.1406,-5.1406,-5.1406,-5.1406,-5.1641,-5.2519,-5.332,-5.416,-5.5117,-5.5234,-5.4961,-5.4238,-5.332,-5.2402,-5.1523,-5.1406,-5.1719,-5.2598,-5.3398,-5.4258,-5.5195,-5.6015,-5.6152,-5.5371,-5.457,-5.375,-5.2871,-5.2891,-5.2949,-5.2949,-5.3613,-5.4414,-5.5272,-5.5291,-5.5738,-5.6594,-5.6593,-5.6596,-5.6619,-5.7422,-5.8222,-5.229,-5.3837,-5.5271,-5.6346,-5.7765,-5.9075,-5.9758,-5.9358,-5.9106,-5.9977,-6.0016,-6.0093,-6.0731,-6.0692,-6.0615,-6.0809,-6.0838,-6.0645,-6.0123,-5.9891,-5.9273,-5.7892,-5.7409,-5.6887,-5.6144,-5.5892,-5.5756,-5.5695,-5.5703,-5.5703,-5.5703,-5.5703,-5.5703,-5.5703,-5.5703,-5.5703,-5.5703,-5.5703,-5.5703,-5.5684,-5.5049,-5.4761,-5.478,-5.5436,-5.5776,-5.5885,-5.604,-5.6121,-5.6075,-5.5241,-5.4517,-5.3818,-5.2926,-5.2244,-5.176,-5.1824,-5.1904,-5.1962,-5.1968,-5.1952,-5.1952,-5.1953,-5.1836,-5.168,-5.168,-5.1543,-5.1406,-5.1406,-5.1406,-5.1406,-5.1406,-5.1406,-5.1406,-5.1406,-5.1406,-5.1641,-5.2519,-5.2851,-5.3437,-5.5,-5.4746,-5.4433,-5.4922,-5.373,-5.2402,-5.1523,-5.1406,-5.1719,-5.2598,-5.2851,-5.3574,-5.5137,-5.5469,-5.5508,-5.5312,-5.5137,-5.4648,-5.3789,-5.4355,-5.4746,-5.4746,-5.4258,-5.4414,-5.5273,-5.5292,-5.5739,-5.6598,-5.6595,-5.6597,-5.6621,-5.7439,-5.7899,-5.2228,-5.4284,-5.6404,-5.8396,-5.9494,-5.9957,-5.9409,-5.8932,-5.8604,-5.8642,-5.899,-5.9532,-6.0364,-6.0538,-6.0654,-6.1041,-6.1099,-6.0818,-5.9968,-5.9495,-5.8732,-5.74,-5.6879,-5.6425,-5.5943,-5.5836,-5.5776,-5.5756,-5.5724,-5.5703,-5.5703,-5.5703,-5.5703,-5.5703,-5.5703,-5.5703,-5.5703,-5.5703,-5.5511,-5.5126,-5.4703,-5.428,-5.3914,-5.4741,-5.5159,-5.5258,-5.5729,-5.5995,-5.5993,-5.5152,-5.4305,-5.3472,-5.2596,-5.178,-5.1119,-5.1181,-5.1265,-5.1355,-5.1345,-5.1379,-5.1403,-5.1406,-5.1406,-5.1406,-5.1406,-5.1406,-5.1406,-5.1406,-5.1406,-5.1406,-5.1406,-5.1406,-5.1406,-5.1406,-5.1406,-5.1523,-5.1973,-5.2402,-5.2969,-5.3887,-5.4355,-5.4629,-5.4668,-5.3574,-5.2402,-5.1523,-5.1406,-5.1562,-5.2012,-5.2441,-5.3203,-5.4531,-5.5058,-5.5469,-5.5898,-5.5547,-5.5117,-5.4648,-5.5058,-5.5293,-5.5293,-5.5254,-5.5469,-5.5918,-5.5918,-5.6152,-5.6601,-5.66,-5.6601,-5.6619,-5.6953,-5.7358,-5.1955,-5.4598,-5.7558,-6.0659,-6.1427,-6.0961,-5.9241,-5.8727,-5.8361,-5.7482,-5.7869,-5.8642,-5.9513,-5.9803,-6.0112,-6.0789,-6.1002,-6.077,-5.9803,-5.9048,-5.8217,-5.7202,-5.6441,-5.6008,-5.5999,-5.5905,-5.5807,-5.5797,-5.5745,-5.5714,-5.5703,-5.5703,-5.5703,-5.5703,-5.5703,-5.5703,-5.5703,-5.5549,-5.5164,-5.4491,-5.4184,-5.3606,-5.2799,-5.3818,-5.4291,-5.4313,-5.5189,-5.5557,-5.5479,-5.4928,-5.4229,-5.342,-5.2713,-5.1939,-5.121,-5.1127,-5.1185,-5.1277,-5.1291,-5.1343,-5.1396,-5.1405,-5.1406,-5.1406,-5.1406,-5.1406,-5.1406,-5.1406,-5.1406,-5.1406,-5.1406,-5.1406,-5.1406,-5.1406,-5.1406,-5.1406,-5.1406,-5.1973,-5.2519,-5.2676,-5.4101,-5.498,-5.3945,-5.3301,-5.2578,-5.1543,-5.1406,-5.1406,-5.1406,-5.2031,-5.2871,-5.3887,-5.4648,-5.5488,-5.6504,-5.5937,-5.5527,-5.5527,-5.5527,-5.5527,-5.5527,-5.6211,-5.6601,-5.6601,-5.6601,-5.6601,-5.6601,-5.6601,-5.6599,-5.6587,-5.6464,-5.6776,-5.0908,-5.4539,-5.8262,-6.0831,-6.1487,-6.1187,-6.0065,-5.9221,-5.8424,-5.7482,-5.7396,-5.7733,-5.8604,-5.9377,-5.9938,-6.0035,-6.0654,-6.0557,-5.899,-5.8671,-5.8004,-5.6379,-5.6061,-5.6005,-5.5999,-5.5981,-5.5924,-5.5816,-5.5787,-5.5756,-5.5714,-5.5703,-5.5703,-5.5703,-5.5703,-5.5703,-5.5703,-5.5011,-5.4607,-5.4472,-5.2972,-5.1818,-5.1097,-5.2664,-5.3376,-5.3424,-5.4303,-5.4285,-5.3705,-5.4406,-5.4237,-5.3478,-5.3362,-5.2833,-5.2046,-5.1347,-5.115,-5.1225,-5.1275,-5.1333,-5.1392,-5.1401,-5.1405,-5.1405,-5.1406,-5.1406,-5.1406,-5.1406,-5.1406,-5.1406,-5.1406,-5.1406,-5.1406,-5.1406,-5.1406,-5.1406,-5.1406,-5.1484,-5.1797,-5.2558,-5.4101,-5.4785,-5.3144,-5.3398,-5.3262,-5.1641,-5.1406,-5.1406,-5.1406,-5.1504,-5.2207,-5.3828,-5.4101,-5.4824,-5.6465,-5.6484,-5.6426,-5.6426,-5.6426,-5.6426,-5.6426,-5.6543,-5.6601,-5.6601,-5.6601,-5.6601,-5.66,-5.66,-5.6572,-5.6514,-5.6445,-5.6431,-5.2741,-5.5649,-5.8299,-6.0325,-6.1186,-6.1279,-6.0236,-5.9692,-5.9013,-5.7596,-5.7299,-5.7415,-5.7811,-5.8584,-5.9319,-5.9822,-6.0576,-6.0518,-5.8836,-5.8613,-5.7946,-5.6205,-5.6012,-5.6003,-5.5996,-5.5989,-5.5981,-5.5914,-5.5846,-5.5787,-5.5756,-5.5724,-5.5703,-5.5703,-5.5261,-5.503,-5.503,-5.4184,-5.353,-5.3029,-5.1818,-5.1029,-5.075,-5.1933,-5.2462,-5.2549,-5.3907,-5.4044,-5.3367,-5.4273,-5.4192,-5.3498,-5.3498,-5.2991,-5.2136,-5.1303,-5.103,-5.1107,-5.1167,-5.1253,-5.133,-5.1343,-5.1378,-5.1402,-5.1406,-5.1406,-5.1406,-5.1406,-5.1406,-5.1406,-5.1406,-5.1406,-5.1406,-5.1406,-5.1406,-5.1406,-5.1406,-5.1406,-5.166,-5.2539,-5.3711,-5.418,-5.293,-5.3418,-5.3418,-5.166,-5.1406,-5.1582,-5.207,-5.2129,-5.2793,-5.4531,-5.4726,-5.5234,-5.6484,-5.6601,-5.6601,-5.6601,-5.6601,-5.6601,-5.6601,-5.6601,-5.6601,-5.6601,-5.6601,-5.6601,-5.6599,-5.6553,-5.6513,-5.6433,-5.6339,-5.6267,-5.3756,0.0,-5.7006,-5.914,-6.0142,-6.0539,-6.0141,-5.9704,-5.9073,-5.7923,-5.7337,-5.7019,-5.703,-5.7701,-5.8546,-5.9435,-6.0267,-6.0364,-5.9106,-5.8748,-5.8043,-5.6515,-5.6119,-5.6012,-5.6012,-5.5996,-5.6008,-5.5999,-5.5914,-5.5836,-5.5797,-5.5756,-5.5628,-5.5395,-5.4799,-5.4395,-5.4164,-5.3318,-5.2452,-5.1587,-5.0991,-5.0712,-5.0731,-5.1529,-5.1788,-5.1683,-5.3183,-5.3368,-5.2732,-5.384,-5.3972,-5.3481,-5.3498,-5.3091,-5.2395,-5.1312,-5.0944,-5.1016,-5.1088,-5.1185,-5.1277,-5.1296,-5.1345,-5.1398,-5.1406,-5.1406,-5.1406,-5.1406,-5.1406,-5.1406,-5.1406,-5.1406,-5.1406,-5.1406,-5.1406,-5.1406,-5.1406,-5.1406,-5.1582,-5.2246,-5.3242,-5.3652,-5.2558,-5.3281,-5.3418,-5.166,-5.1406,-5.1719,-5.2598,-5.2695,-5.3379,-5.5117,-5.5293,-5.5644,-5.6523,-5.6601,-5.6601,-5.6601,-5.6601,-5.6601,-5.6601,-5.6601,-5.6601,-5.6599,-5.658,-5.6578,-5.6573,-5.6513,-5.6439,-5.6367,-5.6255,-5.6194,-5.2119,-5.2907,0.0,-5.7107,-5.7967,-5.8373,-5.9857,-5.8905,-5.7909,-5.8571,-5.7405,-5.6252,-5.6257,-5.6869,-5.7656,-5.8526,-5.9397,-5.9919,-5.9841,-5.9106,-5.8255,-5.7338,-5.6487,-5.6012,-5.6012,-5.6003,-5.6005,-5.5999,-5.599,-5.5933,-5.5816,-5.5806,-5.542,-5.4587,-5.4511,-5.4107,-5.328,-5.2404,-5.1568,-5.077,-5.0731,-5.0712,-5.0731,-5.1529,-5.1491,-5.0808,-5.1664,-5.1578,-5.098,-5.2751,-5.3433,-5.3419,-5.3481,-5.3459,-5.3227,-5.1517,-5.0929,-5.1,-5.1076,-5.1142,-5.1215,-5.1277,-5.1355,-5.1394,-5.1405,-5.1406,-5.1406,-5.1406,-5.1406,-5.1406,-5.1406,-5.1406,-5.1406,-5.1406,-5.1406,-5.1406,-5.1406,-5.1406,-5.1406,-5.1465,-5.2832,-5.3457,-5.1758,-5.2871,-5.3418,-5.166,-5.1406,-5.1719,-5.2598,-5.2695,-5.3379,-5.5117,-5.5293,-5.5644,-5.6523,-5.6601,-5.6601,-5.6601,-5.6601,-5.6601,-5.6601,-5.6601,-5.6601,-5.6599,-5.6545,-5.6506,-5.6511,-5.6436,-5.6379,-5.6294,-5.622,-5.6204,-5.1609,0.0,0.0,-5.4221,-5.5366,-5.6464,-5.7519,-5.7709,-5.7733,-5.7988,-5.7532,-5.6928,-5.6375,-5.6906,-5.7521,-5.778,-5.9039,-5.9775,-5.9213,-5.8864,-5.8333,-5.7475,-5.6596,-5.6037,-5.5993,-5.6012,-5.6003,-5.6005,-5.5989,-5.5962,-5.5875,-5.5287,-5.4823,-5.4511,-5.3414,-5.2433,-5.1606,-5.1279,-5.0991,-5.0712,-5.0712,-5.0712,-5.0712,-5.0991,-5.0971,-5.0731,-5.0991,-5.127,-5.1664,-5.3398,-5.4149,-5.4183,-5.364,-5.3453,-5.3285,-5.1536,-5.0914,-5.0948,-5.0959,-5.1037,-5.1155,-5.1207,-5.1311,-5.1407,-5.1405,-5.1406,-5.1406,-5.1406,-5.1406,-5.1406,-5.1406,-5.1406,-5.1406,-5.1406,-5.1406,-5.1406,-5.1406,-5.1406,-5.1406,-5.1406,-5.2363,-5.2793,-5.1601,-5.2383,-5.2949,-5.2324,-5.2226,-5.2754,-5.418,-5.4375,-5.4824,-5.6015,-5.6133,-5.6269,-5.6562,-5.6601,-5.6601,-5.6601,-5.6601,-5.6601,-5.6601,-5.6601,-5.6601,-5.6596,-5.6495,-5.645,-5.6433,-5.6329,-5.6255,-5.6239,-5.6114,-5.607,-5.0887,-5.0984,-5.1121,-5.1687,-5.2911,-5.4272,-5.5351,-5.6265,-5.6956,-5.7182,-5.7228,-5.7054,-5.6465,-5.6811,-5.721,-5.7395,-5.8661,-5.9495,-5.9204,-5.9157,-5.8921,-5.8338,-5.7257,-5.6507,-5.6437,-5.6158,-5.6012,-5.6012,-5.5996,-5.5835,-5.548,-5.4873,-5.4265,-5.3645,-5.2241,-5.1241,-5.0712,-5.0712,-5.0712,-5.0712,-5.0712,-5.0712,-5.0712,-5.0712,-5.0712,-5.0731,-5.0991,-5.1279,-5.1665,-5.3109,-5.3754,-5.3779,-5.3207,-5.3028,-5.2879,-5.142,-5.0898,-5.0898,-5.0898,-5.0995,-5.1111,-5.118,-5.1281,-5.1373,-5.1382,-5.1405,-5.1405,-5.1406,-5.1406,-5.1406,-5.1406,-5.1406,-5.1406,-5.1406,-5.1406,-5.1406,-5.1406,-5.1406,-5.1406,-5.1406,-5.2109,-5.2422,-5.1543,-5.2129,-5.2695,-5.2695,-5.2695,-5.332,-5.5078,-5.5293,-5.5625,-5.6504,-5.6601,-5.6601,-5.6601,-5.6601,-5.6601,-5.6601,-5.6601,-5.6601,-5.6601,-5.6601,-5.6601,-5.6593,-5.6458,-5.6374,-5.6367,-5.6255,-5.6193,-5.6156,-5.6054,-5.6012,0.0,0.0,0.0,-4.9597,-5.064,-5.1745,-5.3455,-5.4531,-5.5429,-5.6243,-5.6456,-5.6471,-5.6499,-5.6492,-5.6705,-5.7365,-5.8202,-5.9069,-5.9943,-6.0012,-5.9975,-5.9995,-5.8463,-5.7387,-5.7308,-5.6515,-5.6012,-5.6012,-5.6012,-5.5582,-5.4641,-5.4554,-5.3697,-5.1933,-5.1106,-5.0712,-5.0712,-5.0712,-5.0712,-5.0712,-5.0712,-5.0712,-5.0712,-5.0712,-5.0712,-5.075,-5.1529,-5.1414,-5.0779,-5.174,-5.2133,-5.2141,-5.2169,-5.2202,-5.2086,-5.1207,-5.0898,-5.0898,-5.0898,-5.0981,-5.112,-5.1176,-5.123,-5.1305,-5.1369,-5.1397,-5.1398,-5.1403,-5.1404,-5.1405,-5.1406,-5.1406,-5.1406,-5.1406,-5.1406,-5.1406,-5.1406,-5.1406,-5.1406,-5.1406,-5.207,-5.2402,-5.1582,-5.2148,-5.2715,-5.2773,-5.2773,-5.3398,-5.5117,-5.5332,-5.5664,-5.6504,-5.6601,-5.6601,-5.6601,-5.6601,-5.6601,-5.6601,-5.6601,-5.6601,-5.6601,-5.6601,-5.66,-5.6592,-5.6407,-5.6305,-5.6308,-5.6227,-5.6156,-5.609,-5.6029,-5.6012,-4.8386,0.0,0.0,0.0,0.0,0.0,-5.0001,-5.1409,-5.2895,-5.4383,-5.5188,-5.5817,-5.6386,-5.6501,-5.6553,-5.6753,-5.7466,-5.8312,-5.9188,-5.9244,-5.9432,-6.0,-5.8527,-5.7447,-5.7387,-5.6585,-5.6046,-5.5993,-5.6012,-5.5582,-5.4641,-5.3369,-5.2155,-5.1068,-5.0827,-5.0712,-5.0712,-5.0712,-5.0712,-5.0712,-5.0712,-5.0712,-5.0712,-5.0712,-5.0712,-5.0712,-5.0933,-5.0914,-5.0817,-5.2329,-5.3002,-5.2988,-5.2371,-5.2163,-5.2086,-5.1222,-5.0893,-5.0898,-5.0898,-5.0959,-5.103,-5.1117,-5.1167,-5.1222,-5.1255,-5.1283,-5.1325,-5.1324,-5.1355,-5.1402,-5.1406,-5.1406,-5.1406,-5.1406,-5.1406,-5.1406,-5.1406,-5.1406,-5.1406,-5.1406,-5.1582,-5.1875,-5.2266,-5.2539,-5.3125,-5.4394,-5.457,-5.498,-5.6094,-5.623,-5.6328,-5.6562,-5.6601,-5.6601,-5.6601,-5.6601,-5.6601,-5.66,-5.66,-5.6599,-5.6597,-5.6597,-5.657,-5.6523,-5.6375,-5.6285,-5.6226,-5.6102,-5.6054,-5.6029,-5.6012,-5.6012,-4.7723,-4.7332,-4.6944,-4.6436,0.0,0.0,-4.8193,-4.9638,-5.1258,-5.2624,-5.3606,-5.4475,-5.5307,-5.5467,-5.5468,-5.5466,-5.614,-5.72,-5.8788,-5.9285,-5.9777,-6.0598,-5.9438,-5.8566,-5.8482,-5.7373,-5.6604,-5.6553,-5.6197,-5.5446,-5.4158,-5.2377,-5.1183,-5.0712,-5.0712,-5.0712,-5.0712,-5.0712,-5.0712,-5.0712,-5.0712,-5.0712,-5.0712,-5.0712,-5.0712,-5.0712,-5.0712,-5.0731,-5.0815,-5.1836,-5.2306,-5.231,-5.179,-5.1612,-5.1602,-5.1087,-5.0901,-5.0898,-5.0898,-5.0944,-5.1009,-5.1082,-5.1136,-5.1166,-5.12,-5.1246,-5.1304,-5.1301,-5.1351,-5.1404,-5.1406,-5.1406,-5.1406,-5.1406,-5.1406,-5.1406,-5.1406,-5.1406,-5.1406,-5.1406,-5.1406,-5.168,-5.2558,-5.2695,-5.3281,-5.5039,-5.5293,-5.5605,-5.6484,-5.6601,-5.6601,-5.6601,-5.6601,-5.6601,-5.6601,-5.6601,-5.6601,-5.6599,-5.6575,-5.6548,-5.652,-5.6489,-5.6467,-5.6429,-5.631,-5.6206,-5.6117,-5.6043,-5.6012,-5.6012,-5.6012,-5.6012,-4.745,-4.6885,-4.63,-4.63,-4.6885,0.0,-4.745,-4.8679,-5.0065,-5.0926,-5.1804,-5.269,-5.3543,-5.3702,-5.3705,-5.371,-5.4394,-5.5815,-5.8353,-5.9466,-6.0315,-6.1137,-6.0391,-5.9793,-5.9739,-5.8238,-5.7193,-5.7037,-5.6119,-5.4925,-5.3483,-5.1674,-5.0693,-5.0712,-5.0712,-5.0712,-5.0712,-5.0712,-5.0712,-5.0712,-5.0712,-5.0712,-5.0712,-5.0712,-5.0712,-5.0712,-5.0712,-5.0721,-5.0793,-5.0801,-5.0846,-5.0888,-5.0901,-5.0898,-5.0898,-5.0898,-5.0898,-5.0898,-5.0898,-5.0948,-5.0993,-5.1056,-5.1076,-5.1093,-5.1145,-5.1225,-5.1281,-5.1308,-5.1355,-5.1406,-5.1406,-5.1406,-5.1406,-5.1406,-5.1406,-5.1406,-5.1406,-5.1406,-5.1406,-5.1406,-5.1406,-5.1719,-5.2676,-5.2832,-5.3437,-5.5176,-5.5449,-5.5723,-5.6504,-5.6601,-5.6601,-5.6601,-5.6601,-5.6601,-5.6601,-5.6601,-5.6601,-5.6597,-5.652,-5.6458,-5.64,-5.6332,-5.6309,-5.6281,-5.6212,-5.6132,-5.6012,-5.6012,-5.6012,-5.6012,-5.6012,-5.6012,-4.6554,-4.6436,-4.63,-4.63,-4.6436,0.0,-4.6554,-4.7354,-4.8328,-4.915,-5.0008,-5.0867,-5.1751,-5.1907,-5.1909,-5.1913,-5.2624,-5.4081,-5.6639,-5.7685,-5.8529,-5.938,-5.871,-5.812,-5.7994,-5.7053,-5.6114,-5.5343,-5.3774,-5.3016,-5.3387,-5.1683,-5.0712,-5.0693,-5.0712,-5.0712,-5.0712,-5.0712,-5.0712,-5.0712,-5.0712,-5.0712,-5.0712,-5.0712,-5.0712,-5.0712,-5.0712,-5.0702,-5.072,-5.0784,-5.0844,-5.0909,-5.0905,-5.0893,-5.0898,-5.0905,-5.0893,-5.0898,-5.0898,-5.0906,-5.0914,-5.0929,-5.0944,-5.0932,-5.0947,-5.1043,-5.1162,-5.1327,-5.1397,-5.1406,-5.1406,-5.1406,-5.1406,-5.1406,-5.1406,-5.1406,-5.1406,-5.1406,-5.1406,-5.1406,-5.1406,-5.1894,-5.3476,-5.375,-5.4336,-5.6074,-5.6348,-5.6406,-5.6582,-5.6601,-5.6601,-5.6601,-5.6601,-5.6601,-5.66,-5.66,-5.6575,-5.6526,-5.6467,-5.6413,-5.6401,-5.6349,-5.6264,-5.6226,-5.6158,-5.6078,-5.6012,-5.6012,-5.6012,-5.6012,-5.6012,-5.6012,-4.63,-4.63,-4.63,-4.63,-4.63,0.0,0.0,-4.6632,-4.7061,-4.7471,-4.79,-4.8349,-4.8779,-4.9208,-4.9501,-4.9501,-5.0931,-5.2508,-5.3788,-5.5773,-5.7594,-5.8897,-5.8627,-5.8295,-5.8165,-5.736,-5.6275,-5.4907,-5.3127,-5.2301,-5.2719,-5.1451,-5.0711,-5.0702,-5.0702,-5.0712,-5.0712,-5.0712,-5.0712,-5.0693,-5.0269,-5.0048,-5.0029,-4.9606,-4.9394,-4.9394,-4.9394,-4.9422,-4.9458,-4.9485,-4.9796,-5.0294,-5.0739,-5.0901,-5.0898,-5.0901,-5.0901,-5.0898,-5.0898,-5.0898,-5.0898,-5.0898,-5.0898,-5.0898,-5.0898,-5.1024,-5.118,-5.1355,-5.1397,-5.1406,-5.1406,-5.1406,-5.1406,-5.1406,-5.1406,-5.1406,-5.1406,-5.1406,-5.1406,-5.1406,-5.1406,-5.1953,-5.3691,-5.4004,-5.459,-5.6348,-5.6601,-5.6601,-5.6601,-5.6601,-5.6601,-5.6601,-5.6601,-5.6601,-5.6599,-5.6573,-5.6518,-5.6458,-5.6355,-5.6305,-5.6308,-5.6201,-5.6119,-5.6102,-5.6078,-5.6029,-5.6012,-5.6012,-5.6012,-5.6012,-5.6012,-5.6012,-4.63,-4.63,-4.63,-4.63,-4.63,-4.63,0.0,0.0,0.0,-4.6046,-4.5929,-4.5792,-4.5792,-4.6378,-4.6903,-4.7079,-4.8974,-5.0521,-5.0848,-5.3415,-5.5976,-5.7884,-5.8215,-5.8227,-5.8106,-5.7286,-5.6204,-5.4896,-5.2981,-5.1951,-5.2097,-5.1227,-5.071,-5.0701,-5.0693,-5.0712,-5.0712,-5.0712,-5.0712,-5.0693,-4.9817,-4.9394,-4.9375,-4.8509,-4.8105,-4.8105,-4.8105,-4.8133,-4.8169,-4.8186,-4.8662,-4.9443,-5.0314,-5.0755,-5.0898,-5.0898,-5.0898,-5.0898,-5.0898,-5.0898,-5.0898,-5.0898,-5.0898,-5.0906,-5.0937,-5.1053,-5.1238,-5.1362,-5.1397,-5.1406,-5.1406,-5.1406,-5.1406,-5.1406,-5.1406,-5.1406,-5.1406,-5.1406,-5.1406,-5.1406,-5.1406,-5.1953,-5.3691,-5.4004,-5.459,-5.6348,-5.6601,-5.6601,-5.6601,-5.6601,-5.6601,-5.6601,-5.6601,-5.6581,-5.6575,-5.6518,-5.6447,-5.6383,-5.6278,-5.6187,-5.6178,-5.6051,-5.6012,-5.6012,-5.6012,-5.6012,-5.6012,-5.6012,-5.6012,-5.6012,-5.6012,-5.6012,-4.63,-4.63,-4.63,-4.63,-4.63,-4.63,-4.63,0.0,-4.5148,-4.5148,0.0,-4.3998,-4.3998,0.0,0.0,-4.5168,-4.6183,-4.7395,-4.8899,-5.0092,-5.1765,-5.4277,-5.5248,-5.5677,-5.5519,-5.4622,-5.426,-5.4762,-5.2469,-5.1338,-5.2058,-5.1262,-5.0766,-5.0701,-5.0693,-5.0712,-5.0712,-5.0712,-5.0712,-5.0693,-4.9817,-4.9394,-4.9375,-4.8509,-4.8105,-4.8105,-4.8105,-4.8105,-4.8115,-4.8188,-4.8298,-4.8533,-4.9404,-5.0217,-5.0898,-5.0898,-5.0898,-5.0898,-5.0898,-5.0898,-5.0898,-5.0898,-5.0898,-5.0929,-5.1043,-5.1137,-5.1238,-5.1362,-5.1397,-5.1406,-5.1406,-5.1406,-5.1406,-5.1406,-5.1406,-5.1406,-5.1406,-5.1406,-5.1406,-5.1406,-5.1406,-5.1953,-5.3691,-5.4004,-5.459,-5.6348,-5.6601,-5.6601,-5.6601,-5.6601,-5.6601,-5.66,-5.66,-5.6574,-5.6521,-5.6442,-5.6375,-5.6317,-5.6233,-5.617,-5.6114,-5.6037,-5.6012,-5.6012,-5.6012,-5.6012,-5.6012,-5.6012,-5.6012,-5.6012,-5.6012,-5.6012,-4.6302,-4.63,-4.63,-4.63,-4.63,-4.6163,-4.5656,-4.5265,-4.4717,-4.3702,0.0,0.0,0.0,0.0,0.0,0.0,-4.5831,-4.7295,-4.7998,-4.8818,-5.0133,-5.2235,-5.326,-5.4137,-5.5001,-5.4193,-5.3741,-5.4088,-5.2121,-5.1045,-5.1396,-5.1029,-5.0793,-5.0766,-5.0712,-5.0712,-5.0712,-5.0712,-5.0712,-5.0673,-4.9298,-4.8644,-4.8606,-4.7259,-4.6644,-4.6644,-4.6644,-4.6644,-4.6653,-4.667,-4.703,-4.7637,-4.8503,-4.9401,-5.026,-5.0724,-5.0898,-5.0898,-5.0898,-5.0898,-5.0898,-5.0898,-5.0898,-5.0929,-5.1063,-5.1141,-5.1219,-5.1319,-5.1366,-5.1404,-5.1404,-5.1405,-5.1406,-5.1406,-5.1406,-5.1406,-5.1406,-5.1406,-5.1406,-5.1406,-5.1816,-5.2558,-5.3789,-5.4004,-5.459,-5.6348,-5.6601,-5.6601,-5.6601,-5.6601,-5.6601,-5.6599,-5.6572,-5.6516,-5.6458,-5.6347,-5.6278,-5.6233,-5.6136,-5.6078,-5.6037,-5.602,-5.6012,-5.6012,-5.6012,-5.6012,-5.6012,-5.6012,-5.6012,-5.6012,-5.6012,-5.6012,-4.6246,-4.6477,-4.6651,-4.6651,-4.6651,-4.6378,-4.5246,-4.4816,-4.4289,-4.3021,-4.2572,0.0,0.0,0.0,-4.3782,-4.4016,0.0,-4.6962,-4.7217,-4.7744,-4.8759,-5.0477,-5.1668,-5.2988,-5.4611,-5.3851,-5.3279,-5.3275,-5.1581,-5.0666,-5.0898,-5.0612,-5.0542,-5.0801,-5.0721,-5.0712,-5.0712,-5.0712,-5.0712,-5.0673,-4.8933,-4.8105,-4.8048,-4.6355,-4.5594,-4.5594,-4.5594,-4.5594,-4.5594,-4.5594,-4.6147,-4.7097,-4.7965,-4.8863,-4.9803,-5.0589,-5.0898,-5.0898,-5.0898,-5.0898,-5.0898,-5.0898,-5.0898,-5.0921,-5.103,-5.1122,-5.1195,-5.1253,-5.1308,-5.1341,-5.1366,-5.1376,-5.1381,-5.1403,-5.1405,-5.1406,-5.1406,-5.1406,-5.1465,-5.1719,-5.2266,-5.3047,-5.416,-5.4355,-5.4863,-5.6367,-5.6601,-5.6601,-5.6601,-5.6601,-5.6599,-5.6573,-5.6515,-5.6442,-5.6371,-5.6272,-5.6174,-5.6156,-5.6043,-5.6012,-5.6012,-5.6012,-5.6012,-5.6012,-5.6012,-5.6012,-5.6012,-5.6012,-5.6012,-5.6012,-5.6012,-5.6012,-4.6075,-4.693,-4.7567,-4.7567,-4.7567,-4.7118,-4.5381,-4.4348,-4.3725,-4.3666,-4.2982,-4.265,-4.3469,-4.3666,-4.3977,-4.4816,-4.5029,0.0,0.0,-4.6358,-4.7002,-4.8681,-5.0406,-5.2107,-5.379,-5.3034,-5.2449,-5.2451,-5.0763,-5.0074,-5.0859,-5.0044,-4.9924,-5.0763,-5.0721,-5.0712,-5.0712,-5.0712,-5.0712,-5.0673,-4.8933,-4.8105,-4.8048,-4.6355,-4.5594,-4.5594,-4.5594,-4.5594,-4.5594,-4.5594,-4.6147,-4.7097,-4.7965,-4.8863,-4.9803,-5.0589,-5.0898,-5.0898,-5.0898,-5.0898,-5.0898,-5.0898,-5.0898,-5.0914,-5.0976,-5.105,-5.1122,-5.1181,-5.1194,-5.1218,-5.1291,-5.1301,-5.1322,-5.1377,-5.1404,-5.1406,-5.1406,-5.1406,-5.1641,-5.248,-5.2676,-5.3242,-5.4961,-5.5254,-5.5566,-5.6463,-5.6599,-5.6598,-5.6594,-5.6593,-5.6585,-5.6514,-5.6436,-5.6387,-5.6306,-5.6246,-5.6129,-5.6001,-5.5993,-5.6012,-5.6012,-5.6012,-5.6012,-5.6012,-5.6012,-5.6012,-5.6012,-5.6012,-5.6012,-5.6012,-5.6012,-5.6012,-4.5357,-4.6075,-4.6736,-4.6731,-4.6749,-4.6436,-4.5265,-4.4777,-4.4231,-4.3079,-4.306,-4.3177,-4.2884,-4.3782,-4.466,-4.4951,-4.548,-4.5968,0.0,-4.63,-4.6729,-4.7861,-4.9033,-5.0175,-5.1287,-5.0993,-5.0757,-5.0743,-4.9556,-4.9204,-5.0055,-4.9716,-4.9905,-5.0763,-5.0721,-5.0712,-5.0712,-5.0125,-4.9837,-4.9817,-4.8125,-4.7009,-4.6413,-4.5259,-4.4451,-4.397,-4.4509,-4.4739,-4.4836,-4.597,-4.6667,-4.7135,-4.8544,-4.9346,-4.9803,-5.0589,-5.0898,-5.0898,-5.0898,-5.0898,-5.0898,-5.0898,-5.0898,-5.0914,-5.0986,-5.1056,-5.1101,-5.1122,-5.1176,-5.1204,-5.1234,-5.1262,-5.1316,-5.1373,-5.1842,-5.2262,-5.2262,-5.2262,-5.2516,-5.3394,-5.3551,-5.3922,-5.5094,-5.5777,-5.6266,-5.656,-5.6553,-5.652,-5.6469,-5.6428,-5.6397,-5.6363,-5.631,-5.6261,-5.6246,-5.6121,-5.6054,-5.5993,-5.6012,-5.6012,-5.6012,-5.6012,-5.6012,-5.6012,-5.6012,-5.6012,-5.6012,-5.6012,-5.6012,-5.6012,-5.6012,-5.6012,-4.4445,-4.5165,-4.5845,-4.5841,-4.6072,-4.5991,-4.48,-4.4779,-4.4582,-4.316,-4.3318,-4.3611,-4.336,-4.4237,-4.5093,-4.5407,-4.5931,-4.63,0.0,-4.63,-4.6515,-4.7061,-4.7916,-4.8746,-4.9551,-4.9534,-4.9473,-4.9478,-4.8547,-4.835,-4.9187,-4.9122,-4.9459,-5.031,-5.0566,-5.0702,-5.0712,-4.9837,-4.9394,-4.9375,-4.7702,-4.6432,-4.5575,-4.4701,-4.3855,-4.3124,-4.3643,-4.4047,-4.4412,-4.5873,-4.6848,-4.7598,-4.8985,-4.9779,-5.0183,-5.0705,-5.0898,-5.0898,-5.0898,-5.0898,-5.0898,-5.0898,-5.0898,-5.0906,-5.0956,-5.1,-5.1023,-5.1024,-5.1063,-5.1105,-5.1111,-5.1171,-5.132,-5.1681,-5.2205,-5.2718,-5.2991,-5.3069,-5.3303,-5.4181,-5.4357,-5.4632,-5.5511,-5.6116,-5.6513,-5.6567,-5.6513,-5.6447,-5.642,-5.6336,-5.6291,-5.6275,-5.6226,-5.6186,-5.6121,-5.6062,-5.6012,-5.6012,-5.6012,-5.6012,-5.6012,-5.6012,-5.6012,-5.6012,-5.6012,-5.6012,-5.6012,-5.6012,-5.6012,-5.6012,-5.6012,-5.6012]},{"header":{"parameterUnit":"m.s-1","parameterCategory":1,"la1":30.6,"la2":29.2853,"lo1":-89.7004,"lo2":-87.6739,"dy":0.0162,"dx":0.0183,"nx":112,"ny":82,"refTime":"2026-04-20T00:00:00:Z","depth":0,"parameterNumber":3,"parameterNumberName":"V-component_of_WINDS"},"data":[0.0,0.0,0.0,0.0,0.0,0.0,0.0,0.0,0.0,0.0,0.0,0.0,0.0,0.0,0.0,0.0,0.0,0.0,0.0,0.0,0.0,0.0,0.0,0.0,0.0,0.0,0.0,0.0,0.0,0.0,0.0,0.0,0.0,0.0,0.0,0.0,0.0,0.0,0.0,0.0,0.0,0.0,0.0,0.0,0.0,0.0,0.0,0.0,0.0,0.0,0.0,0.0,0.0,0.0,0.0,0.0,0.0,0.0,0.0,0.0,0.0,0.0,0.0,0.0,0.0,0.0,0.0,0.0,0.0,0.0,0.0,0.0,0.0,0.0,0.0,0.0,0.0,0.0,0.0,0.0,0.0,0.0,0.0,0.0,0.0,0.0,0.0,0.0,0.0,0.0,-1.2296,-1.3092,-1.42,-1.4749,-1.442,-1.3885,-1.3844,-1.4355,0.0,0.0,0.0,0.0,0.0,0.0,0.0,0.0,0.0,0.0,0.0,0.0,0.0,0.0,0.0,0.0,0.0,0.0,0.0,0.0,0.0,0.0,0.0,0.0,0.0,0.0,0.0,0.0,0.0,0.0,0.0,0.0,0.0,0.0,0.0,0.0,0.0,0.0,0.0,0.0,0.0,0.0,0.0,0.0,0.0,0.0,0.0,0.0,0.0,0.0,0.0,0.0,0.0,0.0,0.0,0.0,0.0,0.0,0.0,0.0,0.0,0.0,0.0,0.0,0.0,0.0,0.0,0.0,0.0,0.0,0.0,0.0,0.0,0.0,0.0,0.0,0.0,0.0,0.0,0.0,0.0,0.0,0.0,0.0,0.0,0.0,0.0,0.0,0.0,0.0,0.0,0.0,0.0,0.0,0.0,0.0,0.0,0.0,0.0,0.0,0.0,0.0,0.0,0.0,-1.2264,-1.3368,-1.4131,-1.4432,-1.4233,-1.3997,-1.4043,-1.4364,0.0,0.0,0.0,0.0,0.0,0.0,0.0,0.0,0.0,0.0,0.0,0.0,0.0,0.0,0.0,0.0,0.0,0.0,0.0,0.0,0.0,0.0,0.0,0.0,0.0,0.0,0.0,0.0,0.0,0.0,0.0,0.0,0.0,0.0,0.0,0.0,0.0,0.0,0.0,0.0,0.0,0.0,0.0,0.0,0.0,0.0,0.0,0.0,0.0,0.0,0.0,0.0,0.0,0.0,0.0,0.0,0.0,0.0,0.0,0.0,0.0,0.0,0.0,0.0,0.0,0.0,0.0,0.0,0.0,0.0,0.0,0.0,0.0,0.0,0.0,0.0,0.0,0.0,0.0,0.0,0.0,0.0,0.0,0.0,0.0,0.0,0.0,0.0,0.0,0.0,0.0,0.0,0.0,0.0,0.0,0.0,0.0,0.0,0.0,0.0,0.0,0.0,0.0,-1.2251,-1.2974,-1.3843,-1.4233,-1.4322,-1.405,-1.3774,-1.3815,-1.4188,-1.4126,0.0,0.0,0.0,0.0,0.0,0.0,0.0,0.0,0.0,0.0,0.0,0.0,0.0,0.0,0.0,0.0,0.0,0.0,0.0,0.0,0.0,0.0,0.0,0.0,0.0,0.0,0.0,0.0,0.0,0.0,0.0,0.0,0.0,0.0,0.0,0.0,0.0,0.0,0.0,0.0,0.0,0.0,0.0,0.0,0.0,0.0,0.0,0.0,0.0,0.0,0.0,0.0,0.0,0.0,0.0,0.0,0.0,0.0,0.0,0.0,0.0,0.0,0.0,0.0,0.0,0.0,0.0,0.0,0.0,0.0,0.0,0.0,0.0,0.0,0.0,0.0,0.0,0.0,0.0,0.0,0.0,0.0,0.0,0.0,0.0,0.0,0.0,0.0,0.0,0.0,0.0,0.0,0.0,0.0,0.0,0.0,0.0,0.0,0.0,0.0,0.0,0.0,-1.3072,-1.3591,-1.4006,-1.4205,-1.4164,-1.3807,-1.3449,-1.3464,-1.3955,-1.4014,0.0,0.0,0.0,0.0,0.0,0.0,0.0,0.0,0.0,0.0,0.0,0.0,0.0,0.0,0.0,0.0,0.0,0.0,0.0,0.0,0.0,0.0,0.0,0.0,0.0,0.0,0.0,0.0,0.0,0.0,0.0,0.0,0.0,0.0,0.0,0.0,0.0,0.0,0.0,0.0,0.0,0.0,0.0,0.0,0.0,0.0,0.0,0.0,0.0,0.0,0.0,0.0,0.0,0.0,0.0,0.0,0.0,0.0,0.0,0.0,0.0,0.0,0.0,0.0,0.0,0.0,0.0,0.0,0.0,0.0,0.0,0.0,0.0,0.0,0.0,0.0,0.0,0.0,0.0,0.0,0.0,0.0,0.0,0.0,0.0,0.0,0.0,0.0,0.0,0.0,0.0,0.0,0.0,0.0,0.0,0.0,0.0,0.0,0.0,0.0,0.0,0.0,-1.3185,-1.357,-1.3606,-1.3835,-1.3794,-1.3437,-1.308,-1.3015,-1.3532,-1.3698,0.0,0.0,0.0,0.0,0.0,0.0,0.0,0.0,0.0,0.0,0.0,0.0,0.0,0.0,0.0,0.0,0.0,0.0,0.0,0.0,0.0,0.0,0.0,0.0,0.0,0.0,0.0,0.0,0.0,0.0,0.0,0.0,0.0,0.0,0.0,0.0,0.0,0.0,0.0,0.0,0.0,0.0,0.0,0.0,0.0,0.0,0.0,0.0,0.0,0.0,0.0,0.0,0.0,0.0,0.0,0.0,0.0,0.0,0.0,0.0,0.0,0.0,0.0,0.0,0.0,0.0,0.0,0.0,0.0,0.0,0.0,0.0,0.0,0.0,0.0,0.0,0.0,0.0,0.0,0.0,0.0,0.0,0.0,0.0,0.0,0.0,0.0,0.0,0.0,0.0,0.0,0.0,0.0,0.0,0.0,0.0,0.0,0.0,0.0,0.0,0.0,0.0,-1.3096,-1.3518,-1.3562,-1.3798,-1.3758,-1.3401,-1.2938,-1.2851,-1.3241,0.0,0.0,0.0,0.0,0.0,0.0,0.0,0.0,0.0,0.0,0.0,0.0,0.0,0.0,0.0,0.0,0.0,0.0,0.0,0.0,0.0,0.0,0.0,0.0,0.0,0.0,0.0,0.0,0.0,0.0,0.0,0.0,0.0,0.0,0.0,0.0,0.0,0.0,0.0,0.0,0.0,0.0,0.0,0.0,0.0,0.0,0.0,0.0,0.0,0.0,0.0,0.0,0.0,0.0,0.0,0.0,0.0,0.0,0.0,0.0,0.0,0.0,0.0,0.0,0.0,0.0,0.0,0.0,0.0,0.0,0.0,0.0,0.0,0.0,0.0,0.0,0.0,0.0,0.0,0.0,0.0,0.0,0.0,0.0,0.0,0.0,0.0,0.0,0.0,0.0,0.0,0.0,0.0,0.0,0.0,0.0,0.0,0.0,0.0,0.0,0.0,0.0,-1.2381,-1.3055,-1.3506,-1.3562,-1.3798,-1.3734,-1.3319,-1.2791,-1.2603,-1.2753,0.0,0.0,0.0,0.0,0.0,0.0,0.0,0.0,0.0,0.0,0.0,0.0,0.0,0.0,0.0,0.0,0.0,0.0,0.0,0.0,0.0,0.0,0.0,0.0,0.0,0.0,0.0,0.0,0.0,0.0,0.0,0.0,0.0,0.0,0.0,0.0,0.0,0.0,0.0,0.0,0.0,0.0,0.0,0.0,0.0,0.0,0.0,0.0,0.0,0.0,0.0,0.0,0.0,0.0,0.0,0.0,0.0,0.0,0.0,0.0,0.0,0.0,0.0,0.0,0.0,0.0,0.0,0.0,0.0,0.0,0.0,0.0,0.0,0.0,0.0,0.0,0.0,0.0,0.0,0.0,0.0,0.0,0.0,0.0,0.0,0.0,0.0,0.0,0.0,0.0,0.0,0.0,0.0,0.0,0.0,0.0,0.0,0.0,0.0,0.0,0.0,0.0,-1.2235,-1.3084,-1.3566,-1.3566,-1.379,-1.3677,-1.3141,-1.2613,-1.218,0.0,0.0,0.0,0.0,0.0,0.0,0.0,0.0,0.0,0.0,0.0,0.0,0.0,0.0,0.0,0.0,0.0,0.0,0.0,0.0,0.0,0.0,0.0,0.0,0.0,0.0,0.0,0.0,0.0,0.0,0.0,0.0,0.0,0.0,0.0,0.0,0.0,0.0,0.0,0.0,0.0,0.0,0.0,0.0,0.0,0.0,0.0,0.0,0.0,0.0,0.0,0.0,0.0,0.0,0.0,0.0,0.0,0.0,0.0,0.0,0.0,0.0,0.0,0.0,0.0,0.0,0.0,0.0,0.0,0.0,0.0,0.0,0.0,0.0,0.0,0.0,0.0,0.0,0.0,0.0,0.0,0.0,0.0,0.0,0.0,0.0,0.0,0.0,0.0,0.0,0.0,0.0,0.0,0.0,0.0,0.0,0.0,0.0,0.0,0.0,0.0,0.0,0.0,-1.2044,-1.2779,-1.3258,-1.3258,-1.3421,-1.3409,-1.312,-1.2613,-1.2233,-1.2175,0.0,0.0,0.0,0.0,0.0,0.0,0.0,0.0,0.0,0.0,0.0,0.0,0.0,0.0,0.0,0.0,0.0,0.0,0.0,0.0,0.0,0.0,0.0,0.0,0.0,0.0,0.0,0.0,0.0,0.0,0.0,0.0,0.0,0.0,0.0,0.0,0.0,0.0,0.0,0.0,0.0,0.0,0.0,0.0,0.0,0.0,0.0,0.0,0.0,0.0,0.0,0.0,0.0,0.0,0.0,0.0,0.0,0.0,0.0,0.0,0.0,0.0,0.0,0.0,0.0,0.0,0.0,0.0,0.0,0.0,0.0,0.0,0.0,0.0,0.0,0.0,0.0,0.0,0.0,0.0,0.0,0.0,0.0,0.0,0.0,0.0,0.0,0.0,0.0,0.0,0.0,0.0,0.0,0.0,0.0,0.0,0.0,0.0,0.0,0.0,0.0,0.0,-1.1866,-1.2613,-1.3092,-1.3092,-1.3258,-1.3271,-1.3011,-1.2633,-1.2257,-1.1935,0.0,0.0,0.0,0.0,0.0,0.0,0.0,0.0,0.0,0.0,0.0,0.0,0.0,0.0,0.0,0.0,0.0,0.0,0.0,0.0,0.0,0.0,0.0,0.0,0.0,0.0,0.0,0.0,0.0,0.0,0.0,0.0,0.0,0.0,0.0,0.0,0.0,0.0,0.0,0.0,0.0,0.0,0.0,0.0,0.0,0.0,0.0,0.0,0.0,0.0,0.0,0.0,0.0,0.0,0.0,0.0,0.0,0.0,0.0,0.0,0.0,0.0,0.0,0.0,0.0,0.0,0.0,0.0,0.0,0.0,0.0,0.0,0.0,0.0,0.0,0.0,0.0,0.0,0.0,0.0,0.0,0.0,0.0,0.0,0.0,0.0,0.0,0.0,0.0,0.0,0.0,0.0,0.0,0.0,0.0,0.0,0.0,0.0,0.0,0.0,0.0,0.0,-1.1732,-1.2532,-1.3072,-1.3072,-1.3222,-1.3189,-1.2798,-1.267,-1.2268,-1.1569,0.0,0.0,0.0,0.0,0.0,0.0,0.0,0.0,0.0,0.0,0.0,0.0,0.0,0.0,0.0,0.0,0.0,0.0,0.0,0.0,0.0,0.0,0.0,0.0,0.0,0.0,0.0,0.0,0.0,0.0,0.0,0.0,0.0,0.0,0.0,0.0,0.0,0.0,0.0,0.0,0.0,0.0,0.0,0.0,0.0,0.0,0.0,0.0,0.0,0.0,0.0,0.0,0.0,0.0,0.0,0.0,0.0,0.0,0.0,0.0,-0.6958,-0.6921,0.0,0.0,0.0,0.0,0.0,0.0,0.0,0.0,0.0,0.0,0.0,0.0,0.0,0.0,0.0,0.0,0.0,0.0,0.0,0.0,0.0,0.0,0.0,0.0,0.0,0.0,0.0,0.0,0.0,0.0,0.0,0.0,0.0,0.0,0.0,0.0,0.0,0.0,0.0,0.0,-1.1732,-1.243,-1.2893,-1.2893,-1.2925,-1.2921,-1.2778,-1.267,-1.232,-1.1752,-1.1037,0.0,0.0,0.0,0.0,0.0,0.0,0.0,0.0,0.0,0.0,0.0,0.0,0.0,0.0,0.0,0.0,0.0,0.0,0.0,0.0,0.0,0.0,0.0,0.0,0.0,0.0,0.0,0.0,0.0,0.0,0.0,0.0,0.0,0.0,0.0,0.0,0.0,0.0,0.0,0.0,0.0,0.0,0.0,0.0,0.0,0.0,0.0,0.0,0.0,0.0,0.0,0.0,0.0,0.0,0.0,0.0,0.0,0.0,0.0,-0.7216,-0.7328,0.0,0.0,0.0,0.0,0.0,0.0,0.0,0.0,0.0,0.0,0.0,0.0,0.0,0.0,0.0,0.0,0.0,0.0,0.0,0.0,0.0,0.0,0.0,0.0,0.0,0.0,0.0,0.0,0.0,0.0,0.0,0.0,0.0,0.0,0.0,0.0,0.0,0.0,0.0,0.0,-1.1487,-1.1948,-1.2375,-1.2572,-1.2572,-1.2606,-1.2714,-1.2617,-1.23,-1.1683,-1.1126,0.0,0.0,0.0,0.0,0.0,0.0,0.0,0.0,0.0,0.0,0.0,0.0,0.0,0.0,0.0,0.0,0.0,0.0,0.0,0.0,0.0,0.0,0.0,0.0,0.0,0.0,0.0,0.0,0.0,0.0,0.0,0.0,0.0,0.0,0.0,0.0,0.0,0.0,0.0,0.0,0.0,0.0,0.0,0.0,0.0,0.0,0.0,0.0,0.0,0.0,0.0,0.0,0.0,-0.1757,-0.254,-0.3397,-0.4501,-0.5481,-0.6385,-0.7293,-0.7747,-0.7793,-0.7771,0.0,0.0,0.0,0.0,0.0,0.0,0.0,0.0,0.0,0.0,0.0,0.0,0.0,0.0,0.0,0.0,0.0,0.0,0.0,0.0,0.0,0.0,-0.9544,-0.972,-1.0056,-1.0335,-1.0316,0.0,0.0,0.0,0.0,0.0,0.0,0.0,0.0,0.0,0.0,0.0,-1.1079,-1.1434,-1.1826,-1.2088,-1.2154,-1.2291,-1.2467,-1.2519,-1.2243,-1.1589,-1.1212,-1.0704,0.0,0.0,0.0,0.0,0.0,0.0,0.0,0.0,0.0,0.0,0.0,0.0,0.0,0.0,0.0,0.0,0.0,0.0,0.0,0.0,0.0,0.0,0.0,0.0,0.0,0.0,0.0,0.0,0.0,0.0,0.0,0.0,0.7066,0.6447,0.0,0.0,0.0,0.0,0.0,0.0,0.0,0.0,0.0,0.0,0.0,0.0,0.0,0.1928,0.1568,0.0928,0.0336,-0.0068,-0.0749,-0.1507,-0.2356,-0.3463,-0.457,-0.5745,-0.7157,0.0,-0.8157,-0.8051,0.0,0.0,0.0,0.0,0.0,0.0,0.0,0.0,0.0,0.0,0.0,0.0,0.0,0.0,0.0,0.0,0.0,0.0,0.0,0.0,0.0,0.0,-0.9967,-1.031,-1.049,-1.0654,-1.0616,-1.0635,-1.0513,-1.0159,-0.9846,-0.9529,0.0,0.0,0.0,0.0,0.0,0.0,-1.0665,-1.1101,-1.1359,-1.1423,-1.1674,-1.1857,-1.1897,-1.2151,-1.217,-1.1764,-1.1395,-1.094,-1.0387,-0.9793,0.0,0.0,0.0,0.0,0.0,0.0,0.0,0.0,0.0,0.0,0.0,0.0,0.0,0.0,0.0,0.0,0.0,0.0,0.0,0.0,0.0,0.0,0.0,0.0,0.0,0.0,0.0,0.0,0.0,0.8523,0.8469,0.8002,0.7355,0.6466,0.0,0.0,0.0,0.0,0.0,0.0,0.0,0.0,0.0,0.2004,0.206,0.2054,0.1912,0.1731,0.1544,0.135,0.1073,0.0502,-0.0287,-0.1442,-0.2738,-0.415,-0.6147,-0.7336,-0.7925,-0.8296,-0.8307,-0.8054,0.0,0.0,0.0,0.0,-0.8236,-0.8436,-0.8953,-0.8913,-0.8727,-0.8951,0.0,0.0,0.0,0.0,0.0,0.0,0.0,-0.9171,-0.9534,-0.9961,-1.0331,-1.0463,-1.0609,-1.0721,-1.0721,-1.0643,-1.0489,-1.0176,-0.9933,-0.9684,-0.9363,-0.9175,0.0,0.0,0.0,-1.0071,-1.0218,-1.0555,-1.0788,-1.0979,-1.1169,-1.1296,-1.1482,-1.1672,-1.1588,-1.1243,-1.0992,-1.0624,-1.0058,-0.9638,-0.9338,0.0,0.0,0.0,0.0,0.0,0.0,0.0,0.0,0.0,0.0,0.0,0.0,0.0,0.0,0.0,0.0,0.0,0.0,0.0,0.0,0.0,0.0,0.0,0.0,0.0,0.0,0.0,0.0,0.9439,0.961,0.9236,0.8608,0.78,0.0,0.0,0.0,0.0,0.0,0.0,0.2114,0.208,0.2054,0.2097,0.2136,0.2188,0.2256,0.2287,0.2312,0.2333,0.2356,0.1987,0.1312,0.0294,-0.1102,-0.2694,-0.487,-0.6326,-0.7259,-0.8426,-0.8687,-0.8337,-0.8217,-0.8108,-0.8125,-0.8374,-0.8559,-0.879,-0.9279,-0.9275,-0.9118,-0.9275,-0.9105,-0.8871,-0.8947,0.0,0.0,0.0,0.0,-0.9612,-0.9869,-1.0243,-1.0551,-1.0551,-1.0636,-1.0721,-1.0721,-1.0602,-1.0415,-1.0158,-0.9954,-0.9702,-0.9311,-0.9103,0.0,-0.9283,-0.9466,-0.966,-0.9807,-1.0029,-1.029,-1.0538,-1.0601,-1.0789,-1.104,-1.1103,-1.1057,-1.0683,-1.0484,-1.0192,-0.9617,-0.9402,-0.9153,-0.8933,0.0,0.0,0.0,0.0,0.0,0.0,0.0,0.0,0.0,0.0,0.0,0.0,0.0,0.0,0.0,0.0,0.0,0.0,0.0,0.0,0.0,0.0,0.0,0.0,0.0,0.0,0.0,0.0,0.0,0.9974,0.9679,0.0,0.0,0.0,0.0,0.468,0.3756,0.3082,0.268,0.2376,0.219,0.2193,0.2251,0.2284,0.2288,0.2317,0.2331,0.2333,0.2334,0.2115,0.1749,0.0948,-0.0292,-0.1822,-0.3493,-0.4875,-0.6038,-0.8169,-0.8968,-0.8811,-0.8535,-0.8462,-0.8541,-0.8437,-0.8546,-0.8829,-0.8889,-0.8916,-0.8839,-0.8933,-0.9009,-0.9107,-0.9094,-0.9222,0.0,0.0,-0.9788,-0.999,-1.0215,-1.0483,-1.0707,-1.0707,-1.0714,-1.0721,-1.0721,-1.0602,-1.0449,-1.0297,-1.0025,-0.9676,-0.9279,0.0,-0.914,-0.8784,-0.9248,-0.9564,-0.9429,-0.9656,-0.9842,-0.9846,-1.0147,-1.0329,-1.0329,-1.0633,-1.0686,-1.0368,-1.0082,-0.972,-0.9147,-0.9126,-0.8994,-0.8832,-0.8991,0.0,0.0,0.0,0.0,0.0,0.0,0.0,0.0,0.0,0.0,0.0,0.0,0.0,0.0,0.0,0.0,0.0,0.0,0.0,0.0,0.0,0.0,0.0,0.0,0.0,0.0,0.0,0.0,1.0409,1.0376,0.0,0.9302,0.8368,0.7294,0.6097,0.4817,0.3846,0.3221,0.2624,0.2286,0.2286,0.2307,0.2318,0.2318,0.2328,0.2333,0.2333,0.2352,0.2278,0.2115,0.1617,0.0808,-0.0291,-0.1892,-0.3057,-0.4075,-0.5647,-0.6739,-0.7495,-0.7323,-0.7276,-0.7303,-0.7269,-0.7341,-0.7542,-0.7645,-0.7613,-0.7553,-0.7818,-0.8122,-0.8351,-0.8658,-0.8872,-0.9039,-0.9181,-0.9352,-0.9526,-0.9671,-0.9914,-1.006,-1.006,-1.0193,-1.0296,-1.0005,-0.9935,-0.979,-0.946,-0.9669,-0.9856,-0.9507,-0.9378,-0.9319,-0.915,-0.9349,-0.9473,-0.9507,-0.97,-0.9822,-0.9822,-0.9883,-1.0001,-1.0001,-1.0061,-1.002,-0.9623,-0.8837,-0.8381,-0.8246,-0.7952,-0.7904,-0.8141,-0.8531,-0.8589,0.0,0.0,0.0,0.0,0.0,0.0,0.0,0.0,0.0,0.0,0.0,0.0,0.0,0.0,0.0,0.0,0.0,0.0,0.0,0.0,0.0,0.0,0.0,0.0,0.0,1.007,1.05,1.0897,1.09,1.0725,1.0322,0.9632,0.8589,0.7221,0.5817,0.4598,0.3743,0.2819,0.2323,0.2333,0.2324,0.2323,0.2333,0.2333,0.2333,0.2333,0.2353,0.2352,0.226,0.1985,0.1396,0.051,-0.0801,-0.1748,-0.2549,-0.3495,-0.4418,-0.5314,-0.5763,-0.5955,-0.5955,-0.5955,-0.6044,-0.6069,-0.6169,-0.6124,-0.6098,-0.6477,-0.6806,-0.7134,-0.752,-0.7785,-0.7996,-0.8076,-0.8215,-0.8294,-0.8375,-0.8455,-0.8651,-0.8923,-0.929,-0.9551,-0.9287,-0.9139,-0.8949,-0.8493,-0.9037,-0.9454,-0.9216,-0.9134,-0.9088,-0.9042,-0.9075,-0.9137,-0.9235,-0.9372,-0.9521,-0.9521,-0.9521,-0.9521,-0.9521,-0.9521,-0.9214,-0.8596,-0.7752,-0.728,-0.7168,-0.7046,-0.7224,-0.7747,-0.822,-0.8241,-0.784,0.0,0.0,0.0,0.0,0.0,0.0,0.0,0.0,0.0,0.0,0.0,0.0,0.0,0.0,0.0,0.0,0.0,0.0,0.0,0.0,0.0,0.0,0.0,1.0255,1.0399,1.0714,1.1314,1.1253,1.1157,1.0963,1.0481,0.9629,0.814,0.6643,0.531,0.4149,0.2951,0.2301,0.2329,0.2303,0.2302,0.2331,0.2333,0.2333,0.2333,0.2333,0.2333,0.226,0.1968,0.1385,0.0583,-0.0219,-0.0947,-0.1676,-0.2041,-0.226,-0.2405,-0.4004,-0.4657,-0.4655,-0.4655,-0.4616,-0.4627,-0.4638,-0.4505,-0.4454,-0.4866,-0.5158,-0.5431,-0.5765,-0.6097,-0.636,-0.6358,-0.6358,-0.6358,-0.6358,-0.636,-0.6564,-0.7307,-0.7893,-0.8437,-0.8642,-0.831,-0.7858,-0.7438,-0.798,-0.8542,-0.8353,-0.8443,-0.8491,-0.8368,-0.8455,0.0,-0.8534,-0.8708,-0.8793,-0.8793,-0.8793,-0.8793,-0.8793,-0.8793,-0.8369,-0.7277,-0.6867,-0.6411,-0.597,-0.6427,-0.698,-0.7595,-0.8069,-0.8045,-0.7607,0.0,0.0,0.0,0.0,0.0,0.0,0.0,0.0,0.0,0.0,0.0,0.0,0.0,0.0,0.0,0.0,0.0,0.0,0.0,0.0,0.0,1.0003,1.0219,1.0447,1.0458,1.0673,1.1168,1.1189,1.1267,1.1389,1.1272,1.055,0.904,0.7539,0.6008,0.4528,0.3026,0.2238,0.2198,0.2241,0.225,0.2302,0.2322,0.2333,0.2333,0.2333,0.2333,0.226,0.1968,0.1676,0.1458,0.0583,0.0146,-0.0073,-0.0438,-0.0657,-0.0802,-0.2332,-0.297,-0.2945,-0.2945,-0.2991,-0.2955,-0.2945,-0.2914,-0.295,-0.3569,-0.401,-0.4356,-0.491,-0.5357,-0.5604,-0.5611,-0.5595,-0.5595,-0.5595,-0.5573,-0.5749,-0.6215,-0.6983,-0.7457,-0.7034,-0.7079,-0.6943,-0.5983,-0.5791,-0.5981,-0.6499,-0.6647,-0.6642,-0.6617,-0.6635,-0.6654,-0.6654,-0.6679,-0.6696,-0.6696,-0.6696,-0.6696,-0.6696,-0.6696,-0.6442,-0.5804,-0.5064,-0.476,-0.5195,-0.5547,-0.6568,-0.8238,-0.8122,-0.7987,0.0,0.0,0.0,0.0,0.0,0.0,0.0,0.0,0.0,0.0,0.0,0.0,0.0,0.0,0.0,0.0,0.0,0.0,0.0,0.0,0.0,0.0,1.0422,1.0519,1.0742,1.0671,1.0755,1.1206,1.1202,1.1284,1.1589,1.1619,1.1041,0.9665,0.828,0.6737,0.5189,0.3585,0.2657,0.2494,0.2311,0.2248,0.2308,0.2324,0.2333,0.2333,0.2333,0.2333,0.226,0.1968,0.1677,0.1531,0.0876,0.0511,0.0365,0.0073,0.0,-0.0073,0.0,0.0,0.0,0.0,-0.1329,-0.132,-0.1312,-0.1302,-0.143,-0.2111,-0.2505,-0.2816,-0.3438,-0.3785,-0.3928,-0.3936,-0.3885,-0.3858,-0.3908,-0.3899,-0.4083,-0.4657,-0.5365,-0.5837,-0.5501,-0.5538,-0.5345,-0.4534,-0.388,0.0,-0.4142,-0.4933,-0.5471,-0.5471,-0.5471,-0.5471,-0.5471,-0.5471,-0.5471,-0.5471,-0.5471,-0.5458,-0.5483,-0.545,0.0,0.0,0.0,-0.3999,-0.4877,-0.5479,0.0,0.0,0.0,0.0,0.0,0.0,0.0,0.0,-0.6468,-0.6354,0.0,0.0,0.0,0.0,0.0,0.0,0.0,0.0,0.0,0.0,0.0,0.0,0.0,0.0,0.0,0.0,1.0933,1.0866,1.1076,1.0867,1.0907,1.1341,1.127,1.1301,1.1592,1.1633,1.1129,1.0026,0.8876,0.7568,0.6031,0.4397,0.0,0.0,0.0,0.2198,0.2328,0.2331,0.2333,0.2333,0.2333,0.2333,0.226,0.1968,0.1604,0.124,0.0803,0.0365,0.0073,0.0,0.0,0.0,0.0,0.0,0.0,0.0,0.0,0.0,0.0,0.0,0.0,-0.0808,-0.1077,-0.1208,-0.185,-0.2001,-0.2017,-0.1986,-0.1938,-0.1909,-0.1962,-0.2,-0.2227,-0.2933,-0.3571,-0.3974,-0.4233,-0.4017,-0.3655,-0.3186,-0.248,-0.1899,-0.1926,-0.3356,-0.4558,-0.4558,-0.4558,-0.4558,-0.4558,-0.455,-0.4545,-0.4545,-0.4539,0.0,-0.4566,-0.4566,-0.4308,-0.3652,-0.3413,-0.3775,-0.4729,-0.5613,-0.6463,-0.7325,-0.7305,-0.7177,-0.693,-0.6292,-0.5728,-0.5361,-0.5669,-0.5407,0.0,0.0,0.0,0.0,0.0,0.0,0.0,0.0,0.0,0.0,0.0,0.0,0.0,0.0,0.0,1.1044,1.1062,1.1048,1.0843,1.0826,1.1026,1.1352,1.1365,1.1419,1.1603,1.1725,1.1375,1.0462,0.9677,0.8481,0.6807,0.5166,0.3955,0.3318,0.2575,0.2238,0.2298,0.2322,0.2333,0.2333,0.2333,0.0,0.226,0.1968,0.175,0.1677,0.0949,0.0584,0.0438,0.0146,0.0,0.0,0.0,0.0,0.0,0.0,0.0,0.0,0.0,0.0,-0.0067,-0.0471,-0.0808,-0.1139,-0.1501,-0.1806,0.0,-0.1991,-0.1968,-0.1962,-0.1973,-0.2016,-0.218,-0.2613,-0.3138,-0.353,-0.3417,-0.3439,-0.3295,-0.2699,-0.2221,-0.1924,-0.193,-0.2261,-0.2531,-0.2531,-0.2531,-0.2531,-0.2531,-0.2504,-0.2483,-0.2483,-0.2456,-0.2493,-0.2485,-0.2461,-0.2404,-0.23,-0.2649,-0.3226,-0.3902,-0.4539,-0.5085,-0.5652,-0.5626,-0.5529,-0.5359,-0.5081,-0.459,-0.3838,-0.4538,-0.4689,0.0,0.0,0.0,0.0,0.0,0.0,0.0,0.0,0.0,0.0,0.0,1.1314,1.1606,0.0,1.1631,1.1522,1.1231,1.1023,1.0972,1.1046,1.1196,1.1267,1.1277,1.1365,1.1596,1.1748,1.1474,1.0537,0.9849,0.8743,0.7067,0.5447,0.4227,0.3503,0.2684,0.2266,0.2311,0.2326,0.2333,0.2333,0.2333,0.2333,0.226,0.1968,0.1677,0.1459,0.0876,0.0511,0.0292,0.0073,0.0,0.0,0.0,0.0,0.0,0.0,0.0,0.0,0.0,0.0,-0.0067,-0.0404,-0.0606,-0.0872,-0.1378,-0.1678,-0.1842,-0.1989,-0.1954,-0.1938,-0.1969,-0.1998,-0.2087,-0.2293,-0.2551,-0.2736,-0.2591,-0.2603,-0.2622,-0.2257,-0.2076,-0.1949,-0.1934,-0.1944,-0.1959,-0.1974,-0.1977,-0.1971,-0.1956,-0.1941,-0.1925,-0.191,-0.1895,-0.1879,-0.1864,-0.1891,-0.1909,-0.1909,-0.2308,-0.2815,-0.3431,-0.3831,-0.4273,-0.4753,-0.4711,-0.4671,-0.4575,-0.4236,-0.3782,-0.3266,-0.3379,-0.3307,0.0,0.0,0.0,0.0,0.0,0.0,0.0,1.0879,1.0992,1.1313,1.1671,1.2008,1.2259,1.2107,1.1931,1.1899,1.1384,1.1013,1.1143,1.1265,1.1335,1.1251,1.124,1.1389,1.1636,1.182,1.155,1.058,0.9888,0.8793,0.7065,0.548,0.4253,0.35,0.2745,0.2309,0.2333,0.2333,0.2333,0.2333,0.2333,0.2333,0.226,0.1895,0.1532,0.1168,0.0657,0.0292,0.0,0.0,0.0,0.0,0.0,0.0,0.0,0.0,0.0,0.0,0.0,0.0,-0.0067,-0.0337,-0.0471,-0.0604,-0.1257,-0.1491,-0.1585,-0.1939,-0.1958,-0.1932,-0.1981,-0.1994,-0.2004,-0.2046,-0.2036,-0.2017,-0.2011,-0.1992,-0.1977,-0.1977,-0.1977,-0.1967,-0.1937,-0.1871,-0.1937,-0.1956,-0.1959,-0.195,-0.1926,-0.1917,-0.1904,-0.1879,-0.1872,-0.1861,-0.1784,-0.1863,-0.189,-0.192,-0.2078,-0.246,-0.2946,-0.3126,-0.3413,-0.3805,-0.3792,-0.384,-0.384,-0.3348,-0.2991,-0.2817,-0.2375,-0.2116,0.9721,0.9942,1.0461,1.0818,1.1163,1.1407,0.0,1.1537,1.1711,1.1902,1.2223,1.2442,1.2328,1.2241,1.2076,1.1614,1.1446,1.1237,1.0988,1.1192,1.1335,1.1251,1.1514,1.1769,1.1803,1.2071,1.1818,1.073,1.0082,0.8861,0.7063,0.5522,0.4291,0.35,0.2694,0.233,0.2333,0.2333,0.2333,0.2333,0.2333,0.2333,0.226,0.1605,0.124,0.1168,0.0365,0.0073,0.0,0.0,0.0,0.0,0.0,0.0,0.0,0.0,0.0,0.0,0.0,0.0,0.0,-0.0067,-0.0269,-0.0604,-0.0926,-0.1315,-0.1635,-0.1998,-0.2113,-0.2109,-0.2116,-0.2118,-0.2049,-0.2029,-0.2021,-0.2011,-0.1987,-0.1979,-0.1977,-0.1977,-0.1977,-0.1967,-0.1937,-0.1871,-0.1923,-0.1899,-0.1896,-0.1895,-0.1892,-0.1867,-0.1791,-0.1788,-0.1821,-0.1814,-0.1781,-0.1786,-0.1858,-0.1889,-0.1946,-0.2002,-0.2057,-0.2025,-0.2005,-0.2058,-0.2085,-0.2069,-0.2069,-0.2014,-0.1974,-0.195,-0.19,-0.186,0.9797,1.0172,1.0696,1.1163,1.1447,1.1622,1.1782,1.1756,1.1803,1.1972,1.2192,1.2338,1.2269,1.2163,1.2037,1.1832,1.1602,1.1382,1.1402,1.1471,1.1467,1.1314,1.1382,1.1477,1.1565,1.1847,1.1636,1.0629,1.0065,0.8879,0.7067,0.5533,0.4299,0.3501,0.2698,0.2333,0.2333,0.2333,0.2333,0.2333,0.2333,0.2333,0.226,0.1532,0.0949,0.0511,0.0146,0.0,0.0,0.0,0.0,0.0,0.0,0.0,0.0,0.0,0.0,0.0,0.0,0.0,0.0,0.0,-0.0067,-0.0336,-0.0869,-0.1201,-0.1399,-0.1988,-0.2183,-0.2183,-0.2183,-0.2156,-0.2125,-0.2048,-0.2019,-0.1991,-0.1979,-0.1977,-0.1977,-0.1977,-0.1977,-0.1961,-0.1913,-0.1904,-0.1889,-0.184,-0.1863,-0.1879,-0.1862,-0.1791,-0.1776,-0.1816,-0.1803,-0.1807,-0.178,-0.1783,-0.1853,-0.1883,-0.1869,-0.1859,-0.1859,-0.183,-0.1814,-0.1814,-0.1802,-0.1795,-0.1795,-0.1795,-0.181,-0.1783,-0.1783,-0.1857,0.9979,1.0396,1.0875,1.1197,1.15,1.1766,1.1818,1.1792,1.1803,1.1944,1.2018,1.2111,1.207,1.2037,1.191,1.1891,1.1661,1.1535,1.1618,1.1595,1.1548,1.1352,1.1196,1.1148,1.1257,1.1572,1.1434,1.0534,1.0036,0.8882,0.7069,0.5535,0.43,0.3501,0.2698,0.2333,0.2333,0.2333,0.2333,0.2333,0.2333,0.2333,0.226,0.1532,0.073,0.0,0.0,0.0,0.0,0.0,0.0,0.0,0.0,0.0,0.0,0.0,0.0,0.0,0.0,0.0,0.0,0.0,0.0,-0.0135,-0.074,-0.101,-0.1212,-0.1885,-0.2087,-0.222,-0.2144,-0.2104,-0.2126,-0.2053,-0.2013,-0.1977,-0.1977,-0.1977,-0.1977,-0.1977,-0.1977,-0.1958,-0.1896,-0.1886,-0.1865,-0.1804,-0.1832,-0.1853,-0.183,-0.1827,-0.1819,-0.1797,-0.1795,-0.1804,-0.1826,-0.1827,-0.1837,-0.1859,-0.184,-0.1827,-0.1827,-0.1807,-0.1795,-0.1795,-0.1795,-0.1795,-0.1795,-0.1795,-0.181,-0.1783,-0.1783,-0.1852,1.0225,1.0684,1.0948,1.0785,1.1288,1.1739,1.1363,1.1676,1.1978,1.1821,1.1911,1.1974,1.1821,1.1791,1.1707,1.1532,1.161,1.1625,1.1432,1.1521,1.1508,1.1275,1.1043,1.089,1.0894,1.1365,1.1332,1.0527,1.003,0.8946,0.7061,0.5528,0.4296,0.3501,0.2698,0.2333,0.2333,0.2333,0.2333,0.2333,0.2333,0.2333,0.226,0.1532,0.073,0.0,0.0,0.0,0.0,0.0,0.0,0.0,0.0,0.0,0.0,0.0,0.0,0.0,0.0,0.0,0.0,0.0,0.0,-0.0067,-0.0404,-0.0808,-0.1144,-0.1548,-0.1885,-0.2215,-0.2119,-0.2087,-0.2056,-0.2026,-0.1997,-0.1977,-0.1977,-0.1977,-0.1977,-0.1977,-0.1977,-0.1958,-0.1896,-0.1886,-0.1865,-0.1804,-0.1797,-0.1797,-0.1796,-0.1796,-0.1796,-0.1795,-0.1795,-0.1795,-0.1796,-0.1796,-0.1797,-0.1797,-0.1797,-0.1796,-0.1796,-0.1795,-0.1795,-0.1795,-0.1795,-0.1795,-0.1795,-0.1795,-0.181,-0.1783,-0.1783,-0.1783,0.9735,1.0164,1.0578,1.0732,1.096,1.116,1.1243,1.1375,1.1391,1.1241,1.1164,1.1108,1.1059,1.1052,1.1136,1.1255,1.1593,1.1732,1.1548,1.1755,1.1762,1.1362,1.1097,1.084,1.0806,1.0958,1.0975,1.0738,1.0414,0.9526,0.7853,0.6253,0.4949,0.3935,0.2842,0.2333,0.2333,0.2333,0.2333,0.2333,0.2041,0.1822,0.1532,0.1022,0.0511,0.0,0.0,0.0,0.0,0.0,0.0,0.0,0.0,0.0,0.0,0.0,0.0,0.0,0.0,0.0,0.0,0.0,0.0,-0.0067,-0.0404,-0.0606,-0.0806,-0.1131,-0.1394,-0.1522,-0.1695,-0.1735,-0.1777,-0.1958,-0.1997,-0.1977,-0.1977,-0.1977,-0.1977,-0.1977,-0.1977,-0.1958,-0.1896,-0.1886,-0.1872,-0.1832,-0.1808,-0.1795,-0.1795,-0.1795,-0.1795,-0.1795,-0.1795,-0.1795,-0.1795,-0.1795,-0.1795,-0.1795,-0.1795,-0.1795,-0.1795,-0.1795,-0.1795,-0.1795,-0.1795,-0.1795,-0.1795,-0.1795,-0.181,-0.1782,-0.182,-0.1821,0.9654,1.0002,1.0384,1.0472,1.0587,1.0707,1.0832,1.0925,1.0962,1.0816,1.0666,1.0565,1.0565,1.0605,1.0738,1.1036,1.1504,1.1799,1.1708,1.1904,1.1915,1.1521,1.1257,1.1026,1.0822,1.0792,1.0752,1.0787,1.0773,1.0045,0.8514,0.7032,0.5673,0.4371,0.2988,0.2333,0.2333,0.2333,0.226,0.2114,0.1895,0.1527,0.0942,0.0725,0.0361,0.0,0.0,0.0,0.0,0.0,0.0,0.0,0.0,0.0,0.0,0.0,0.0,0.0,0.0,0.0,0.0,0.0,0.0,-0.0067,-0.0269,-0.0404,-0.0537,-0.0794,-0.0988,-0.1181,-0.1479,-0.1525,-0.1575,-0.1943,-0.199,-0.1977,-0.1977,-0.1977,-0.1977,-0.1977,-0.1977,-0.1958,-0.1896,-0.1868,-0.1847,-0.1827,-0.1808,-0.1799,-0.181,-0.1802,-0.1795,-0.1795,-0.1795,-0.1795,-0.1795,-0.1795,-0.1795,-0.1795,-0.1795,-0.1795,-0.1795,-0.1795,-0.1795,-0.1795,-0.1795,-0.1795,-0.1795,-0.1795,-0.1805,-0.1823,-0.1804,-0.1806,0.989,1.0207,1.0387,1.0091,1.0254,1.0454,1.0306,1.05,1.0666,1.0514,1.0361,1.0256,1.0256,1.0375,1.0571,1.0816,1.1376,1.184,1.1833,1.1976,1.1972,1.1667,1.1501,1.1294,1.0921,1.0677,1.0558,1.0721,1.0992,1.0591,0.9185,0.7787,0.6322,0.4736,0.3134,0.2333,0.2333,0.2333,0.2114,0.1822,0.1749,0.1376,0.0573,0.0573,0.0355,0.0,0.0,0.0,0.0,0.0,0.0,0.0,0.0,0.0,0.0,0.0,0.0,0.0,0.0,0.0,0.0,0.0,0.0,0.0,0.0,-0.0202,-0.047,-0.0463,-0.0724,-0.1111,-0.1397,-0.1449,-0.157,-0.1921,-0.1977,-0.1977,-0.1977,-0.1977,-0.1977,-0.1977,-0.1974,-0.1954,-0.1896,-0.1835,-0.1795,-0.1795,-0.1795,-0.1806,-0.1777,-0.1812,-0.1795,-0.1795,-0.1795,-0.1795,-0.1795,-0.1795,-0.1795,-0.1795,-0.1795,-0.1795,-0.1795,-0.1795,-0.1795,-0.1795,-0.1795,-0.1795,-0.1795,-0.1795,-0.1795,-0.1795,-0.1795,-0.1795,0.9676,0.9867,0.9945,0.9885,0.9943,1.0009,1.0219,1.0419,1.051,1.0365,1.0124,0.9937,0.9937,1.0059,1.0233,1.0711,1.1467,1.1962,1.1847,1.2155,1.2237,1.1826,1.1742,1.1558,1.1148,1.0734,1.0602,1.0803,1.0958,1.0426,0.9179,0.7787,0.6322,0.4736,0.3134,0.2333,0.2333,0.2333,0.2114,0.1822,0.1532,0.1087,0.0573,0.0286,0.0071,0.0,0.0,0.0,0.0,0.0,0.0,0.0,0.0,0.0,0.0,0.0,0.0,0.0,0.0,0.0,0.0,0.0,0.0,0.0,0.0,-0.0067,-0.0134,-0.0131,-0.0195,-0.0387,-0.1001,-0.1117,-0.1302,-0.1855,-0.1977,-0.1977,-0.1977,-0.1977,-0.1977,-0.1977,-0.194,-0.1904,-0.1889,-0.1835,-0.1795,-0.1795,-0.1795,-0.1797,-0.1806,-0.18,-0.1795,-0.1795,-0.1795,-0.1795,-0.1795,-0.1795,-0.1795,-0.1795,-0.1795,-0.1795,-0.1795,-0.1795,-0.1795,-0.1795,-0.1795,-0.1795,-0.1795,-0.1795,-0.1795,-0.1795,-0.1795,-0.1795,0.968,0.9761,0.9822,0.9822,0.9822,0.9883,1.0124,1.0239,1.0256,1.011,0.9893,0.9727,0.9727,0.9961,1.0276,1.066,1.1416,1.1932,1.1843,1.2108,1.2189,1.187,1.183,1.1681,1.1301,1.0975,1.0856,1.1029,1.0924,1.0321,0.9177,0.7787,0.6322,0.4736,0.3134,0.2333,0.2333,0.2333,0.2041,0.1531,0.1313,0.0867,0.0355,0.0071,0.0,0.0,0.0,0.0,0.0,0.0,0.0,0.0,0.0,0.0,0.0,0.0,0.0,0.0,0.0,0.0,0.0,0.0,0.0,0.0,0.0,0.0,0.0,0.0,0.0,-0.0128,-0.0622,-0.0864,-0.1111,-0.1667,-0.1915,-0.1977,-0.1977,-0.1977,-0.1977,-0.1977,-0.1927,-0.1886,-0.1886,-0.1835,-0.1795,-0.1795,-0.1795,-0.1795,-0.1795,-0.1795,-0.1795,-0.1795,-0.1795,-0.1795,-0.1795,-0.1795,-0.1795,-0.1795,-0.1795,-0.1795,-0.1795,-0.1795,-0.1795,-0.1795,-0.1795,-0.1795,-0.1795,-0.1795,-0.1795,-0.1795,-0.1795,-0.1795,0.9863,0.9849,0.9846,0.9825,0.9822,0.9863,0.9953,0.997,0.992,0.9849,0.9693,0.9585,0.9605,0.9961,1.0351,1.067,1.1328,1.1803,1.1803,1.1901,1.1925,1.1789,1.1755,1.165,1.1413,1.127,1.1202,1.1223,1.0965,1.0295,0.9174,0.7787,0.6177,0.4445,0.3061,0.2333,0.2333,0.2333,0.1896,0.1168,0.1168,0.0792,0.0,0.0,0.0,0.0,0.0,0.0,0.0,0.0,0.0,0.0,0.0,0.0,0.0,0.0,0.0,0.0,0.0,0.0,0.0,0.0,0.0,0.0,0.0,0.0,0.0,0.0,0.0,-0.0064,-0.0436,-0.0741,-0.105,-0.142,-0.1729,-0.1977,-0.1977,-0.1977,-0.1977,-0.1977,-0.1927,-0.1886,-0.1886,-0.1835,-0.1795,-0.1795,-0.1795,-0.1795,-0.1795,-0.1795,-0.1795,-0.1795,-0.1795,-0.1795,-0.1795,-0.1795,-0.1795,-0.1795,-0.1795,-0.1795,-0.1795,-0.1795,-0.1795,-0.1795,-0.1795,-0.1795,-0.1795,-0.1795,-0.1795,-0.1795,-0.1795,-0.1795,1.0014,0.9947,0.9916,0.9852,0.9822,0.9863,0.9953,0.9889,0.9852,0.9825,0.9608,0.9459,0.9588,0.9873,1.0166,1.0653,1.1246,1.1657,1.1657,1.1572,1.1497,1.147,1.1355,1.1307,1.1385,1.1365,1.1402,1.1531,1.1375,1.0674,0.9188,0.7787,0.5668,0.2842,0.2478,0.2333,0.2333,0.2333,0.1896,0.1168,0.1168,0.0792,0.0,0.0,0.0,0.0,0.0,0.0,0.0,0.0,0.0,0.0,0.0,0.0,0.0,0.0,0.0,0.0,0.0,0.0,0.0,0.0,0.0,0.0,0.0,0.0,0.0,0.0,0.0,-0.0064,-0.0436,-0.0556,-0.0741,-0.1359,-0.1544,-0.1667,-0.1915,-0.1977,-0.1977,-0.1977,-0.1927,-0.1886,-0.1886,-0.1835,-0.1795,-0.1795,-0.1795,-0.1795,-0.1795,-0.1795,-0.1795,-0.1795,-0.1795,-0.1795,-0.1795,-0.1795,-0.1795,-0.1795,-0.1795,-0.1795,-0.1795,-0.1795,-0.1795,-0.1795,-0.1795,-0.1795,-0.1795,-0.1795,-0.1795,-0.1795,-0.1795,-0.1795,1.0277,1.0226,1.0134,0.9916,0.9879,0.9859,0.9839,0.0,0.0,0.9395,0.9188,0.9079,0.9232,0.9568,0.9968,1.0419,1.0992,1.1382,1.1382,1.1253,1.1189,1.1263,1.1141,1.1141,1.1369,1.1463,1.1541,1.1613,1.1552,1.0863,0.9289,0.7028,0.4729,0.2405,0.2333,0.2326,0.2311,0.2311,0.1943,0.1144,0.1144,0.0779,0.0,0.0,0.0,0.0,0.0,0.0,0.0,0.0,0.0,0.0,0.0,0.0,0.0,0.0,0.0,0.0,0.0,0.0,0.0,0.0,0.0,0.0,0.0,0.0,0.0,0.0,0.0,-0.0064,-0.0186,-0.037,-0.0556,-0.0926,-0.1235,-0.1606,-0.1915,-0.1977,-0.1977,-0.1977,-0.1927,-0.1886,-0.1886,-0.1835,-0.1795,-0.1795,-0.1795,-0.1795,-0.1795,-0.1795,-0.1795,-0.1795,-0.1795,-0.1795,-0.1795,-0.1795,-0.1795,-0.1795,-0.1795,-0.1795,-0.1795,-0.1795,-0.1795,-0.1795,-0.1795,-0.1795,-0.1795,-0.1795,-0.1795,-0.1795,-0.1795,-0.1795,1.0442,1.0445,1.0371,1.0154,1.0011,0.9903,0.9635,0.9418,0.9211,0.8944,0.8767,0.871,0.8807,0.9232,0.9659,1.011,1.068,1.1067,1.1067,1.0917,1.087,1.1046,1.0914,0.0,1.1307,1.1511,1.1619,1.1619,1.1257,1.0458,0.8863,0.6186,0.3936,0.2333,0.2333,0.2319,0.2291,0.2291,0.192,0.1122,0.1122,0.0696,0.0,0.0,0.0,0.0,0.0,0.0,0.0,0.0,0.0,0.0,0.0,0.0,0.0,0.0,0.0,0.0,0.0,0.0,0.0,0.0,0.0,0.0,0.0,0.0,0.0,0.0,0.0,0.0,0.0,-0.0185,-0.0432,-0.0494,-0.0988,-0.1544,-0.1853,-0.1977,-0.1977,-0.1977,-0.1927,-0.1886,-0.1886,-0.1835,-0.1795,-0.1795,-0.1795,-0.1795,-0.1795,-0.1795,-0.1795,-0.1795,-0.1795,-0.1795,-0.1795,-0.1795,-0.1795,-0.1795,-0.1795,-0.1795,-0.1795,-0.1795,-0.1795,-0.1795,-0.1795,-0.1795,-0.1795,-0.1795,-0.1795,-0.1795,-0.1795,-0.1795,1.0441,1.0627,1.0718,1.0365,1.0154,0.9872,0.95,0.0,0.8878,0.8764,0.8611,0.855,0.8703,0.8984,0.9398,0.9788,1.0368,1.0761,1.0761,1.0521,1.0446,1.0727,0.0,0.0,1.1128,1.1447,1.1619,1.1619,1.0317,0.8863,0.7261,0.5602,0.3936,0.2333,0.2333,0.2319,0.2291,0.2291,0.192,0.1122,0.1122,0.0696,0.0,0.0,0.0,0.0,0.0,0.0,0.0,0.0,0.0,0.0,0.0,0.0,0.0,0.0,0.0,0.0,0.0,0.0,0.0,0.0,0.0,0.0,0.0,0.0,0.0,0.0,0.0,0.0,0.0,0.0,-0.0123,-0.0432,-0.0988,-0.1482,-0.1544,-0.1791,-0.1977,-0.1977,-0.1927,-0.1886,-0.1886,-0.1835,-0.1795,-0.1795,-0.1795,-0.1795,-0.1795,-0.1795,-0.1795,-0.1795,-0.1795,-0.1795,-0.1795,-0.1795,-0.1795,-0.1795,-0.1795,-0.1795,-0.1795,-0.1795,-0.1795,-0.1795,-0.1795,-0.1795,-0.1795,-0.1795,-0.1795,-0.1795,-0.1795,-0.1795,0.9952,1.0396,1.0697,1.0456,1.0297,1.0046,0.9503,0.9079,0.8757,0.8604,0.8384,0.8289,0.853,0.8743,0.9062,0.9605,1.0046,1.0351,1.0443,1.0276,1.0222,1.0429,1.027,1.0341,1.0846,1.1168,1.1382,1.1474,1.0341,0.9051,0.7612,0.5726,0.3936,0.2333,0.2333,0.2319,0.2291,0.2273,0.1827,0.1108,0.11,0.0682,0.0,0.0,0.0,0.0,0.0,0.0,0.0,0.0,0.0,0.0,0.0,0.0,0.0,0.0,0.0,0.0,0.0,0.0,0.0,0.0,0.0,0.0,0.0,0.0,0.0,0.0,0.0,0.0,0.0,0.0,-0.0062,-0.0432,-0.0864,-0.1235,-0.1482,-0.1791,-0.1971,-0.1953,-0.1915,-0.188,-0.1862,-0.1823,-0.1795,-0.1795,-0.1795,-0.1795,-0.1795,-0.1795,-0.1795,-0.1795,-0.1795,-0.1795,-0.1795,-0.1795,-0.1795,-0.1795,-0.1795,-0.1795,-0.1795,-0.1795,-0.1795,-0.1795,-0.1795,-0.1795,-0.1795,-0.1795,-0.1795,-0.1795,-0.1795,-0.1795,0.9122,1.0001,1.0694,1.0419,1.0354,1.011,0.9459,0.9001,0.8665,0.8513,0.8316,0.8235,0.8442,0.8608,0.8862,0.9334,0.9696,0.9971,1.0124,1.009,1.0107,1.0263,1.0144,1.0209,1.0612,1.0924,1.1182,1.1379,1.0522,0.9439,0.822,0.6297,0.4473,0.2682,0.2537,0.2446,0.2264,0.2102,0.1731,0.1093,0.0947,0.0606,0.0,0.0,0.0,0.0,0.0,0.0,0.0,0.0,0.0,0.0,0.0,0.0,0.0,0.0,0.0,0.0,0.0,0.0,0.0,0.0,0.0,0.0,0.0,0.0,0.0,0.0,0.0,0.0,0.0,0.0,-0.0062,-0.0309,-0.0679,-0.105,-0.1297,-0.1662,-0.1956,-0.1935,-0.1899,-0.1866,-0.1786,-0.1815,-0.1795,-0.1795,-0.1795,-0.1795,-0.1795,-0.1795,-0.1795,-0.1795,-0.1795,-0.1795,-0.1795,-0.1795,-0.1795,-0.1795,-0.1795,-0.1795,-0.1795,-0.1795,-0.1795,-0.1795,-0.1795,-0.1795,-0.1795,-0.1795,-0.1795,-0.1795,-0.1795,-0.179,0.7992,0.9492,1.0831,1.0261,1.0172,1.0083,0.9384,0.8923,0.8665,0.8513,0.8479,0.8479,0.8482,0.8608,0.876,0.8865,0.932,0.9663,0.9805,0.9893,1.0107,1.0263,1.0207,1.0231,1.0466,1.0772,1.1073,1.1369,1.0553,0.9639,0.8868,0.7411,0.5636,0.3575,0.3075,0.2684,0.2202,0.1857,0.1502,0.1077,0.0673,0.0337,0.0,0.0,0.0,0.0,0.0,0.0,0.0,0.0,0.0,0.0,0.0,0.0,0.0,0.0,0.0,0.0,0.0,0.0,0.0,0.0,0.0,0.0,0.0,0.0,0.0,0.0,0.0,0.0,0.0,0.0,0.0,0.0,-0.0494,-0.0988,-0.0988,-0.1464,-0.1871,-0.1871,-0.1823,-0.1783,-0.1783,-0.1815,-0.1795,-0.1795,-0.1795,-0.1795,-0.1795,-0.1795,-0.1795,-0.1795,-0.1795,-0.1795,-0.1795,-0.1795,-0.1795,-0.1795,-0.1795,-0.1795,-0.1795,-0.1795,-0.1795,-0.1795,-0.1795,-0.1795,-0.1795,-0.1795,-0.1795,-0.1795,-0.1795,-0.1779,0.6431,0.7701,0.8736,0.8875,0.8919,0.8992,0.9004,0.8723,0.8484,0.8595,0.8554,0.8513,0.8618,0.8676,0.8794,0.9045,0.9205,0.9388,0.9642,0.9829,1.0004,1.0117,1.0259,1.0388,1.0483,1.0768,1.0921,1.108,1.0652,1.015,0.9505,0.8411,0.6653,0.4224,0.3524,0.274,0.1882,0.1727,0.1372,0.0751,0.0609,0.0337,0.0,0.0,0.0,0.0,0.0,0.0,0.0,0.0,0.0,0.0,0.0,0.0,0.0,0.0,0.0,0.0,0.0,0.0,0.0,0.0,0.0,0.0,0.0,0.0,0.0,0.0,0.0,0.0,0.0,0.0,0.0,0.0,-0.0494,-0.0985,-0.0914,-0.1453,-0.1859,-0.1819,-0.1795,-0.1776,-0.1812,-0.1802,-0.1795,-0.1795,-0.1795,-0.1795,-0.1795,-0.1795,-0.1795,-0.1795,-0.1795,-0.1795,-0.1795,-0.1795,-0.1795,-0.1795,-0.1795,-0.1795,-0.1795,-0.1795,-0.1795,-0.1795,-0.1795,-0.1795,-0.1795,-0.1795,-0.1795,-0.1795,-0.1795,-0.179,0.4482,0.5749,0.6816,0.7066,0.7506,0.7913,0.8081,0.8248,0.8413,0.8573,0.8666,0.8682,0.8777,0.8798,0.8855,0.9042,0.9072,0.9178,0.9483,0.9829,1.0027,1.0139,1.0334,1.0432,1.0487,1.0663,1.0756,1.0873,1.0707,1.048,1.0187,0.931,0.7976,0.6052,0.4641,0.333,0.2072,0.1781,0.1296,0.0545,0.0405,0.0202,0.0,0.0,0.0,0.0,0.0,0.0,0.0,0.0,0.0,0.0,0.0,0.0,0.0,0.0,0.0,0.0,0.0,0.0,0.0,0.0,0.0,0.0,0.0,0.0,0.0,0.0,0.0,0.0,0.0,0.0,0.0,0.0,-0.0492,-0.0977,-0.0907,-0.1435,-0.1826,-0.179,-0.1774,-0.1817,-0.1798,-0.1795,-0.1795,-0.1795,-0.1795,-0.1795,-0.1795,-0.1795,-0.1795,-0.1795,-0.1795,-0.1795,-0.1795,-0.1795,-0.1795,-0.1795,-0.1795,-0.1795,-0.1795,-0.1795,-0.1795,-0.1795,-0.1795,-0.1795,-0.1795,-0.1795,-0.1795,-0.1795,-0.1795,-0.1795,0.0,0.3851,0.5009,0.506,0.5933,0.6766,0.6862,0.7688,0.0,0.8484,0.8712,0.8885,0.8885,0.8885,0.8885,0.8885,0.8892,0.9059,0.9357,0.9791,1.0192,1.049,1.0399,1.0358,1.048,1.0504,1.0626,1.0843,1.0802,1.0721,1.0721,1.0117,0.938,0.8706,0.6389,0.4358,0.2824,0.2019,0.1279,0.0471,0.0202,0.0,0.0,0.0,0.0,0.0,0.0,0.0,0.0,0.0,0.0,0.0,0.0,0.0,0.0,0.0,0.0,0.0,0.0,0.0,0.0,0.0,0.0,0.0,0.0,0.0,0.0,0.0,0.0,0.0,0.0,0.0,0.0,0.0,-0.0488,-0.0905,-0.0904,-0.1352,-0.1782,-0.178,-0.1814,-0.1795,-0.1795,-0.1795,-0.1795,-0.1795,-0.1795,-0.1795,-0.1795,-0.1795,-0.1795,-0.1795,-0.1795,-0.1795,-0.1795,-0.1795,-0.1795,-0.1795,-0.1795,-0.1795,-0.1795,-0.1795,-0.1795,-0.1795,-0.1795,-0.1795,-0.1795,-0.1795,-0.1795,-0.1795,-0.1795,-0.1796,0.0575,0.0,0.3239,0.369,0.4693,0.5726,0.0,0.7351,0.8211,0.8429,0.8712,0.8885,0.8885,0.8885,0.8885,0.8885,0.9032,0.9208,0.9513,1.0036,1.05,1.0739,1.0707,1.0582,1.05,1.0599,1.0697,1.0768,1.0741,1.0721,1.0721,1.0319,0.9918,0.9443,0.8076,0.613,0.3561,0.2824,0.1816,0.0471,0.0404,0.0269,0.0,0.0,0.0,0.0,0.0,0.0,0.0,0.0,0.0,0.0,0.0,0.0,0.0,0.0,0.0,0.0,0.0,0.0,0.0,0.0,0.0,0.0,0.0,0.0,0.0,0.0,0.0,0.0,0.0,0.0,0.0,0.0,-0.0488,-0.0902,-0.0891,-0.14,-0.1776,-0.181,-0.18,-0.1795,-0.1795,-0.1795,-0.1795,-0.1795,-0.1795,-0.1795,-0.1795,-0.1795,-0.1795,-0.1795,-0.1795,-0.1795,-0.1795,-0.1795,-0.1795,-0.1795,-0.1795,-0.1795,-0.1795,-0.1795,-0.1795,-0.1795,-0.1795,-0.1795,-0.1795,-0.1795,-0.1795,-0.1795,-0.1795,-0.1808,0.0,0.0682,0.1496,0.2129,0.3369,0.4593,0.533,0.6809,0.8045,0.8208,0.0,0.8885,0.8885,0.8885,0.8905,0.9025,0.9161,0.9435,0.9944,1.029,1.0605,1.0843,1.0812,1.0687,1.0605,1.067,1.0721,1.0721,1.0721,1.0721,1.0721,1.0522,1.0319,1.0183,0.9319,0.7512,0.4766,0.3695,0.2487,0.1009,0.0673,0.0335,0.0,0.0,0.0,0.0,0.0,0.0,0.0,0.0,0.0,0.0,0.0,0.0,0.0,0.0,0.0,0.0,0.0,0.0,0.0,0.0,0.0,0.0,0.0,0.0,0.0,0.0,0.0,0.0,0.0,0.0,0.0,0.0,-0.0485,-0.0893,-0.0885,-0.1388,-0.1814,-0.1798,-0.1795,-0.1795,-0.1795,-0.1795,-0.1795,-0.1795,-0.1795,-0.1795,-0.1795,-0.1795,-0.1739,-0.157,-0.1683,-0.1739,-0.157,-0.1739,-0.1795,-0.1795,-0.1795,-0.1795,-0.1795,-0.1795,-0.1795,-0.1795,-0.1795,-0.1795,-0.1795,-0.1795,-0.1795,-0.1795,-0.1795,-0.1819,0.0,0.0,0.0168,0.0731,0.2248,0.3765,0.4397,0.0,0.0,0.0,0.0,0.8883,0.8892,0.8902,0.9011,0.919,0.9398,0.9727,1.0429,1.0527,1.0633,1.0847,1.0812,1.0721,1.0721,1.0721,1.0721,1.0721,1.0721,1.0721,1.0721,1.0721,1.0721,1.0721,1.0117,0.8709,0.6504,0.4966,0.3425,0.1814,0.1074,0.0467,0.0,0.0,0.0,0.0,0.0,0.0,0.0,0.0,0.0,0.0,0.0,0.0,0.0,0.0,0.0,0.0,0.0,0.0,0.0,0.0,0.0,0.0,0.0,0.0,0.0,0.0,0.0,0.0,0.0,0.0,0.0,0.0,-0.0423,-0.0827,-0.0884,-0.1323,-0.1744,-0.1796,-0.1795,-0.1795,-0.1795,-0.1795,-0.1795,-0.1795,-0.1795,-0.1795,-0.1795,-0.1739,-0.1627,-0.1346,-0.1514,-0.157,-0.1346,-0.1514,-0.1683,-0.1739,-0.1739,-0.1739,-0.1739,-0.1739,-0.1739,-0.1795,-0.1795,-0.1795,-0.1795,-0.1795,-0.1795,-0.1795,-0.1795,-0.1825,0.0,0.0,0.0169,0.0742,0.2345,0.3899,0.4535,0.6418,0.0,0.0,0.0,0.0,0.0,0.9039,0.9183,0.9207,0.9661,1.012,1.0616,1.0683,1.0751,1.086,1.0812,1.0721,1.0721,1.0721,1.0721,1.0721,1.0721,1.0721,1.0721,1.0721,1.0721,1.0721,1.0323,0.9785,0.9111,0.7042,0.4966,0.2955,0.226,0.1255,0.0,0.0,0.0,0.0,0.0,0.0,0.0,0.0,0.0,0.0,0.0,0.0,0.0,0.0,0.0,0.0,0.0,0.0,0.0,0.0,0.0,0.0,0.0,0.0,0.0,0.0,0.0,0.0,0.0,0.0,0.0,0.0,-0.0244,-0.0539,-0.0827,-0.1161,-0.1483,-0.1743,-0.1795,-0.1795,-0.1795,-0.1795,-0.1795,-0.1795,-0.1795,-0.1795,-0.1795,-0.157,-0.1346,-0.129,-0.1121,-0.1121,-0.129,-0.1121,-0.1121,-0.1346,-0.1402,-0.1402,-0.1402,-0.1402,-0.1514,-0.1795,-0.1795,-0.1795,-0.1795,-0.1795,-0.1795,-0.1795,-0.1795,-0.1814,-0.0056,0.0,0.0169,0.081,0.2442,0.4033,0.4674,0.6601,0.8225,0.0,0.0,0.0,0.0,0.9118,0.9442,0.977,1.0122,1.0388,1.068,1.0721,1.0748,1.0749,1.0761,1.0721,1.0721,1.0721,1.0721,1.0721,1.0721,1.0721,1.0721,1.0721,1.0721,1.0721,1.0522,1.0389,1.025,0.8845,0.6907,0.4364,0.3447,0.2231,0.0846,0.0828,0.0631,0.0252,0.0253,0.0191,0.0,0.0,0.0,0.0,0.0,0.0,0.0,0.0,0.0,0.0,0.0,0.0,0.0,0.0,0.0,0.0,0.0,0.0,0.0,0.0,0.0,0.0,0.0,0.0,0.0,0.0,-0.0183,-0.0421,-0.0598,-0.0878,-0.1147,-0.1309,-0.1298,-0.129,-0.129,-0.129,-0.129,-0.129,-0.129,-0.129,-0.129,-0.1177,-0.1009,-0.0841,-0.0841,-0.0897,-0.0841,-0.0841,-0.0953,-0.1065,-0.1065,-0.1065,-0.1065,-0.1234,-0.1346,-0.1514,-0.1683,-0.1795,-0.1795,-0.1795,-0.1795,-0.1795,-0.1812,-0.1836,-0.0168,-0.0056,0.017,0.0818,0.2469,0.4084,0.4767,0.6621,0.822,0.0,0.0,0.0,0.8878,0.9179,0.9622,1.0188,1.0371,1.0507,1.0694,1.0721,1.0721,1.0721,1.0721,1.0721,1.0721,1.0721,1.0721,1.0721,1.0687,1.0666,1.0666,1.0636,1.0616,1.0616,1.0616,1.0616,1.0616,1.0018,0.8453,0.5971,0.4884,0.3581,0.2318,0.1961,0.1499,0.0869,0.0691,0.038,0.0,0.0,0.0,0.0,0.0,0.0,0.0,0.0,0.0,0.0,0.0,0.0,0.0,0.0,0.0,0.0,0.0,0.0,0.0,0.0,0.0,0.0,0.0,0.0,0.0,0.0,-0.0183,-0.0301,-0.036,-0.059,-0.0812,-0.0864,-0.091,-0.0901,-0.0898,-0.0897,-0.0897,-0.0897,-0.0897,-0.0897,-0.0897,-0.0841,-0.0673,-0.0449,-0.0561,-0.0561,-0.0336,-0.0617,-0.0729,-0.0673,-0.0673,-0.0729,-0.0785,-0.0953,-0.1177,-0.129,-0.157,-0.1739,-0.1795,-0.1795,-0.1798,-0.1806,-0.1772,-0.1857,-0.0393,-0.0168,0.017,0.0818,0.2469,0.4084,0.4767,0.6603,0.8174,0.8127,0.0,0.0,0.8873,0.9265,0.9744,1.0205,1.029,1.0395,1.068,1.0721,1.0721,1.0721,1.0721,1.0721,1.0721,1.0721,1.0721,1.0721,1.0588,1.0507,1.0507,1.0385,1.0314,1.0314,1.0314,1.0314,1.0314,0.9918,0.9066,0.7828,0.6649,0.5534,0.4367,0.3374,0.2547,0.1886,0.126,0.0572,0.0,0.0,0.0,0.0,0.0,0.0,0.0,0.0,0.0,0.0,0.0,0.0,0.0,0.0,0.0,0.0,0.0,0.0,0.0,0.0,0.0,0.0,0.0,0.0,0.0,0.0,0.0,-0.012,-0.0355,-0.0417,-0.0536,-0.0867,-0.0919,-0.0914,-0.09,-0.0897,-0.0897,-0.0897,-0.0897,-0.0897,-0.0897,-0.0617,-0.0449,-0.0393,-0.0224,-0.0056,-0.0056,-0.028,-0.0336,-0.0056,-0.0056,-0.0168,-0.0449,-0.0449,-0.0729,-0.129,-0.1346,-0.1514,-0.1795,-0.1795,-0.181,-0.178,-0.1782,-0.1857,-0.0449,-0.0224,0.0169,0.0808,0.245,0.4095,0.4827,0.6659,0.8195,0.8185,0.8415,0.8676,0.9004,0.9356,0.9695,1.0048,1.0293,1.0483,1.069,1.0721,1.0721,1.0721,1.0721,1.0683,1.0585,1.0578,1.0541,1.0453,1.0392,1.0361,1.0361,1.031,1.028,1.028,1.028,1.028,1.028,1.0149,0.9877,0.9395,0.8002,0.6724,0.5452,0.4786,0.3829,0.2608,0.2113,0.1311,0.0314,0.0562,0.0498,0.0311,0.0309,0.0309,0.0309,0.0062,0.0,0.0,0.0,0.0,0.0,0.0,0.0,0.0,0.0,0.0,0.0,0.0,0.0,0.0,0.0,0.0,0.0,0.0,0.0,0.0,-0.0119,-0.0179,-0.0178,-0.0296,-0.035,-0.0344,-0.0342,-0.0339,-0.0336,-0.0336,-0.0336,-0.0336,-0.0336,-0.0226,-0.0171,-0.0171,-0.0057,0.0,0.0,-0.0114,-0.0113,0.0,0.0,-0.0056,-0.0168,-0.0336,-0.0617,-0.1065,-0.1247,-0.1481,-0.1823,-0.1842,-0.1857,-0.1869,-0.1888,-0.1903,-0.0617,-0.028,0.0169,0.0744,0.2439,0.4096,0.4895,0.6726,0.8172,0.8172,0.8458,0.8663,0.8882,0.9136,0.9454,0.9728,1.0035,1.036,1.0495,1.0654,1.0721,1.0721,1.0677,1.0609,1.0504,1.0453,1.0385,1.0287,1.0236,1.0209,1.0209,1.0161,1.0134,1.0134,1.0134,1.0134,1.0134,1.0134,1.0134,1.0134,0.9094,0.8073,0.7106,0.6383,0.5293,0.406,0.3266,0.222,0.0987,0.1111,0.1049,0.0802,0.0926,0.0864,0.0617,0.0185,0.0,0.0,0.0,0.0,0.0,0.0,0.0,0.0,0.0,0.0,0.0,0.0,0.0,0.0,0.0,0.0,0.0,0.0,0.0,0.0,0.0,0.0,0.0,0.0,0.0,0.0,0.0,0.0,0.0,0.0,0.0,0.0,0.0,0.0,0.0,0.0,0.0,0.0,0.0,0.0,0.0,0.0,0.0,0.0,0.0,-0.0168,-0.045,-0.0904,-0.1143,-0.1441,-0.1855,-0.1876,-0.1891,-0.1901,-0.1931,-0.195,-0.0897,-0.0449,0.0169,0.0744,0.244,0.4086,0.4892,0.6677,0.8172,0.8175,0.8391,0.8489,0.8486,0.8697,0.9008,0.9269,0.957,0.9861,1.0151,1.0522,1.0721,1.0717,1.0585,1.049,1.0487,1.0361,1.0276,1.0276,1.0134,0.9984,0.9984,0.9842,0.9822,0.9822,0.9822,0.9822,0.9822,0.9822,0.9822,0.9822,0.9822,0.9719,0.9551,0.8052,0.7074,0.6331,0.4618,0.3204,0.1973,0.1665,0.1541,0.1541,0.191,0.1603,0.0926,0.0247,0.0,0.0,0.0,0.0,0.0,0.0,0.0,0.0,0.0,0.0,0.0,0.0,0.0,0.0,0.0,0.0,0.0,0.0,0.0,0.0,0.0,0.0,0.0,0.0,0.0,0.0,0.0,0.0,0.0,0.0,0.0,0.0,0.0,0.0,0.0,0.0,0.0,0.0,0.0,0.0,0.0,0.0,0.0,0.0,0.0,0.0,-0.0283,-0.0862,-0.092,-0.1217,-0.1886,-0.1887,-0.1902,-0.1872,-0.1963,-0.1992,-0.0897,-0.0453,0.0171,0.0746,0.2481,0.4197,0.0,0.6677,0.0,0.0,0.8456,0.8447,0.8517,0.8657,0.8815,0.9054,0.9337,0.9652,1.0164,1.0256,1.0419,1.0571,1.0521,1.0409,1.0202,1.0081,1.0073,0.9964,0.9914,0.989,0.989,0.9846,0.9822,0.9822,0.9822,0.9822,0.9822,0.9822,0.9822,0.9822,0.9822,0.9663,0.9339,0.8686,0.7808,0.6703,0.5722,0.4309,0.2708,0.2498,0.2669,0.3089,0.2637,0.2268,0.1791,0.0657,0.0299,0.0239,0.006,0.0,0.0,0.0,0.0,0.0,0.0,0.0,0.0,0.0,0.0,0.0,0.0,0.0,0.0,0.0,0.0,0.0,0.0,0.0,0.0,0.0,0.0,0.0,0.0,0.0,0.0,0.0,0.0,0.0,0.0,0.0,0.0,0.0,0.0,0.0,0.0,0.0,0.0,0.0,0.0,0.0,0.0,0.0,-0.017,-0.0517,-0.0814,-0.1179,-0.1558,-0.1818,-0.1832,-0.1595,-0.1619,-0.1508,-0.0905,-0.0459,0.0175,0.0767,0.2558,0.458,0.6061,0.737,0.8361,0.8549,0.8497,0.8437,0.8478,0.8469,0.8544,0.8713,0.903,0.9306,0.9703,0.9877,0.9942,1.0114,1.0131,1.0059,0.9883,0.9871,0.9859,0.9829,0.9822,0.9822,0.9822,0.9822,0.9822,0.9822,0.9822,0.9822,0.9822,0.9822,0.9822,0.9822,0.9822,0.97,0.9457,0.9156,0.8604,0.7805,0.658,0.5291,0.3936,0.3937,0.4092,0.4327,0.3962,0.341,0.2706,0.1413,0.0824,0.053,0.0118,0.0,0.0,0.0,0.0,0.0,0.0,0.0,0.0,0.0,0.0,0.0,0.0,0.0,0.0,0.0,0.0,0.0,0.0,0.0,0.0,0.0,0.0,0.0,0.0,0.0,0.0,0.0,0.0,0.0,0.0,0.0,0.0,0.0,0.0,0.0,0.0,0.0,0.0,0.0,0.0,0.0,0.0,0.0,-0.0115,-0.041,-0.0651,-0.0959,-0.1218,-0.1476,-0.142,-0.1112,-0.094,-0.0696,-0.0915,-0.0524,0.0059,0.0797,0.2648,0.5104,0.78,0.841,0.8435,0.8549,0.8489,0.8421,0.8432,0.8342,0.8304,0.8416,0.8694,0.8921,0.9085,0.9267,0.9447,0.9488,0.9523,0.9551,0.9601,0.9658,0.9761,0.9822,0.9822,0.9822,0.9822,0.9822,0.9822,0.9822,0.9822,0.9822,0.9822,0.9822,0.9822,0.9822,0.9808,0.9802,0.9741,0.9451,0.9335,0.9153,0.725,0.609,0.5598,0.5688,0.5588,0.5335,0.5481,0.4858,0.3628,0.2342,0.1524,0.0938,0.0293,0.0059,0.0059,0.0,0.0,0.0,0.0,0.0,0.0,0.0,0.0,0.0,0.0,0.0,0.0,0.0,0.0,0.0,0.0,0.0,0.0,0.0,0.0,0.0,0.0,0.0,0.0,0.0,0.0,0.0,0.0,0.0,0.0,0.0,0.0,0.0,0.0,0.0,0.0,0.0,0.0,0.0,0.0,0.0,-0.0119,-0.0422,-0.0483,-0.0669,-0.0926,-0.0988,-0.0803,-0.0432,-0.0063,0.0318,-0.1255,-0.1057,-0.0543,0.0369,0.2775,0.5558,0.7867,0.8342,0.8307,0.8429,0.8435,0.8446,0.8535,0.853,0.8519,0.8546,0.8618,0.8726,0.8918,0.9018,0.9057,0.9169,0.9221,0.9265,0.9332,0.9416,0.9518,0.9758,0.9822,0.9822,0.9822,0.9822,0.9822,0.9822,0.9822,0.9822,0.9822,0.9822,0.9822,0.9819,0.9707,0.9656,0.9659,0.965,0.9396,0.8851,0.7378,0.6891,0.6947,0.6355,0.6151,0.6251,0.5972,0.5376,0.4472,0.3056,0.2266,0.1758,0.068,0.034,0.0283,0.0057,0.0,0.0,0.0,0.0,0.0,0.0,0.0,0.0,0.0,0.0,0.0,0.0,0.0,0.0,0.0,0.0,0.0,0.0,0.0,0.0,0.0,0.0,0.0,0.0,0.0,0.0,0.0,0.0,0.0,0.0,0.0,0.0,0.0,0.0,0.0,0.0,0.0,0.0,0.0,0.0,-0.0059,-0.0121,-0.0362,-0.0547,-0.0617,-0.0864,-0.0679,-0.0124,0.0501,0.1137,-0.1368,-0.1184,-0.0492,0.1593,0.3704,0.5773,0.7821,0.8282,0.8236,0.8242,0.8291,0.8367,0.8484,0.8508,0.8524,0.8579,0.8587,0.8615,0.8628,0.8626,0.8581,0.8642,0.8691,0.8811,0.8861,0.9156,0.9396,0.9518,0.97,0.9822,0.9822,0.9822,0.9822,0.9822,0.9822,0.9822,0.9822,0.9822,0.9788,0.972,0.9646,0.9571,0.9507,0.9652,0.9416,0.8938,0.8329,0.7994,0.7869,0.7383,0.7089,0.698,0.6749,0.6186,0.5429,0.4365,0.3529,0.2691,0.1513,0.0897,0.0561,0.0112,0.0,0.0,0.0,0.0,0.0,0.0,0.0,0.0,0.0,0.0,0.0,0.0,0.0,0.0,0.0,0.0,0.0,0.0,0.0,0.0,0.0,0.0,0.0,0.0,0.0,0.0,0.0,0.0,0.0,0.0,0.0,0.0,0.0,0.0,0.0,0.0,0.0,0.0,0.0,0.0,0.0,0.0,-0.0183,-0.0245,-0.0247,-0.0432,-0.0185,0.0494,0.1491,0.2254,-0.136,-0.1132,-0.0188,0.2781,0.4363,0.5736,0.7602,0.8058,0.8137,0.8079,0.8133,0.8242,0.8364,0.8405,0.8448,0.8543,0.8573,0.8541,0.8405,0.8299,0.8182,0.8103,0.8184,0.8308,0.8369,0.8854,0.9214,0.9275,0.9579,0.9761,0.9822,0.9822,0.9822,0.9822,0.9822,0.9822,0.9822,0.9795,0.9727,0.9608,0.9554,0.9452,0.931,0.949,0.939,0.915,0.9236,0.8924,0.8415,0.827,0.7923,0.7508,0.735,0.6953,0.6344,0.5712,0.476,0.3642,0.2408,0.1569,0.1009,0.028,0.0056,0.0056,0.0,0.0,0.0,0.0,0.0,0.0,0.0,0.0,0.0,0.0,0.0,0.0,0.0,0.0,0.0,0.0,0.0,0.0,0.0,0.0,0.0,0.0,0.0,0.0,0.0,0.0,0.0,0.0,0.0,0.0,0.0,0.0,0.0,0.0,0.0,0.0,0.0,0.0,0.0,0.0,0.0,0.0,0.0062,0.0062,0.0494,0.1296,0.2589,0.3348,-0.1722,-0.1131,0.0,0.1859,0.3424,0.495,0.6976,0.76,0.7821,0.8079,0.813,0.8114,0.8236,0.8345,0.8424,0.8437,0.8524,0.8511,0.8291,0.818,0.8152,0.7924,0.7941,0.8058,0.8369,0.8491,0.8732,0.9278,0.9335,0.9518,0.9761,0.9822,0.9822,0.9822,0.9822,0.9822,0.9822,0.97,0.9629,0.9605,0.934,0.9137,0.8952,0.9286,0.9412,0.936,0.9209,0.8841,0.8386,0.8192,0.7864,0.7516,0.75,0.719,0.6737,0.6021,0.532,0.4538,0.308,0.2353,0.1851,0.0729,0.0336,0.028,0.0056,0.0,0.0,0.0,0.0,0.0,0.0,0.0,0.0,0.0,0.0,0.0,0.0,0.0,0.0,0.0,0.0,0.0,0.0,0.0,0.0,0.0,0.0,0.0,0.0,0.0,0.0,0.0,0.0,0.0,0.0,0.0,0.0,0.0,0.0,0.0,0.0,0.0,0.0,0.0,0.0,0.0123,0.0432,0.0432,0.1049,0.2344,0.3329,0.4132,-0.1842,-0.1275,-0.0382,0.0921,0.2337,0.3949,0.5933,0.6801,0.7377,0.7966,0.8117,0.8133,0.8125,0.8233,0.8337,0.8407,0.8513,0.8505,0.8269,0.8172,0.8144,0.7899,0.7872,0.7933,0.8119,0.8305,0.8491,0.8793,0.9095,0.9335,0.9518,0.97,0.9822,0.9822,0.9744,0.9703,0.9703,0.9554,0.9439,0.9351,0.9137,0.8998,0.8892,0.9157,0.9309,0.9266,0.9323,0.8983,0.8393,0.8414,0.8039,0.7519,0.7519,0.733,0.7095,0.6697,0.6209,0.5541,0.4533,0.3696,0.2802,0.1569,0.0953,0.0617,0.0112,0.0,0.0,0.0,0.0,0.0,0.0,0.0,0.0,0.0,0.0,0.0,0.0,0.0,0.0,0.0,0.0,0.0,0.0,0.0,0.0,0.0,0.0,0.0,0.0,0.0,0.0,0.0,0.0,0.0,0.0,0.0,0.0,0.0,0.0,0.0,0.0,0.0,0.0062,0.0247,0.0123,0.0185,0.0494,0.1049,0.185,0.2834,0.431,0.517,-0.1877,0.0,-0.0808,0.0129,0.1312,0.2842,0.4799,0.5749,0.6535,0.7433,0.7549,0.757,0.7635,0.7917,0.8228,0.8353,0.847,0.8484,0.8307,0.8191,0.8157,0.7943,0.7949,0.7872,0.7872,0.8119,0.8308,0.8369,0.8793,0.9156,0.9275,0.9518,0.9684,0.9768,0.9663,0.9591,0.9551,0.9401,0.9249,0.9096,0.8991,0.8885,0.8888,0.9086,0.919,0.9113,0.9378,0.911,0.8411,0.8527,0.8187,0.7635,0.7519,0.7462,0.7364,0.7211,0.6877,0.632,0.5708,0.476,0.3642,0.2296,0.1513,0.0897,0.0224,0.0,0.0,0.0,0.0,0.0,0.0,0.0,0.0,0.0,0.0,0.0,0.0,0.0,0.0,0.0,0.0,0.0,0.0,0.0,0.0,0.0,0.0,0.0,0.0,0.0,0.0,0.0,0.0,0.0,0.0,0.0,0.0,0.0,0.0,0.0,0.0,0.0,0.0185,0.0494,0.0494,0.0679,0.0987,0.185,0.2711,0.3633,0.5293,0.6092,-0.1763,-0.1559,0.0,-0.0498,0.0443,0.172,0.353,0.4313,0.5003,0.6091,0.616,0.6099,0.641,0.7361,0.8103,0.8225,0.8348,0.8421,0.841,0.8307,0.8187,0.8122,0.8002,0.7872,0.7872,0.7933,0.8058,0.8369,0.843,0.8671,0.9278,0.9339,0.9398,0.9625,0.9612,0.954,0.9395,0.9299,0.9093,0.8895,0.8888,0.8885,0.8888,0.9086,0.9079,0.8902,0.911,0.8921,0.8474,0.8414,0.8224,0.7924,0.7635,0.7513,0.7481,0.7298,0.6988,0.6601,0.5989,0.5206,0.4199,0.2687,0.1793,0.1121,0.028,0.0,0.0,0.0,0.0,0.0,0.0,0.0,0.0,0.0,0.0,0.0,0.0,0.0,0.0,0.0,0.0,0.0,0.0,0.0,0.0,0.0,0.0,0.0,0.0,0.0,0.0,0.0,0.0,0.0,0.0,0.0,0.0,0.0,0.0,0.0,0.0,0.0,0.0185,0.0494,0.1419,0.2035,0.2406,0.2773,0.3757,0.5297,0.6033,0.6528,-0.1802,0.0,0.0,-0.1361,-0.0725,0.0185,0.1506,0.2267,0.3026,0.3991,0.4338,0.4543,0.5056,0.6232,0.719,0.7479,0.7642,0.7737,0.7664,0.7619,0.7615,0.7694,0.764,0.7689,0.7869,0.7872,0.7933,0.8058,0.8305,0.8613,0.9037,0.9128,0.9297,0.9612,0.9418,0.9245,0.91,0.9042,0.8991,0.8885,0.8885,0.8885,0.8885,0.8991,0.8988,0.8888,0.8991,0.8867,0.8646,0.8816,0.8576,0.8098,0.7897,0.7691,0.7489,0.73,0.7099,0.699,0.6765,0.5984,0.4869,0.3525,0.2409,0.1402,0.0336,0.0,0.0,0.0,0.0,0.0,0.0,0.0,0.0,0.0,0.0,0.0,0.0,0.0,0.0,0.0,0.0,0.0,0.0,0.0,0.0,0.0,0.0,0.0,0.0,0.0,0.0,0.0,0.0,0.0,0.0,0.0,0.0,0.0,0.0,0.0,0.0,0.0,0.0247,0.0803,0.1788,0.2465,0.2834,0.4186,0.5293,0.6035,0.6952,0.7444,-0.1777,-0.178,-0.1785,-0.1805,-0.1386,-0.077,0.0121,0.0737,0.1367,0.2247,0.2561,0.2928,0.3639,0.4534,0.5572,0.6603,0.6878,0.6976,0.6942,0.7002,0.7169,0.7422,0.7411,0.7565,0.7932,0.7955,0.7872,0.7872,0.8119,0.8407,0.8787,0.8875,0.9081,0.9459,0.9211,0.9035,0.8885,0.8885,0.8885,0.8885,0.8885,0.8885,0.8885,0.8885,0.8885,0.8888,0.8991,0.8927,0.8762,0.8768,0.8574,0.8157,0.7892,0.763,0.7432,0.7284,0.721,0.721,0.721,0.6487,0.5316,0.414,0.2968,0.185,0.0673,0.028,0.028,0.0168,0.0112,0.0112,0.0,0.0,0.0,0.0,0.0,0.0,0.0,0.0,0.0,0.0,0.0,0.0,0.0,0.0,0.0,0.0,0.0,0.0,0.0,0.0,0.0,0.0,0.0,0.0,0.0,0.0,0.0,0.0,0.0,0.0,0.0,0.0,0.0309,0.0988,0.228,0.3201,0.3633,0.5293,0.6278,0.6771,0.7566,0.7872,0.0,0.0,0.0,-0.1786,-0.1547,-0.1129,-0.0466,-0.0178,0.0121,0.0859,0.0985,0.1232,0.222,0.2405,0.322,0.5587,0.6053,0.6208,0.63,0.6572,0.69,0.7234,0.7373,0.7619,0.8054,0.7943,0.7872,0.7872,0.7872,0.8121,0.8593,0.8641,0.8805,0.9157,0.9011,0.8885,0.8885,0.8885,0.8885,0.8885,0.8885,0.8885,0.8885,0.8885,0.8885,0.8892,0.9086,0.9066,0.884,0.8426,0.8199,0.8142,0.7564,0.7336,0.732,0.7254,0.721,0.721,0.721,0.6599,0.5599,0.4421,0.347,0.252,0.1345,0.0953,0.0897,0.0561,0.0449,0.0336,0.0056,0.0,0.0,0.0,0.0,0.0,0.0,0.0,0.0,0.0,0.0,0.0,0.0,0.0,0.0,0.0,0.0,0.0,0.0,0.0,0.0,0.0,0.0,0.0,0.0,0.0,0.0,0.0,0.0,0.0,0.0,0.0,0.037,0.105,0.2956,0.4246,0.4926,0.5972,0.6771,0.7447,0.775,0.7872,-0.1743,0.0,0.0,0.0,0.0,0.0,-0.1364,-0.129,-0.127,-0.1127,-0.0903,-0.0548,0.0185,0.0555,0.1049,0.223,0.3892,0.5102,0.5178,0.5639,0.6116,0.6505,0.6668,0.699,0.7619,0.7575,0.7627,0.7869,0.7872,0.8121,0.8593,0.8871,0.902,0.9005,0.8905,0.8885,0.8885,0.8885,0.8885,0.8885,0.8885,0.8885,0.8885,0.8885,0.8885,0.8885,0.8981,0.8863,0.8618,0.8698,0.8454,0.8037,0.8061,0.7738,0.732,0.7427,0.7379,0.721,0.721,0.6765,0.604,0.526,0.4533,0.3863,0.3079,0.2575,0.2073,0.1568,0.1121,0.0617,0.0112,0.0,0.0,0.0,0.0,0.0,0.0,0.0,0.0,0.0,0.0,0.0,0.0,0.0,0.0,0.0,0.0,0.0,0.0,0.0,0.0,0.0,0.0,0.0,0.0,0.0,0.0123,0.037,0.037,0.0494,0.0741,0.0741,0.1173,0.2097,0.351,0.4739,0.56,0.6888,0.7566,0.775,0.7872,0.7872,-0.1719,-0.1705,-0.1639,-0.1622,0.0,0.0,-0.1683,-0.1733,-0.179,-0.1838,-0.1696,-0.1367,-0.0784,-0.0484,-0.0182,0.0545,0.1899,0.3123,0.3724,0.4471,0.5164,0.5835,0.6247,0.6673,0.7375,0.7426,0.7578,0.7948,0.796,0.8101,0.8517,0.8882,0.9025,0.8885,0.8885,0.8885,0.8885,0.8885,0.8885,0.8885,0.8885,0.8885,0.8885,0.8885,0.8885,0.8885,0.8885,0.866,0.8276,0.8442,0.8226,0.7818,0.7856,0.7598,0.7252,0.7407,0.7324,0.721,0.721,0.6877,0.6376,0.5764,0.5262,0.4758,0.4142,0.3527,0.2913,0.2184,0.1289,0.0449,0.0112,0.0,0.0,0.0,0.0,0.0,0.0,0.0,0.0,0.0,0.0,0.0,0.0,0.0,0.0,0.0,0.0,0.0,0.0,0.0,0.0,0.0,0.0,0.0,0.0,0.0,0.0123,0.0494,0.0864,0.1296,0.1603,0.1973,0.2527,0.3266,0.4432,0.5598,0.6766,0.7503,0.7872,0.7872,0.7872,0.7872,-0.1709,-0.1637,-0.1617,-0.1617,-0.1637,0.0,-0.1709,-0.1753,-0.1803,-0.1778,-0.1809,-0.161,-0.111,-0.0996,-0.082,-0.0234,0.0119,0.0792,0.2293,0.3182,0.4019,0.508,0.5749,0.6416,0.7071,0.728,0.7593,0.8016,0.7949,0.8025,0.8411,0.8705,0.8881,0.8885,0.8885,0.8885,0.8885,0.8885,0.8885,0.8885,0.8885,0.8885,0.8885,0.8885,0.8885,0.8885,0.8885,0.8602,0.8045,0.7989,0.7826,0.7549,0.7324,0.721,0.721,0.721,0.721,0.721,0.721,0.699,0.6657,0.6156,0.5819,0.5483,0.4981,0.4313,0.3586,0.2464,0.1121,0.0,0.0,0.0,0.0,0.0,0.0,0.0,0.0,0.0,0.0,0.0,0.0,0.0,0.0,0.0,0.0,0.0,0.0,0.0,0.0,0.0,0.0,0.0,0.0,0.0,0.0062,0.0062,0.0247,0.0679,0.1603,0.228,0.2709,0.3569,0.4185,0.4553,0.5536,0.6644,0.7872,0.7872,0.7872,0.7872,0.7872,0.7872,-0.1626,-0.1622,-0.1617,-0.1617,-0.1622,0.0,-0.1626,-0.1654,-0.174,-0.1716,-0.1746,-0.1776,-0.1638,-0.1643,-0.1586,-0.1473,-0.1148,-0.0295,0.1545,0.2392,0.3131,0.3957,0.4556,0.5277,0.6159,0.65,0.6952,0.7716,0.7797,0.7982,0.8396,0.8533,0.8657,0.8881,0.8885,0.8885,0.8885,0.8885,0.8885,0.8885,0.8885,0.8885,0.8885,0.8885,0.8885,0.8885,0.8885,0.8712,0.8374,0.81,0.7712,0.7268,0.7438,0.7379,0.721,0.7438,0.7379,0.721,0.721,0.7154,0.7099,0.6988,0.6877,0.6818,0.6707,0.5929,0.4589,0.2465,0.0953,0.0,0.0,0.0,0.0,0.0,0.0,0.0,0.0,0.0,0.0,0.0,0.0,0.0,0.0,0.0,0.0,0.0,0.0,0.0,0.0,0.0,0.0,0.0,0.0,0.0123,0.037,0.0432,0.0864,0.2036,0.2527,0.3203,0.4006,0.4435,0.4984,0.56,0.6585,0.7383,0.7872,0.7872,0.7872,0.7872,0.7872,0.7872,-0.1617,-0.1617,-0.1617,-0.1617,-0.1617,0.0,0.0,-0.1628,-0.1643,-0.1658,-0.1673,-0.1688,-0.1703,-0.1718,-0.1729,-0.1729,-0.1612,-0.1088,0.0235,0.0974,0.1634,0.2378,0.3137,0.4076,0.5217,0.5839,0.6598,0.7595,0.7762,0.7875,0.8114,0.8379,0.8543,0.8712,0.8826,0.8885,0.8885,0.8885,0.8885,0.8881,0.8807,0.8825,0.8821,0.8747,0.871,0.871,0.871,0.8548,0.8221,0.8059,0.772,0.7292,0.7357,0.7324,0.721,0.7324,0.7324,0.721,0.721,0.721,0.721,0.721,0.721,0.721,0.721,0.5926,0.414,0.2298,0.0953,0.0,0.0,0.0,0.0,0.0,0.0,0.0,0.0,0.0,0.0,0.0,0.0,0.0,0.0,0.0,0.0,0.0,0.0,0.0,0.0,0.0,0.0,0.0,0.0,0.0123,0.0494,0.0987,0.1665,0.2712,0.3817,0.474,0.536,0.6031,0.658,0.6888,0.7383,0.775,0.7872,0.7872,0.7872,0.7872,0.7872,0.7872,-0.1617,-0.1617,-0.1617,-0.1617,-0.1617,-0.1617,0.0,0.0,0.0,-0.1608,-0.1604,-0.1599,-0.1599,-0.162,-0.1689,-0.1695,-0.171,-0.1599,-0.1054,-0.0583,0.0061,0.0884,0.1779,0.2924,0.4254,0.539,0.6528,0.7532,0.7682,0.7706,0.7786,0.8171,0.8429,0.8484,0.8768,0.8885,0.8885,0.8885,0.8885,0.8881,0.8784,0.871,0.8706,0.8554,0.8482,0.8482,0.8482,0.8325,0.8115,0.801,0.7762,0.7444,0.7295,0.7246,0.721,0.721,0.721,0.721,0.721,0.721,0.721,0.721,0.721,0.7154,0.6932,0.531,0.3358,0.213,0.0953,0.0,0.0,0.0,0.0,0.0,0.0,0.0,0.0,0.0,0.0,0.0,0.0,0.0,0.0,0.0,0.0,0.0,0.0,0.0,0.0,0.0,0.0,0.0062,0.0123,0.0309,0.0864,0.1665,0.2526,0.3387,0.5047,0.6154,0.6587,0.7441,0.7872,0.7872,0.7872,0.7872,0.7872,0.7872,0.7872,0.7872,0.7872,0.7872,-0.1617,-0.1617,-0.1617,-0.1617,-0.1617,-0.1617,-0.1617,0.0,-0.1577,-0.1577,0.0,-0.1488,-0.1488,0.0,0.0,-0.1577,-0.1613,-0.1603,-0.1601,-0.1585,-0.113,0.0059,0.0784,0.1701,0.3092,0.5139,0.6662,0.721,0.7257,0.7444,0.778,0.7947,0.8211,0.8484,0.8768,0.8885,0.8885,0.8885,0.8885,0.8881,0.8784,0.871,0.8706,0.8554,0.8482,0.8482,0.8482,0.8482,0.843,0.8118,0.7812,0.7578,0.7439,0.7281,0.721,0.721,0.721,0.721,0.721,0.721,0.721,0.721,0.721,0.6988,0.5929,0.4643,0.3358,0.213,0.0953,0.0,0.0,0.0,0.0,0.0,0.0,0.0,0.0,0.0,0.0,0.0,0.0,0.0,0.0,0.0,0.0,0.0,0.0,0.0,0.0,0.0,0.0123,0.0432,0.0432,0.0926,0.2159,0.2649,0.351,0.5051,0.591,0.6648,0.7263,0.7689,0.7872,0.7872,0.7872,0.7872,0.7872,0.7872,0.7872,0.7872,0.7872,0.7872,-0.1566,-0.1617,-0.1617,-0.1617,-0.1617,-0.1612,-0.1594,-0.1581,-0.161,-0.1574,0.0,0.0,0.0,0.0,0.0,0.0,-0.16,-0.1652,-0.1676,-0.1705,-0.1532,-0.1083,-0.0465,0.065,0.2522,0.4682,0.6064,0.6462,0.692,0.7287,0.7452,0.7797,0.8045,0.8211,0.8657,0.8885,0.8885,0.8885,0.8885,0.8878,0.8693,0.8577,0.857,0.8333,0.8225,0.8225,0.8225,0.8225,0.8174,0.8072,0.7817,0.7492,0.7519,0.7328,0.7119,0.7185,0.721,0.721,0.721,0.721,0.721,0.721,0.721,0.6988,0.5931,0.4812,0.3638,0.2633,0.1457,0.0505,0.0505,0.0393,0.0224,0.0224,0.0112,0.0,0.0,0.0,0.0,0.0,0.0,0.0,0.0,0.0,0.0,0.0,0.0,0.0,0.0,0.0,0.0123,0.0494,0.1049,0.1727,0.2712,0.394,0.5047,0.591,0.6768,0.7383,0.7689,0.7811,0.7872,0.7872,0.7872,0.7872,0.7872,0.7872,0.7872,0.7872,0.7872,0.7872,-0.1463,-0.1572,-0.1629,-0.1629,-0.1629,-0.162,-0.158,-0.1565,-0.1547,-0.1502,-0.1487,0.0,0.0,0.0,-0.1529,-0.1537,0.0,-0.1691,-0.1649,-0.1667,-0.1703,-0.1763,-0.1071,0.0116,0.2026,0.4061,0.5424,0.5835,0.6676,0.7177,0.721,0.7677,0.8005,0.7989,0.8602,0.8885,0.8885,0.8885,0.8885,0.8878,0.8628,0.8482,0.8472,0.8174,0.7988,0.7988,0.7988,0.7988,0.7988,0.7988,0.7774,0.7407,0.7543,0.7357,0.6999,0.7166,0.721,0.721,0.721,0.721,0.721,0.721,0.721,0.7043,0.6209,0.5204,0.4198,0.3415,0.2464,0.1625,0.1457,0.1065,0.0729,0.0561,0.028,0.0,0.0,0.0,0.0,0.0,0.0,0.0,0.0,0.0,0.006,0.0123,0.0123,0.0185,0.0247,0.0247,0.0494,0.0987,0.1788,0.2649,0.3571,0.5109,0.6276,0.6771,0.7503,0.7872,0.7872,0.7872,0.7872,0.7872,0.7872,0.7872,0.7872,0.7872,0.7872,0.7872,0.7872,0.7872,-0.1307,-0.1485,-0.1713,-0.1713,-0.1713,-0.1697,-0.1634,-0.1549,-0.1479,-0.1477,-0.1501,-0.1489,-0.1518,-0.1477,-0.1536,-0.1565,-0.1622,0.0,0.0,-0.1619,-0.1641,-0.17,-0.066,0.0455,0.1409,0.3418,0.4877,0.5455,0.6458,0.7037,0.7204,0.7647,0.7907,0.7983,0.8602,0.8885,0.8885,0.8885,0.8885,0.8878,0.8628,0.8482,0.8472,0.8174,0.7988,0.7988,0.7988,0.7988,0.7988,0.7988,0.7774,0.7407,0.7543,0.7357,0.6999,0.7166,0.721,0.721,0.721,0.721,0.721,0.721,0.721,0.7099,0.6485,0.5873,0.5204,0.459,0.3973,0.3357,0.28,0.2184,0.1624,0.1009,0.0449,0.0,0.0,0.0,0.0,0.0,0.0,0.0,0.0,0.0,0.0121,0.0431,0.0494,0.0617,0.0926,0.0988,0.1358,0.2344,0.2773,0.3634,0.5174,0.5974,0.683,0.7808,0.7869,0.7872,0.7872,0.7872,0.7872,0.7872,0.7872,0.7872,0.7872,0.7872,0.7872,0.7872,0.7872,0.7872,-0.1138,-0.1307,-0.1428,-0.1581,-0.1633,-0.1622,-0.1581,-0.1564,-0.1545,-0.1504,-0.1504,-0.1508,-0.1498,-0.1529,-0.156,-0.1619,-0.1588,-0.1605,0.0,-0.1617,-0.1632,-0.1671,-0.0963,-0.0219,0.0448,0.2505,0.405,0.4663,0.603,0.6915,0.7035,0.7596,0.7904,0.7983,0.8602,0.8885,0.8885,0.8838,0.8788,0.8784,0.8486,0.8289,0.8184,0.798,0.7838,0.7753,0.7848,0.7889,0.7906,0.8106,0.7862,0.7413,0.7634,0.743,0.6999,0.7166,0.721,0.721,0.721,0.721,0.721,0.721,0.721,0.7099,0.6712,0.6156,0.5596,0.5204,0.4646,0.4086,0.3695,0.2967,0.2297,0.185,0.1188,0.057,0.057,0.057,0.063,0.0641,0.0643,0.0588,0.0661,0.0669,0.0614,0.0494,0.1049,0.1603,0.1972,0.2525,0.3141,0.3694,0.4432,0.5232,0.5974,0.6891,0.7566,0.7869,0.7872,0.7872,0.7872,0.7872,0.7872,0.7872,0.7872,0.7872,0.7872,0.7872,0.7872,0.7872,0.7872,0.7872,-0.0824,-0.0986,-0.115,-0.13,-0.1408,-0.1506,-0.1467,-0.1515,-0.1557,-0.1413,-0.1371,-0.138,-0.1277,-0.1352,-0.1476,-0.1437,-0.1554,-0.1617,0.0,-0.1617,-0.1624,-0.1643,-0.115,-0.0585,-0.0054,0.1892,0.3405,0.4111,0.5585,0.6526,0.6749,0.7341,0.7723,0.7968,0.8462,0.8826,0.8885,0.8788,0.871,0.8706,0.8411,0.8187,0.7985,0.7882,0.7733,0.7604,0.7695,0.7767,0.7831,0.7985,0.784,0.7486,0.7594,0.744,0.7109,0.7182,0.721,0.721,0.721,0.721,0.721,0.721,0.721,0.7154,0.6935,0.6601,0.6265,0.6096,0.5761,0.5371,0.4921,0.4252,0.3589,0.3161,0.2508,0.1956,0.1966,0.1969,0.1978,0.201,0.2017,0.1967,0.1999,0.2021,0.185,0.1296,0.185,0.2526,0.308,0.3816,0.443,0.4862,0.56,0.634,0.6891,0.7505,0.7872,0.7872,0.7872,0.7872,0.7872,0.7872,0.7872,0.7872,0.7872,0.7872,0.7872,0.7872,0.7872,0.7872,0.7872,0.7872]}]]